[[{"header":{"parameterUnit":"m.s-1","parameterCategory":1,"la1":30.6,"la2":28.766,"lo1":-90.7593,"lo2":-88.6598,"dy":0.0162,"dx":0.0183,"nx":116,"ny":114,"refTime":"2023-09-22T00:00:00:Z","depth":0,"parameterNumber":2,"parameterNumberName":"U-component_of_WINDS"},"data":[0.0,0.0,0.0,0.0,0.0,0.0,0.0,0.0,0.0,0.0,0.0,0.0,0.0,0.0,0.0,0.0,0.0,0.0,0.0,0.0,0.0,0.0,0.0,0.0,0.0,0.0,0.0,0.0,0.0,0.0,0.0,0.0,0.0,0.0,0.0,0.0,0.0,0.0,0.0,0.0,0.0,0.0,0.0,0.0,0.0,0.0,0.0,0.0,0.0,0.0,0.0,0.0,0.0,0.0,0.0,0.0,0.0,0.0,0.0,0.0,0.0,0.0,0.0,0.0,0.0,0.0,0.0,0.0,0.0,0.0,0.0,0.0,0.0,0.0,0.0,0.0,0.0,0.0,0.0,0.0,0.0,0.0,0.0,0.0,0.0,0.0,0.0,0.0,0.0,0.0,0.0,0.0,0.0,0.0,0.0,0.0,0.0,0.0,0.0,0.0,0.0,0.0,0.0,0.0,0.0,0.0,0.0,0.0,0.0,0.0,0.0,0.0,0.0,0.0,0.0,0.0,0.0,0.0,0.0,0.0,0.0,0.0,0.0,0.0,0.0,0.0,0.0,0.0,0.0,0.0,0.0,0.0,0.0,0.0,0.0,0.0,0.0,0.0,0.0,0.0,0.0,0.0,0.0,0.0,0.0,0.0,0.0,0.0,0.0,0.0,0.0,0.0,0.0,0.0,0.0,0.0,0.0,0.0,0.0,0.0,0.0,0.0,0.0,0.0,0.0,0.0,0.0,0.0,0.0,0.0,0.0,0.0,0.0,0.0,0.0,0.0,0.0,0.0,0.0,0.0,0.0,0.0,0.0,0.0,0.0,0.0,0.0,0.0,0.0,0.0,0.0,0.0,0.0,0.0,0.0,0.0,0.0,0.0,0.0,0.0,0.0,0.0,0.0,0.0,0.0,0.0,0.0,0.0,0.0,0.0,0.0,0.0,0.0,0.0,0.0,0.0,0.0,0.0,0.0,0.0,0.0,0.0,0.0,0.0,0.0,0.0,0.0,0.0,0.0,0.0,0.0,0.0,0.0,0.0,0.0,0.0,0.0,0.0,0.0,0.0,0.0,0.0,0.0,0.0,0.0,0.0,0.0,0.0,0.0,0.0,0.0,0.0,0.0,0.0,0.0,0.0,0.0,0.0,0.0,0.0,0.0,0.0,0.0,0.0,0.0,0.0,0.0,0.0,0.0,0.0,0.0,0.0,0.0,0.0,0.0,0.0,0.0,0.0,0.0,0.0,0.0,0.0,0.0,0.0,0.0,0.0,0.0,0.0,0.0,0.0,0.0,0.0,0.0,0.0,0.0,0.0,0.0,0.0,0.0,0.0,0.0,0.0,0.0,0.0,0.0,0.0,0.0,0.0,0.0,0.0,0.0,0.0,0.0,0.0,0.0,0.0,0.0,0.0,0.0,0.0,0.0,0.0,0.0,0.0,0.0,0.0,0.0,0.0,0.0,0.0,0.0,0.0,0.0,0.0,0.0,0.0,0.0,0.0,0.0,0.0,0.0,0.0,0.0,0.0,0.0,0.0,0.0,0.0,0.0,0.0,0.0,0.0,0.0,0.0,0.0,0.0,0.0,0.0,0.0,0.0,0.0,0.0,0.0,0.0,0.0,0.0,0.0,0.0,0.0,0.0,0.0,0.0,0.0,0.0,0.0,0.0,0.0,0.0,0.0,0.0,0.0,0.0,0.0,0.0,0.0,0.0,0.0,0.0,0.0,0.0,0.0,0.0,0.0,0.0,0.0,0.0,0.0,0.0,0.0,0.0,0.0,0.0,0.0,0.0,0.0,0.0,0.0,0.0,0.0,0.0,0.0,0.0,0.0,0.0,0.0,0.0,0.0,0.0,0.0,0.0,0.0,0.0,0.0,0.0,0.0,0.0,0.0,0.0,0.0,0.0,0.0,0.0,0.0,0.0,0.0,0.0,0.0,0.0,0.0,0.0,0.0,0.0,0.0,0.0,0.0,0.0,0.0,0.0,0.0,0.0,0.0,0.0,0.0,0.0,0.0,0.0,0.0,0.0,0.0,0.0,0.0,0.0,0.0,0.0,0.0,0.0,0.0,0.0,0.0,0.0,0.0,0.0,0.0,0.0,0.0,0.0,0.0,0.0,0.0,0.0,0.0,0.0,0.0,0.0,0.0,0.0,0.0,0.0,0.0,0.0,0.0,0.0,0.0,0.0,0.0,0.0,0.0,0.0,0.0,0.0,0.0,0.0,0.0,0.0,0.0,0.0,0.0,0.0,0.0,0.0,0.0,0.0,0.0,0.0,0.0,0.0,0.0,0.0,0.0,0.0,0.0,0.0,0.0,0.0,0.0,0.0,0.0,0.0,0.0,0.0,0.0,0.0,0.0,0.0,0.0,0.0,0.0,0.0,0.0,0.0,0.0,0.0,0.0,0.0,0.0,0.0,0.0,0.0,0.0,0.0,0.0,0.0,0.0,0.0,0.0,0.0,0.0,0.0,0.0,0.0,0.0,0.0,0.0,0.0,0.0,0.0,0.0,0.0,0.0,0.0,0.0,0.0,0.0,0.0,0.0,0.0,0.0,0.0,0.0,0.0,0.0,0.0,0.0,0.0,0.0,0.0,0.0,0.0,0.0,0.0,0.0,0.0,0.0,0.0,0.0,0.0,0.0,0.0,0.0,0.0,0.0,0.0,0.0,0.0,0.0,0.0,0.0,0.0,0.0,0.0,0.0,0.0,0.0,0.0,0.0,0.0,0.0,0.0,0.0,0.0,0.0,0.0,0.0,0.0,0.0,0.0,0.0,0.0,0.0,0.0,0.0,0.0,0.0,0.0,0.0,0.0,0.0,0.0,0.0,0.0,0.0,0.0,0.0,0.0,0.0,0.0,0.0,0.0,0.0,0.0,0.0,0.0,0.0,0.0,0.0,0.0,0.0,0.0,0.0,0.0,0.0,0.0,0.0,0.0,0.0,0.0,0.0,0.0,0.0,0.0,0.0,0.0,0.0,0.0,0.0,0.0,0.0,0.0,0.0,0.0,0.0,0.0,0.0,0.0,0.0,0.0,0.0,0.0,0.0,0.0,0.0,0.0,0.0,0.0,0.0,0.0,0.0,0.0,0.0,0.0,0.0,0.0,0.0,0.0,0.0,0.0,0.0,0.0,0.0,0.0,0.0,0.0,0.0,0.0,0.0,0.0,0.0,0.0,0.0,0.0,0.0,0.0,0.0,0.0,0.0,0.0,0.0,0.0,0.0,0.0,0.0,0.0,0.0,0.0,0.0,0.0,0.0,0.0,0.0,0.0,0.0,0.0,0.0,0.0,0.0,0.0,0.0,0.0,0.0,0.0,0.0,0.0,0.0,0.0,0.0,0.0,0.0,0.0,0.0,0.0,0.0,0.0,0.0,0.0,0.0,0.0,0.0,0.0,0.0,0.0,0.0,0.0,0.0,0.0,0.0,0.0,0.0,0.0,0.0,0.0,0.0,0.0,0.0,0.0,0.0,0.0,0.0,0.0,0.0,0.0,0.0,0.0,0.0,0.0,0.0,0.0,0.0,0.0,0.0,0.0,0.0,0.0,0.0,0.0,0.0,0.0,0.0,0.0,0.0,0.0,0.0,0.0,0.0,0.0,0.0,0.0,0.0,0.0,0.0,0.0,0.0,0.0,0.0,0.0,0.0,0.0,0.0,0.0,0.0,0.0,0.0,0.0,0.0,0.0,0.0,0.0,0.0,0.0,0.0,0.0,0.0,0.0,0.0,0.0,0.0,0.0,0.0,0.0,0.0,0.0,0.0,0.0,0.0,0.0,0.0,0.0,0.0,0.0,0.0,0.0,0.0,0.0,0.0,0.0,0.0,0.0,0.0,0.0,0.0,0.0,0.0,0.0,0.0,0.0,0.0,0.0,0.0,0.0,0.0,0.0,0.0,0.0,0.0,0.0,0.0,0.0,0.0,0.0,0.0,0.0,0.0,0.0,0.0,0.0,0.0,0.0,0.0,0.0,0.0,0.0,0.0,0.0,0.0,0.0,0.0,0.0,0.0,0.0,0.0,0.0,0.0,0.0,0.0,0.0,0.0,0.0,0.0,0.0,0.0,0.0,0.0,0.0,0.0,0.0,0.0,0.0,0.0,0.0,0.0,0.0,0.0,0.0,0.0,0.0,0.0,0.0,0.0,0.0,0.0,0.0,0.0,0.0,0.0,0.0,0.0,0.0,0.0,0.0,0.0,0.0,0.0,0.0,0.0,0.0,0.0,0.0,0.0,0.0,0.0,0.0,0.0,0.0,0.0,0.0,0.0,0.0,0.0,0.0,0.0,0.0,0.0,0.0,0.0,0.0,0.0,0.0,0.0,0.0,0.0,0.0,0.0,0.0,0.0,0.0,0.0,0.0,0.0,0.0,0.0,0.0,0.0,0.0,0.0,0.0,0.0,0.0,0.0,0.0,0.0,0.0,0.0,0.0,0.0,0.0,0.0,0.0,0.0,0.0,0.0,0.0,0.0,0.0,0.0,0.0,0.0,0.0,0.0,0.0,0.0,0.0,0.0,0.0,0.0,0.0,0.0,0.0,0.0,0.0,0.0,0.0,0.0,0.0,0.0,0.0,0.0,0.0,0.0,0.0,0.0,0.0,0.0,0.0,0.0,0.0,0.0,0.0,0.0,0.0,0.0,0.0,0.0,0.0,0.0,0.0,0.0,0.0,0.0,0.0,0.0,0.0,0.0,0.0,0.0,0.0,0.0,0.0,0.0,0.0,0.0,0.0,0.0,0.0,0.0,0.0,0.0,0.0,0.0,0.0,0.0,0.0,0.0,0.0,0.0,0.0,0.0,0.0,0.0,0.0,0.0,0.0,0.0,0.0,0.0,0.0,0.0,0.0,0.0,0.0,0.0,0.0,0.0,0.0,0.0,0.0,0.0,0.0,0.0,0.0,0.0,0.0,0.0,0.0,0.0,0.0,0.0,0.0,0.0,0.0,0.0,0.0,0.0,0.0,0.0,0.0,0.0,0.0,0.0,0.0,0.0,0.0,0.0,0.0,0.0,0.0,0.0,0.0,0.0,0.0,0.0,0.0,0.0,0.0,0.0,0.0,0.0,0.0,0.0,0.0,0.0,0.0,0.0,0.0,0.0,0.0,0.0,0.0,0.0,0.0,0.0,0.0,0.0,0.0,0.0,0.0,0.0,0.0,0.0,0.0,0.0,0.0,0.0,0.0,0.0,0.0,0.0,0.0,0.0,0.0,0.0,0.0,0.0,0.0,0.0,0.0,0.0,0.0,0.0,0.0,0.0,0.0,0.0,0.0,0.0,0.0,0.0,0.0,0.0,0.0,0.0,0.0,0.0,0.0,0.0,0.0,0.0,0.0,0.0,0.0,0.0,0.0,0.0,0.0,0.0,0.0,0.0,0.0,0.0,0.0,0.0,0.0,0.0,0.0,0.0,0.0,0.0,0.0,0.0,0.0,0.0,0.0,0.0,0.0,0.0,0.0,0.0,0.0,0.0,0.0,0.0,0.0,0.0,0.0,0.0,0.0,0.0,0.0,0.0,0.0,0.0,0.0,0.0,0.0,0.0,0.0,0.0,0.0,0.0,0.0,0.0,0.0,0.0,0.0,0.0,0.0,0.0,0.0,0.0,0.0,0.0,0.0,0.0,0.0,0.0,0.0,0.0,0.0,0.0,0.0,0.0,0.0,0.0,0.0,0.0,0.0,0.0,0.0,0.0,0.0,0.0,0.0,0.0,0.0,0.0,0.0,0.0,0.0,0.0,0.0,0.0,0.0,0.0,0.0,0.0,0.0,0.0,0.0,0.0,0.0,0.0,0.0,0.0,0.0,0.0,0.0,0.0,0.0,0.0,0.0,0.0,0.0,0.0,0.0,0.0,0.0,0.0,0.0,0.0,0.0,0.0,0.0,0.0,0.0,0.0,0.0,0.0,0.0,0.0,0.0,0.0,0.0,0.0,0.0,0.0,0.0,0.0,0.0,0.0,0.0,0.0,0.0,0.0,0.0,0.0,0.0,0.0,0.0,0.0,0.0,0.0,0.0,0.0,0.0,0.0,0.0,0.0,0.0,0.0,0.0,0.0,0.0,0.0,0.0,0.0,0.0,0.0,0.0,0.0,0.0,0.0,0.0,-3.042,0.0,0.0,0.0,0.0,0.0,0.0,0.0,0.0,0.0,0.0,0.0,0.0,0.0,0.0,0.0,0.0,0.0,0.0,0.0,0.0,0.0,0.0,0.0,0.0,0.0,0.0,0.0,0.0,0.0,0.0,0.0,0.0,0.0,0.0,0.0,0.0,0.0,0.0,0.0,-1.7728,-1.7839,-1.8468,-1.8416,-1.7804,-1.6758,0.0,0.0,0.0,0.0,0.0,0.0,0.0,0.0,0.0,0.0,0.0,0.0,0.0,0.0,0.0,0.0,0.0,0.0,0.0,0.0,0.0,0.0,0.0,0.0,0.0,0.0,0.0,0.0,0.0,0.0,0.0,0.0,0.0,0.0,0.0,0.0,0.0,0.0,0.0,0.0,0.0,0.0,0.0,0.0,0.0,0.0,0.0,0.0,0.0,0.0,0.0,0.0,0.0,0.0,0.0,0.0,0.0,0.0,0.0,0.0,0.0,0.0,0.0,0.0,0.0,0.0,0.0,0.0,0.0,0.0,0.0,-3.1204,0.0,0.0,0.0,0.0,0.0,0.0,0.0,0.0,0.0,0.0,0.0,0.0,0.0,0.0,0.0,0.0,0.0,0.0,0.0,0.0,0.0,0.0,0.0,0.0,-1.4191,-1.6791,-1.7441,-1.8004,0.0,0.0,0.0,0.0,0.0,0.0,0.0,-1.9351,-2.0527,-2.1601,-2.1061,-2.0823,-2.0837,-2.1076,-2.0291,-1.8609,-1.8042,0.0,0.0,0.0,0.0,0.0,0.0,0.0,0.0,0.0,0.0,0.0,0.0,0.0,0.0,0.0,0.0,0.0,0.0,0.0,0.0,0.0,0.0,0.0,0.0,0.0,0.0,0.0,0.0,0.0,0.0,0.0,0.0,0.0,0.0,0.0,0.0,0.0,0.0,0.0,0.0,0.0,0.0,0.0,0.0,0.0,0.0,0.0,0.0,0.0,0.0,0.0,0.0,0.0,0.0,0.0,0.0,0.0,0.0,0.0,0.0,0.0,0.0,0.0,-3.7679,-3.7039,-3.6098,-3.5566,-3.4705,-3.3634,-3.2564,-3.2259,-3.2437,0.0,0.0,0.0,0.0,0.0,0.0,0.0,0.0,0.0,0.0,0.0,0.0,0.0,0.0,0.0,0.0,0.0,0.0,0.0,0.0,0.0,0.0,-1.6219,-1.8164,-2.1578,-2.2045,-2.1347,0.0,0.0,0.0,0.0,0.0,0.0,-1.9785,-2.1751,-2.1866,-1.9998,-2.5101,-2.6972,-2.5745,-2.4537,-2.3422,-2.2361,-1.9436,-1.8431,-1.8841,0.0,0.0,0.0,0.0,0.0,0.0,0.0,0.0,0.0,0.0,0.0,0.0,0.0,0.0,0.0,0.0,0.0,0.0,0.0,0.0,0.0,0.0,0.0,0.0,0.0,0.0,0.0,0.0,0.0,0.0,0.0,0.0,0.0,0.0,0.0,0.0,0.0,0.0,0.0,0.0,0.0,-2.8767,-2.8879,0.0,0.0,0.0,0.0,0.0,0.0,0.0,0.0,0.0,0.0,0.0,0.0,0.0,-3.9835,-3.9052,-4.053,-4.0463,-3.8833,-3.8612,-3.7948,-3.6919,-3.587,-3.4731,-3.3587,-3.313,0.0,-3.2519,-3.1528,0.0,0.0,0.0,0.0,0.0,0.0,0.0,0.0,0.0,0.0,0.0,0.0,0.0,0.0,0.0,0.0,0.0,0.0,0.0,0.0,0.0,-1.8794,-2.1067,-2.1015,-2.1749,-2.1643,-2.0339,-2.0258,0.0,0.0,0.0,-2.0734,-2.1982,-2.3591,-2.5827,-2.8693,-2.916,-2.9064,-2.8353,-2.6838,-2.5295,-2.3771,-2.2392,-2.1688,-2.1383,-1.9203,0.0,0.0,0.0,0.0,0.0,0.0,0.0,0.0,0.0,0.0,0.0,0.0,0.0,0.0,0.0,0.0,0.0,0.0,0.0,0.0,0.0,0.0,0.0,0.0,0.0,0.0,0.0,0.0,0.0,0.0,0.0,0.0,0.0,0.0,0.0,0.0,0.0,0.0,0.0,-2.8374,-2.945,-2.9464,-2.99,-3.0222,0.0,0.0,0.0,0.0,0.0,0.0,0.0,0.0,0.0,-3.9108,-3.9835,-4.0228,-4.0242,-4.0868,-4.0487,-3.9103,-3.8898,-3.7793,-3.5845,-3.5096,-3.4141,-3.3066,-3.264,-3.2594,-3.2719,-3.2087,-3.1917,-3.1873,0.0,0.0,0.0,0.0,-2.7891,-2.7169,0.0,0.0,0.0,0.0,0.0,0.0,0.0,0.0,0.0,0.0,0.0,0.0,-1.4951,-1.9392,-2.1613,-2.0118,-2.0878,-2.1229,-2.0695,-2.0091,0.0,0.0,-2.0167,-2.0887,-2.2817,-2.4941,-2.8528,-3.3684,-3.0741,-2.9224,-2.9036,-2.775,-2.6278,-2.4746,-2.4359,-2.3759,-2.2996,-2.1072,-1.9357,-1.7733,0.0,0.0,0.0,0.0,0.0,0.0,0.0,0.0,0.0,0.0,0.0,0.0,0.0,0.0,0.0,0.0,0.0,0.0,0.0,0.0,0.0,0.0,0.0,0.0,0.0,0.0,0.0,0.0,0.0,0.0,0.0,0.0,0.0,0.0,0.0,0.0,0.0,-2.8973,-3.0164,-3.0165,-3.0929,-3.1478,0.0,0.0,0.0,0.0,0.0,0.0,-3.751,-3.8369,-3.931,-4.0357,-4.037,-4.0548,-4.0917,-4.0796,-4.0114,-3.8888,-3.8271,-3.6898,-3.4849,-3.4027,-3.3184,-3.2327,-3.1864,-3.2026,-3.2599,-3.2504,-3.2721,-3.2988,-3.1442,-3.0818,-3.0723,-2.9821,-2.8783,-2.8007,0.0,0.0,0.0,0.0,0.0,0.0,0.0,0.0,0.0,0.0,0.0,-1.3365,-1.6027,-1.7102,-1.8548,-2.0833,-2.1009,-2.073,-2.0086,-2.0124,-1.9839,-1.9138,-1.926,-1.9896,-2.1084,-2.5595,-2.8046,-2.8197,-2.8063,-2.7768,-2.7312,-2.6735,-2.6282,-2.5906,-2.3898,-2.2808,-2.2566,-2.2662,-2.2475,-2.1965,-2.0339,0.0,0.0,0.0,0.0,0.0,0.0,0.0,0.0,0.0,0.0,0.0,0.0,0.0,0.0,0.0,0.0,0.0,0.0,0.0,0.0,0.0,0.0,0.0,0.0,0.0,0.0,0.0,0.0,0.0,0.0,0.0,0.0,0.0,0.0,0.0,0.0,0.0,0.0,-3.1973,-3.2734,0.0,0.0,0.0,0.0,-3.4625,-3.6249,-3.7617,-3.8489,-3.9303,-4.0503,-4.2202,-4.2208,-4.1785,-4.0996,-4.0869,-3.9871,-3.8031,-3.6324,-3.524,-3.4733,-3.2804,-3.1747,-3.1458,-3.0975,-3.1189,-3.1893,-3.2323,-3.2704,-3.2962,-3.2685,-3.1755,-3.0676,-3.0893,-2.9935,-2.8635,0.0,0.0,0.0,0.0,0.0,0.0,0.0,0.0,-1.2776,-1.2401,-1.2864,-1.3746,-1.516,-1.6091,-1.7216,-1.8778,-1.9157,-1.9041,-1.8374,-1.8159,-1.8059,-1.8114,-1.8087,-1.9609,-2.2868,-2.5183,-2.6982,-2.8256,-2.693,-2.5694,-2.458,-2.5376,-2.4979,-2.3566,-2.3118,-2.2929,-2.3001,-2.3172,-2.3199,-2.3014,-2.0941,-2.0012,0.0,0.0,0.0,0.0,0.0,0.0,0.0,0.0,0.0,0.0,0.0,0.0,0.0,0.0,0.0,0.0,0.0,0.0,0.0,0.0,0.0,0.0,0.0,0.0,0.0,0.0,0.0,0.0,0.0,0.0,0.0,0.0,0.0,0.0,0.0,0.0,0.0,-3.2022,-3.2877,0.0,-3.3389,-3.4186,-3.5145,-3.6228,-3.6919,-3.7689,-3.8555,-3.8866,-3.9291,-3.9878,-3.9864,-3.9448,-3.8559,-3.8463,-3.7502,-3.567,-3.4899,-3.3838,-3.2587,-3.1657,-3.1052,-3.0738,-3.0389,-3.0549,-3.1029,-3.1138,-3.1897,-3.2928,-3.2064,-3.1618,-3.1416,-3.0777,-2.9713,-2.8619,0.0,0.0,0.0,0.0,0.0,0.0,0.0,0.0,-1.2145,-1.1935,-1.2013,-1.2494,-1.3454,-1.4389,-1.5227,-1.6021,-1.6426,-1.6453,-1.5964,-1.5876,-1.5983,-1.6339,-1.7163,-1.9236,-2.2702,-2.3637,-2.4846,-2.6488,-2.4986,-2.3747,-2.2791,-2.3808,-2.3545,-2.2198,-2.2228,-2.2506,-2.2907,-2.2767,-2.3033,-2.3432,-2.1866,-2.117,-2.0891,0.0,0.0,0.0,0.0,0.0,0.0,0.0,0.0,0.0,0.0,0.0,0.0,0.0,0.0,0.0,0.0,0.0,0.0,0.0,0.0,0.0,0.0,0.0,0.0,0.0,0.0,0.0,0.0,0.0,0.0,0.0,0.0,0.0,0.0,0.0,-3.1451,-3.2033,-3.2861,-3.3473,-3.378,-3.4599,-3.5446,-3.627,-3.6355,-3.6643,-3.7245,-3.7285,-3.7402,-3.7647,-3.7658,-3.725,-3.6377,-3.6294,-3.5485,-3.3955,-3.3531,-3.2493,-3.0929,-3.0351,-2.9905,-2.957,-2.9308,-2.959,-3.0198,-3.0,-3.0703,-3.1875,-3.1466,-3.1398,-3.1441,-3.0481,-2.9339,-2.8275,0.0,0.0,0.0,0.0,0.0,0.0,0.0,-1.1692,-1.0558,-1.1308,-0.9986,-0.9538,-1.1074,-1.1884,-1.2484,-1.291,-1.2999,-1.3031,-1.2899,-1.3378,-1.3721,-1.3846,-1.6421,-1.8642,-2.0207,-2.0882,-2.159,-2.2311,-2.2065,-2.1949,-2.1969,-2.194,-2.1991,-2.2064,-2.129,-2.1391,-2.2125,-2.1536,-2.2144,-2.3478,-2.3368,-2.3007,-2.241,0.0,0.0,0.0,0.0,0.0,0.0,0.0,0.0,0.0,0.0,0.0,0.0,0.0,0.0,0.0,0.0,0.0,0.0,0.0,0.0,0.0,0.0,0.0,0.0,0.0,0.0,0.0,0.0,0.0,0.0,0.0,0.0,0.0,-3.0979,-3.1553,-3.206,-3.2085,-3.2775,-3.3587,-3.4438,-3.5301,-3.5463,-3.4616,-3.4562,-3.458,-3.4666,-3.4666,-3.5058,-3.5897,-3.5915,-3.5496,-3.4632,-3.4545,-3.4017,-3.302,-3.2155,-3.1164,-3.0028,-2.8979,-2.8314,-2.7964,-2.772,-2.8311,-2.9412,-2.9095,-2.9285,-2.9881,-3.0984,-3.1094,-3.0575,-3.0117,-2.8981,-2.7632,0.0,0.0,0.0,0.0,0.0,0.0,0.0,-1.0962,-0.9624,-0.9377,-0.8621,-0.8696,-1.0257,-1.027,-1.0422,-1.1139,-1.0704,-1.0409,-1.0546,-1.0823,-1.1449,-1.2562,-1.4387,-1.5825,-1.6669,-1.701,-1.7573,-1.8296,-1.9799,-2.0069,-1.9112,-1.8471,-1.8776,-1.9804,-1.973,-2.0222,-2.1131,-2.1344,-2.1478,-2.1687,-2.3022,-2.3483,-2.3303,0.0,0.0,0.0,0.0,0.0,0.0,0.0,0.0,0.0,0.0,0.0,0.0,0.0,0.0,0.0,0.0,0.0,0.0,0.0,0.0,0.0,0.0,0.0,0.0,0.0,0.0,0.0,0.0,0.0,0.0,0.0,-3.2629,-3.2714,-3.2558,-3.1663,-3.1261,-3.1942,-3.2214,-3.2454,-3.2694,-3.3492,-3.392,-3.3682,-3.3657,-3.3697,-3.3754,-3.3766,-3.3875,-3.4118,-3.4101,-3.3709,-3.2821,-3.2791,-3.2313,-3.1359,-3.0964,-3.029,-2.936,-2.8818,-2.8104,-2.7307,-2.7677,-2.7885,-2.7987,-2.8344,-2.8776,-2.9253,-2.9504,-2.9495,-2.9247,-2.8761,-2.777,-2.6567,0.0,0.0,0.0,0.0,0.0,0.0,0.0,-0.8493,-0.8264,-0.7402,-0.7094,-0.7368,-0.8511,-0.8253,-0.8125,-0.8438,-0.7984,-0.7725,-0.7796,-0.8279,-0.9253,-1.0864,-1.1853,-1.2767,-1.363,-1.3429,-1.3795,-1.4742,-1.5676,-1.5917,-1.5449,-1.5235,-1.5827,-1.7027,-1.7497,-1.789,-1.8294,-1.9286,-1.9258,-1.8721,-2.0636,-2.1966,-2.2825,-2.2854,-2.3087,-2.3364,-2.3002,-2.2758,-2.2546,-2.1744,0.0,0.0,0.0,0.0,0.0,0.0,0.0,0.0,0.0,0.0,0.0,0.0,0.0,0.0,0.0,0.0,0.0,0.0,0.0,0.0,0.0,0.0,0.0,0.0,-3.2964,-3.2883,-3.2609,-3.1756,-3.1338,-3.1895,-3.1953,-3.2105,-3.2477,-3.2951,-3.3128,-3.2778,-3.2433,-3.2104,-3.1789,-3.1789,-3.1801,-3.1809,-3.2166,-3.2109,-3.16,-3.1563,-3.1278,-3.0681,-3.0207,-2.9661,-2.9037,-2.807,-2.7415,0.0,-2.7241,-2.7368,-2.7447,-2.8004,-2.8319,0.0,0.0,0.0,0.0,0.0,-2.5986,-2.5226,0.0,0.0,0.0,0.0,0.0,0.0,0.0,-0.5294,-0.6687,-0.5528,-0.5489,-0.5782,-0.6314,-0.6085,-0.5725,-0.5433,-0.5264,-0.5182,-0.5109,-0.5994,-0.7218,-0.8772,-0.9024,-0.9628,-1.0672,-1.0052,-1.0223,-1.1291,-1.0504,-1.0489,-1.1163,-1.1668,-1.2348,-1.3169,-1.4042,-1.4093,-1.3667,-1.5159,-1.5148,-1.4281,-1.6086,-1.8657,-2.1485,-2.2049,-2.2711,-2.3354,-2.342,-2.4322,-2.5198,-2.3615,0.0,0.0,0.0,0.0,0.0,0.0,0.0,0.0,0.0,0.0,0.0,0.0,0.0,0.0,0.0,0.0,0.0,0.0,0.0,0.0,0.0,0.0,0.0,0.0,-3.2785,-3.2478,-3.1648,-3.1562,-3.1574,-3.1584,-3.1593,-3.1872,-3.2555,-3.2621,-3.2334,-3.1611,-3.0895,-3.0165,-2.9396,0.0,0.0,0.0,0.0,-3.0604,-3.0605,-3.0542,-3.0484,-3.0399,-2.9621,-2.9074,-2.8675,-2.7033,-2.645,-2.6728,-2.6558,-2.6728,-2.72,-2.7682,-2.7713,-2.7526,-2.7912,-2.7743,-2.6985,-2.4944,-2.4069,0.0,0.0,0.0,0.0,0.0,0.0,0.0,0.0,-0.4063,-0.5309,-0.4221,-0.4081,-0.4315,-0.4853,-0.429,-0.3952,-0.4125,-0.3638,-0.3524,-0.3993,-0.4929,-0.5636,-0.5883,-0.6525,-0.6869,-0.6863,-0.6718,-0.6737,-0.6919,-0.6214,-0.6081,-0.6487,-0.5584,-0.525,-0.5413,-0.6541,-0.6622,-0.5979,-0.6897,-0.6929,-0.6472,-0.7659,-1.2944,-2.0188,-2.042,-2.1465,-2.287,-2.3303,-2.5247,-2.7626,-2.766,-2.8292,-2.9092,-2.943,-2.7022,0.0,0.0,0.0,0.0,0.0,0.0,0.0,0.0,0.0,0.0,0.0,0.0,0.0,0.0,0.0,0.0,0.0,0.0,0.0,-3.2737,-3.2638,-3.2138,-3.0685,-2.9953,-2.9602,-2.9706,-2.9777,-2.9608,-2.9121,-2.9094,-2.9038,-2.8929,-2.8741,-2.8573,-2.8471,-2.8466,-2.8509,-2.8544,-2.8717,-2.8803,-2.8806,-2.8747,-2.8691,-2.8684,0.0,0.0,-2.7123,-2.6496,-2.5858,-2.5258,-2.5615,-2.5755,-2.5746,-2.6213,-2.6056,-2.5594,-2.5919,-2.5397,-2.4308,-2.3594,-2.3226,-2.3012,0.0,0.0,0.0,0.0,0.0,0.0,0.0,-0.1471,-0.3759,-0.2541,-0.2562,-0.2752,-0.2953,-0.2333,-0.1952,-0.2073,-0.1697,-0.1718,-0.237,-0.2678,-0.2968,-0.329,-0.3363,-0.3281,-0.3083,-0.2818,-0.2677,-0.2605,-0.2212,-0.2344,-0.2986,-0.213,-0.1164,-0.0193,-0.2274,-0.2324,-0.0899,-0.1775,-0.1467,-0.0458,-0.1102,-0.4623,-1.0003,-1.4063,-1.7182,-1.954,-2.1,-2.342,-2.6138,-2.7543,-2.876,-2.9791,-3.0294,-2.8762,-2.6817,0.0,0.0,0.0,0.0,0.0,0.0,0.0,0.0,0.0,0.0,0.0,0.0,0.0,0.0,-3.1581,-3.1674,0.0,-3.2694,-3.1879,-3.1832,-3.1312,-2.9642,-2.9117,-2.8817,-2.8574,-2.8579,-2.8443,-2.8097,-2.8074,-2.8117,-2.8152,-2.7751,-2.7517,-2.7546,-2.7541,-2.7585,-2.7657,-2.8064,-2.8307,-2.8294,-2.8262,-2.8232,-2.8181,-2.7692,-2.7372,-2.7229,-2.6167,-2.5576,-2.5371,-2.5538,-2.5483,-2.5272,-2.565,-2.5218,-2.4293,-2.4306,-2.3864,-2.3178,-2.2708,-2.248,-2.2307,0.0,0.0,0.0,0.0,0.0,0.0,0.0,0.1265,-0.199,-0.0784,-0.0858,-0.0979,-0.0824,-0.0358,-0.0034,0.0067,0.0185,0.0085,-0.0402,-0.0146,-0.0244,-0.0727,-0.029,0.0046,0.0278,0.0715,0.1046,0.1289,0.1361,0.0944,0.0112,0.08,0.2111,0.3775,0.1829,0.217,0.4149,0.3551,0.4268,0.5803,0.5537,0.4485,0.2366,-0.4241,-0.9533,-1.3784,-1.6181,-1.8905,-2.1759,-2.3869,-2.6068,-2.7889,-2.8152,-2.8507,-2.8916,-2.9171,-2.7184,0.0,0.0,0.0,0.0,0.0,0.0,0.0,0.0,-3.0227,-3.1014,-3.1094,-3.1483,-3.1824,-3.1738,-3.1802,-3.1523,-3.0527,-3.0508,-3.0012,-2.8284,-2.8134,-2.7975,-2.7366,-2.7495,-2.7586,-2.7507,-2.7542,-2.7574,-2.7586,-2.6987,-2.6635,-2.6636,-2.663,-2.6669,-2.6734,-2.7413,-2.7793,-2.7783,-2.7792,-2.7769,-2.7719,-2.7,-2.6903,-2.7297,-2.5857,-2.5368,-2.5694,-2.5427,-2.5168,-2.4914,-2.5111,-2.4506,-2.3408,-2.3059,-2.2825,-2.2613,-2.1987,-2.17,-2.1584,0.0,0.0,0.0,0.0,0.0,0.0,0.0,0.0,0.0346,0.1012,0.1083,0.1214,0.1564,0.1509,0.1526,0.1709,0.1717,0.1781,0.1981,0.1822,0.1783,0.196,0.1959,0.2222,0.2791,0.2739,0.3144,0.4056,0.3963,0.3695,0.3317,0.5116,0.626,0.6999,0.8689,1.0278,1.175,1.2515,1.3492,1.447,1.4139,1.3005,1.1377,1.0012,0.3672,-0.4761,-0.6987,-1.0143,-1.3509,-1.5342,-1.8518,-2.1759,-2.2056,-2.434,-2.701,-2.7505,-2.6357,-2.4924,-2.5019,-2.5642,-2.6818,-2.915,-2.9272,-2.9579,0.0,-3.1953,-3.1279,-3.2262,-3.1838,-3.1182,-3.082,-3.0671,-3.0148,-2.8726,-2.8463,-2.7885,-2.6243,-2.6088,-2.5888,-2.5225,-2.6051,-2.639,-2.5753,-2.5702,-2.5735,-2.5793,-2.5705,-2.5667,-2.5667,-2.5703,-2.5745,-2.5769,-2.5905,-2.6,-2.5982,-2.5995,-2.5992,-2.5978,-2.5823,-2.5754,-2.5751,-2.537,-2.5118,-2.4993,-2.4555,-2.4167,-2.3858,-2.3713,-2.3337,-2.2842,-2.2439,-2.2144,-2.1853,-2.1118,-2.0736,-2.055,0.0,0.0,0.0,0.0,0.0,0.0,0.0,0.0,0.0,0.0,0.1786,0.2195,0.2705,0.2918,0.3159,0.3469,0.3503,0.3622,0.3946,0.3886,0.391,0.3988,0.433,0.4591,0.4703,0.5124,0.5697,0.6471,0.682,0.7126,0.7468,0.7851,0.9335,1.1696,1.2466,1.3648,1.5092,1.6645,1.7544,1.7962,1.8337,1.8464,1.8332,1.7575,1.448,0.968,0.2789,-0.5828,0.0,-0.852,-0.6528,-0.6228,-0.7266,-1.3278,-1.9777,-1.8832,-2.3179,-2.7597,-2.4506,-2.4879,-2.6484,-2.7794,-2.8634,-2.9453,-3.0721,-3.0695,-3.0395,-3.0466,-3.0315,-2.9844,-2.8755,-2.8612,-2.8127,-2.6536,-2.6786,-2.6589,-2.4949,-2.5208,-2.5317,-2.465,-2.5073,-2.5355,-2.5248,-2.5303,-2.534,-2.5378,-2.5418,-2.5464,-2.5499,-2.5523,-2.5556,-2.5604,-2.5632,-2.5654,-2.5707,-2.5702,-2.5701,-2.5707,-2.5632,-2.556,-2.5495,-2.5293,-2.5024,-2.4704,-2.432,-2.3961,-2.3671,-2.3435,-2.3102,-2.2712,-2.2347,-2.1953,-2.1509,-2.1007,-2.0728,-2.061,0.0,0.0,0.0,0.0,0.0,0.0,0.0,0.0,0.0,0.0,0.2848,0.3309,0.4036,0.4458,0.4823,0.5137,0.5262,0.551,0.5805,0.5971,0.6071,0.6166,0.6601,0.6854,0.6759,0.7517,0.8189,0.8806,0.9315,1.0108,1.1168,1.0655,1.2109,1.5159,1.527,1.6105,1.7616,1.9459,2.0468,2.0919,2.1833,2.2737,2.3464,2.3027,2.2146,2.0184,1.2517,0.2302,-0.665,-0.0325,0.3649,0.5388,0.2205,-0.4341,-1.0744,-1.022,-1.785,-2.5419,-2.0956,-2.1973,-2.4395,-2.4941,-2.6183,-2.741,-2.7947,-2.8186,-2.8271,-2.8054,-2.8035,-2.7695,-2.6454,-2.634,-2.5901,-2.4311,-2.4685,-2.4668,-2.327,-2.3824,-2.4257,-2.3934,-2.4188,-2.4519,-2.4907,-2.5122,-2.5262,-2.5293,-2.5369,-2.5437,-2.5492,-2.5506,-2.5537,-2.561,-2.5593,-2.5619,-2.5705,-2.5702,-2.5701,-2.5705,-2.5629,-2.5554,-2.5461,-2.5215,-2.4891,-2.4547,-2.4248,-2.3939,-2.3667,-2.3412,-2.3052,-2.2642,-2.232,-2.1866,-2.1293,-2.1007,-2.0778,-2.0677,0.0,0.0,0.0,0.0,0.0,0.0,0.0,0.0,0.0,0.0,0.0,0.0,0.0,0.6349,0.6464,0.6639,0.7011,0.7351,0.7672,0.7985,0.8303,0.8788,0.8781,0.8942,0.9197,0.9811,1.0424,1.1115,1.1266,1.2196,1.3899,1.3914,1.4779,1.6386,1.7354,1.8601,2.0077,2.1657,2.3124,2.4549,2.5609,2.6127,2.637,2.7185,2.5797,2.322,2.1955,1.7405,1.1807,1.0327,0.9715,0.827,0.1004,-0.0637,-0.0528,-0.3767,-0.9897,-1.4987,-1.2307,-1.54,-1.9603,-2.0473,-2.1363,-2.2553,-2.4632,-2.4729,-2.464,-2.5503,-2.5197,-2.4584,-2.4074,-2.3989,-2.3537,-2.21,-2.1808,-2.1522,-2.0894,-2.1394,-2.2033,-2.2603,-2.3358,-2.4007,0.0,-2.4879,-2.516,-2.5282,-2.537,-2.5425,-2.5511,-2.5498,-2.5531,-2.5601,-2.5609,-2.5623,-2.5698,-2.5702,-2.5698,-2.5698,-2.5636,-2.5537,-2.5393,-2.4981,-2.47,-2.4495,-2.421,-2.3953,-2.3678,-2.3407,-2.301,-2.2571,-2.232,-2.179,-2.1166,-2.0909,-2.0644,-2.0423,0.0,0.0,0.0,0.0,0.0,0.0,0.0,0.0,0.0,0.0,0.0,0.0,0.0,0.0,0.0,0.0,0.8946,0.9353,1.0091,1.0354,1.0709,1.1179,1.1613,1.1831,1.1843,1.2579,1.3316,1.3989,1.4034,1.4906,1.6612,1.7158,1.8187,1.9611,2.1547,2.2363,2.2402,2.4028,2.4967,2.5541,2.801,2.8983,2.9043,2.951,2.941,2.8689,0.0,2.355,2.086,1.9132,1.7941,1.6635,1.3464,1.094,0.8214,0.3397,-0.2602,-0.7882,-0.8422,-1.1412,-1.4573,-1.537,-1.7014,-1.8833,-2.0548,-2.1166,-2.1491,-2.1807,-2.225,-2.2411,-2.1758,-2.1842,-2.1678,-2.0761,-2.0787,-2.0853,-2.0653,-2.1122,-2.1767,-2.2517,-2.2959,-2.3388,-2.3848,0.0,0.0,-2.4847,-2.4949,-2.5072,-2.5243,-2.5216,-2.532,-2.5471,-2.5512,-2.5565,-2.5629,-2.5625,-2.5662,-2.57,-2.5586,-2.5447,-2.5254,-2.4986,-2.4708,-2.4425,-2.4097,-2.3852,-2.3611,-2.3247,-2.2816,-2.2385,-2.2192,-2.1702,-2.1039,-2.0926,-2.0579,-2.0185,0.0,0.0,0.0,0.0,0.0,0.0,0.0,0.0,0.0,0.0,0.0,0.0,0.0,0.0,0.0,0.0,0.0,1.1012,1.1668,1.2308,1.2926,1.3638,1.417,1.4603,1.4795,1.5616,1.6314,1.6779,1.7036,1.7945,1.9474,2.0109,2.1114,2.249,2.4332,2.5026,2.4849,2.6516,2.7108,2.7176,2.9646,3.076,3.0911,3.0708,3.0899,0.0,2.8645,2.6894,2.5436,2.3804,2.2752,2.1909,2.0714,1.6855,1.2007,0.8255,0.3212,-0.1534,-0.336,-0.5178,-0.6969,-0.9061,-1.1271,-1.358,-1.5608,-1.6712,-1.7545,-1.8509,-1.9255,-1.9707,-1.9506,-1.976,-1.9847,-1.9404,-1.9546,-1.9665,-1.9484,-2.0033,-2.0761,-2.1576,-2.2017,-2.2479,-2.3088,-2.3658,0.0,-2.4368,-2.4529,-2.4695,-2.4892,-2.4943,-2.5091,-2.5283,-2.5382,-2.5466,-2.5566,-2.5593,-2.5616,-2.5659,-2.5554,-2.5408,-2.5226,-2.5022,-2.478,-2.4491,-2.4117,-2.3855,-2.3642,-2.3247,-2.2807,-2.2402,-2.2181,-2.1642,-2.1007,-2.0893,-2.0545,-2.01,0.0,0.0,0.0,0.0,0.0,0.0,0.0,0.0,0.0,0.0,0.0,0.0,0.0,0.0,0.0,0.0,0.0,0.0,1.267,1.3803,1.4921,1.6031,1.6514,1.7172,1.8049,1.8787,1.9253,1.9477,2.0125,2.1068,2.2352,2.2671,2.3539,2.4855,2.5717,2.6556,2.7421,2.8959,2.9478,2.9357,3.0621,3.1508,3.195,3.0924,3.049,3.0279,2.9397,2.7981,2.6289,2.4759,2.4117,2.3719,2.2225,1.707,1.1462,1.0756,0.7597,0.4054,0.2759,0.2804,0.2251,-0.1985,-0.4545,-0.6827,-0.9917,-1.1465,-1.2927,-1.5435,-1.6143,-1.6541,-1.7276,-1.7791,-1.8064,-1.8043,-1.8013,-1.785,-1.7467,-1.8164,-1.9006,-1.9876,-2.0578,-2.1315,-2.2146,-2.2453,0.0,-2.3819,0.0,-2.4312,-2.4454,-2.4647,-2.4858,-2.5069,-2.5207,-2.534,-2.5492,-2.5565,-2.5597,-2.5595,-2.5527,-2.542,-2.5293,-2.5084,-2.4869,-2.4666,-2.4265,-2.3979,-2.3753,-2.3365,-2.2952,-2.2527,-2.2209,-2.1642,-2.0975,-2.0844,-2.0478,-2.0065,0.0,0.0,0.0,0.0,0.0,0.0,0.0,0.0,0.0,0.0,0.0,0.0,0.0,0.0,0.0,0.0,0.0,0.0,1.5487,1.6051,1.6979,1.8423,1.9029,1.9709,2.0439,2.1186,2.168,2.1891,2.2196,2.2915,2.4139,2.4328,2.5203,2.6592,2.7201,2.7955,2.8817,2.9589,2.9825,2.9826,3.111,3.1504,3.1348,3.1264,3.1341,3.1258,2.9506,2.8569,2.7972,2.6512,2.445,2.2274,2.1227,1.7812,1.3991,1.3034,1.0717,0.8113,0.6555,0.5116,0.3227,-0.0127,-0.072,-0.1463,-0.5058,-0.7622,-0.9702,-1.1273,-1.2823,-1.4148,-1.4903,-1.5702,-1.6421,-1.6974,-1.6866,-1.689,-1.7529,-1.7491,-1.7903,-1.9368,-1.9729,-2.0225,-2.1157,-2.133,-2.1569,0.0,-2.2964,-2.3584,-2.3814,-2.4063,-2.4362,-2.471,-2.4949,-2.5165,-2.5354,-2.5517,-2.5607,-2.5603,-2.5538,-2.5396,-2.5226,-2.5018,-2.4756,-2.4458,-2.4059,-2.3753,-2.3531,-2.3102,-2.2651,-2.2209,-2.1969,-2.1462,-2.0811,-2.0646,-2.0289,-1.9869,0.0,0.0,0.0,0.0,0.0,0.0,0.0,0.0,0.0,0.0,0.0,0.0,0.0,0.0,0.0,0.0,0.0,0.0,0.0,1.756,1.8499,2.0084,2.0623,2.1411,2.2502,2.2721,2.3161,2.3824,2.3861,2.4526,2.5704,2.5875,2.6499,2.7592,2.794,2.8586,2.9506,2.9807,2.9917,0.0,0.0,3.0984,3.0884,3.0801,3.0841,3.0822,2.9596,2.8876,2.8239,2.6616,2.4298,2.194,2.0691,1.8434,1.6106,1.5266,1.3394,1.1263,0.9453,0.7659,0.58,0.3448,0.2596,0.1671,-0.0984,-0.3632,-0.5996,-0.7412,-0.9392,-1.1216,-1.2319,-1.3562,-1.4686,-1.5615,-1.6012,-1.6455,-1.7067,-1.6889,-1.7222,-1.8622,-1.8649,-1.9004,-2.0122,-2.0302,-2.0485,0.0,-2.1978,-2.2788,-2.3136,-2.3502,-2.3892,-2.4368,-2.4708,-2.5018,-2.5348,-2.5128,-2.5022,-2.5019,-2.4634,-2.4321,-2.4072,-2.4309,-2.4228,-2.3936,0.0,-2.3837,-2.3535,-2.3109,-2.2607,-2.2124,-2.1899,-2.1417,-2.0811,-2.0478,-2.01,-1.9797,0.0,0.0,0.0,0.0,0.0,0.0,0.0,0.0,0.0,0.0,0.0,0.0,0.0,0.0,0.0,0.0,0.0,0.0,0.0,0.0,1.983,2.1303,2.1684,2.2523,2.391,2.3598,2.3926,2.4928,2.4894,2.5474,2.6586,2.6823,2.7257,2.7857,2.807,2.8686,2.9587,2.9745,2.9814,2.979,2.9973,3.0162,3.0323,0.0,2.975,2.9715,2.9495,2.886,2.7833,2.5809,2.4001,2.228,2.0516,1.8963,1.7666,1.7026,1.5351,1.3364,1.1541,1.0115,0.8745,0.7201,0.5224,0.3333,0.2063,-0.0182,-0.2464,-0.4192,-0.636,-0.8317,-0.9831,-1.1467,-1.2972,-1.4165,-1.5253,-1.6041,-1.6378,-1.6356,-1.671,-1.7719,-1.7587,-1.7862,-1.9074,-1.9339,-1.963,-2.0035,-2.1022,-2.1869,-2.2405,-2.2919,-2.3494,-2.4098,-2.4522,-2.4937,-2.5357,-2.4769,-2.4419,-2.4297,-2.3586,-2.304,-2.2661,-2.3332,-2.3479,-2.3203,0.0,0.0,-2.3593,-2.3323,-2.2883,-2.2341,-2.2079,-2.1612,-2.1039,-2.0616,-2.0227,-1.9945,0.0,0.0,0.0,0.0,0.0,0.0,0.0,0.0,0.0,0.0,1.7827,1.7253,0.0,0.0,0.0,0.0,0.0,0.0,0.0,0.0,0.0,2.2561,2.2777,2.2989,2.3197,2.3514,2.3661,2.3646,2.4044,2.454,2.5104,2.5747,2.6397,2.7107,2.7598,2.8207,2.8991,2.935,2.934,2.9189,2.9521,2.9471,2.9136,2.9451,0.0,0.0,2.873,2.8431,2.7932,2.5698,2.4128,2.2737,2.0894,1.9173,1.7688,1.7012,1.5282,1.3394,1.2382,1.106,0.9498,0.7955,0.6079,0.4305,0.282,0.0747,-0.1343,-0.3034,-0.49,-0.6699,-0.8226,-0.9933,-1.1521,-1.2834,-1.3885,-1.4889,-1.5866,-1.5729,-1.5921,-1.6978,-1.6909,-1.7085,-1.8011,-1.8433,-1.8869,0.0,-1.9864,-2.0585,-2.1565,-2.2279,-2.3094,-2.4155,-2.4674,-2.5037,-2.5235,-2.5337,-2.5002,-2.4294,-2.4163,-2.3665,-2.2856,-2.2881,-2.277,-2.259,-2.3248,0.0,-2.3161,-2.3637,-2.3587,-2.3165,-2.2968,-2.2565,-2.2102,-2.1852,-2.1409,-2.0959,0.0,0.0,0.0,0.0,0.0,0.0,0.0,1.7595,1.8395,1.9191,1.9765,1.9824,1.9138,2.0107,0.0,0.0,0.0,0.0,0.0,0.0,0.0,0.0,2.3128,2.319,2.3433,2.3124,2.3082,2.3371,0.0,2.3666,2.4412,2.4805,2.5319,2.5982,2.6277,2.6771,2.742,2.7861,2.8092,2.8202,2.8607,2.8424,2.8027,0.0,0.0,0.0,2.9259,2.8613,2.7689,2.682,2.4916,2.2623,2.0786,1.927,1.8009,1.709,1.5692,1.42,1.3271,1.1667,1.0078,0.9153,0.7488,0.5708,0.4134,0.1554,-0.0964,-0.2311,-0.403,-0.5769,-0.7326,-0.9225,-1.0905,-1.2189,-1.3525,-1.468,-1.5522,-1.5581,-1.5679,-1.6221,-1.6237,-1.6488,-1.7094,-1.7571,-1.8068,-1.863,-1.8997,-1.9651,-2.0781,-2.1807,-2.2785,-2.3608,-2.4117,-2.4546,-2.4885,-2.4629,-2.4191,-2.3567,-2.3144,-2.2422,-2.1457,-2.1856,-2.1886,-2.1733,-2.2918,0.0,-2.3061,-2.3731,-2.3699,-2.3239,-2.3059,-2.2667,-2.2156,-2.1843,-2.1434,-2.099,0.0,0.0,0.0,0.0,0.0,0.0,0.0,1.7937,1.8812,1.9579,2.099,2.172,2.1163,2.1718,2.234,0.0,0.0,0.0,0.0,0.0,0.0,0.0,0.0,0.0,2.3376,0.0,0.0,2.3202,2.281,0.0,0.0,0.0,0.0,0.0,2.5155,2.5475,2.5907,2.6505,2.6903,0.0,0.0,2.7644,0.0,0.0,0.0,0.0,0.0,2.8594,2.7553,2.7476,2.5358,2.248,2.0901,1.9586,1.8398,1.7124,1.5997,1.485,1.3621,1.1939,1.0389,1.0016,0.8358,0.6401,0.477,0.192,-0.0664,-0.1921,-0.3462,-0.5077,-0.6654,-0.8488,-1.0221,-1.1653,-1.3324,-1.4707,-1.5463,-1.5682,-1.5785,-1.5886,-1.5858,-1.5969,-1.6417,-1.6718,-1.7214,-1.7895,-1.824,0.0,-2.0162,-2.1327,-2.2241,-2.2783,-2.3315,-2.3823,-2.4292,-2.3708,-2.3178,-2.2727,-2.1991,-2.113,-2.0214,-2.0898,-2.1089,-2.0928,-2.2448,0.0,0.0,-2.3663,-2.373,-2.3343,-2.3267,-2.288,-2.2357,-2.2,-2.1574,-2.1175,0.0,0.0,0.0,0.0,0.0,0.0,0.0,1.8464,1.9395,2.0447,2.1083,2.1681,2.2279,2.3052,2.3455,0.0,0.0,0.0,0.0,0.0,0.0,0.0,0.0,0.0,0.0,0.0,0.0,2.2591,2.2686,0.0,0.0,0.0,0.0,0.0,0.0,2.5269,2.5176,2.6201,0.0,0.0,0.0,0.0,0.0,0.0,0.0,0.0,0.0,2.7708,2.7827,2.6329,2.4511,2.2671,2.163,2.0273,1.8747,1.6925,1.5736,1.4709,1.2812,1.1534,1.053,0.9526,0.7475,0.5265,0.3477,0.1545,-0.0323,-0.1994,-0.3158,-0.435,-0.5928,-0.7223,-0.8776,-1.0913,-1.2765,-1.4512,-1.6012,-1.6039,-1.6069,-1.6539,-1.5928,-1.5561,-1.5928,-1.5984,-1.6305,-1.7076,-1.7571,0.0,-1.9958,-2.0621,-2.1201,-2.181,-2.2506,-2.303,-2.3347,-2.3145,-2.2749,-2.2167,-2.1736,-2.1142,-2.0465,-2.0549,-2.0502,-2.0418,-2.1362,0.0,0.0,-2.3442,-2.3967,-2.4192,-2.4229,-2.4019,-2.3631,-2.3518,-2.3045,-2.2415,0.0,0.0,0.0,0.0,0.0,0.0,1.7136,1.8394,1.9629,2.0526,2.1646,2.2471,2.2748,2.3429,2.3853,0.0,0.0,0.0,0.0,0.0,0.0,0.0,0.0,0.0,0.0,0.0,2.3019,2.3209,2.2881,0.0,0.0,0.0,0.0,0.0,0.0,2.4774,2.4906,2.5146,0.0,0.0,0.0,0.0,0.0,0.0,0.0,0.0,0.0,0.0,2.7211,2.65,2.4771,2.278,2.2204,2.054,1.8461,1.6804,1.5587,1.442,1.293,1.1572,1.0398,0.9459,0.7531,0.5373,0.3481,0.1215,-0.09,-0.2565,-0.3492,-0.4384,-0.5705,-0.7409,-0.9233,-1.0895,-1.2561,-1.4007,-1.5062,-1.5597,-1.5807,-1.5619,-1.5608,-1.5541,-1.5447,-1.5593,-1.6056,-1.6809,0.0,0.0,-1.826,-1.9243,-1.9924,-2.025,-2.0919,-2.1586,-2.2167,-2.1993,-2.1806,-2.1558,-2.143,-2.0929,-2.0146,-2.039,-2.0462,-2.0474,-2.1305,0.0,0.0,-2.358,-2.4236,-2.4718,-2.467,-2.4458,-2.421,-2.41,-2.3833,-2.3473,0.0,0.0,0.0,0.0,0.0,1.5924,1.6975,1.8123,1.9355,2.0702,2.1929,2.2778,2.3071,2.3623,2.4063,2.4216,0.0,0.0,0.0,0.0,0.0,0.0,0.0,0.0,0.0,0.0,2.333,2.3833,2.3345,2.3437,0.0,0.0,2.3983,2.4175,0.0,0.0,0.0,0.0,0.0,0.0,0.0,0.0,0.0,0.0,0.0,0.0,0.0,0.0,0.0,0.0,0.0,2.2583,2.21,2.0249,1.8005,1.6728,1.5447,1.415,1.2922,1.1567,1.0242,0.935,0.7439,0.5344,0.3518,0.1199,-0.1016,-0.2726,-0.3695,-0.4577,-0.589,-0.7613,-0.9321,-1.1014,-1.2454,-1.3632,-1.4463,-1.5332,-1.5721,-1.5495,-1.5685,-1.5742,-1.5347,-1.537,-1.5614,-1.608,0.0,0.0,-1.6355,-1.7383,-1.8254,-1.8772,-1.9313,-1.9919,-2.0573,-2.0722,-2.0709,-2.0529,-2.0776,-2.0527,-1.9856,-2.0156,-2.0283,-2.0329,0.0,0.0,0.0,-2.3026,-2.3797,-2.4533,-2.4553,-2.4303,-2.3696,-2.1951,-2.1913,-2.243,0.0,0.0,0.0,0.0,0.0,0.0,0.0,1.764,1.8579,2.1226,2.1758,2.2278,2.3188,2.3883,2.4104,2.364,0.0,0.0,0.0,0.0,0.0,0.0,0.0,0.0,0.0,0.0,2.3792,2.4187,2.4041,2.3982,2.3997,2.4385,2.4231,2.3616,0.0,0.0,0.0,0.0,0.0,0.0,0.0,0.0,0.0,0.0,0.0,0.0,0.0,0.0,0.0,0.0,0.0,0.0,0.0,1.9447,1.7566,1.6719,1.5434,1.4035,1.2697,1.1415,1.0242,0.9114,0.6955,0.4753,0.3484,0.1717,-0.0307,-0.2461,-0.365,-0.4781,-0.649,-0.7358,-0.8663,-1.1186,-1.2572,-1.3616,-1.4602,-1.5253,-1.5982,-1.6655,-1.6505,-1.6132,-1.5859,-1.53,-1.4821,-1.4474,0.0,0.0,-1.4373,-1.5017,-1.6089,-1.7572,-1.7836,-1.8068,-1.8442,-1.9353,-1.9495,-1.8926,-1.96,-1.9843,-1.9703,-1.9776,-1.9799,0.0,0.0,0.0,0.0,-2.1477,-2.2389,-2.3464,-2.3847,-2.3408,-2.1854,-1.6347,-1.6483,-1.8597,0.0,0.0,0.0,0.0,0.0,0.0,0.0,1.6703,1.7671,1.9887,2.0854,2.1669,2.2454,2.2734,2.2644,2.2123,0.0,0.0,0.0,0.0,0.0,0.0,0.0,0.0,0.0,0.0,2.3875,2.4141,2.3836,2.4292,2.5363,2.4606,2.455,2.5055,2.3844,2.3211,0.0,0.0,0.0,0.0,0.0,0.0,0.0,0.0,0.0,0.0,0.0,0.0,0.0,0.0,0.0,0.0,0.0,0.0,0.0,1.5595,1.4936,1.4055,1.2687,1.1337,1.0082,0.8862,0.6698,0.458,0.3484,0.1306,-0.0738,-0.1597,-0.3343,-0.5118,-0.6714,-0.7918,-0.9233,-1.0979,-1.2068,-1.3126,-1.4171,-1.4976,-1.5485,-1.5609,-1.5429,-1.5339,0.0,0.0,-1.4721,0.0,0.0,0.0,-1.4424,-1.4153,-1.447,-1.544,-1.6028,-1.646,-1.6677,-1.7013,-1.7282,-1.7401,-1.7649,-1.777,-1.7797,-1.8231,0.0,0.0,0.0,0.0,0.0,-1.6972,-1.5856,-1.4008,-1.5099,-1.3765,-1.1393,-1.2739,-1.2623,-1.1789,0.0,0.0,0.0,0.0,0.0,0.0,0.0,1.5776,1.6608,1.8346,1.9451,2.0283,2.0926,2.1329,2.1338,2.0921,0.0,0.0,0.0,0.0,0.0,0.0,0.0,0.0,0.0,2.2885,2.332,2.3706,2.3376,2.3792,2.4867,2.426,2.4212,2.4627,2.3499,2.2865,0.0,0.0,0.0,0.0,0.0,0.0,2.5717,0.0,0.0,0.0,0.0,0.0,0.0,0.0,0.0,0.0,0.0,0.0,0.0,0.0,1.4231,1.3528,1.2274,1.1233,1.018,0.884,0.6719,0.4686,0.3627,0.1492,-0.0613,-0.1693,-0.3505,-0.5214,-0.6473,-0.7705,-0.8914,-1.0244,-1.1424,-1.2539,-1.3528,-1.4632,-1.5413,-1.5586,-1.5213,0.0,0.0,-1.462,-1.4194,0.0,0.0,0.0,-1.3253,-1.293,-1.288,-1.3273,-1.4204,-1.4767,-1.4856,-1.5421,-1.5602,-1.5413,-1.6051,-1.6289,-1.6133,-1.6718,0.0,0.0,0.0,0.0,0.0,-1.4381,-1.2838,-1.0603,-1.1717,-0.9558,-0.5926,-0.6774,-0.6627,-0.5931,0.0,0.0,0.0,0.0,0.0,0.0,0.0,0.0,1.5357,1.6741,1.7656,1.8328,1.879,1.9648,2.0126,1.9823,0.0,0.0,0.0,0.0,0.0,0.0,0.0,0.0,2.2324,2.2035,2.2247,2.286,2.2512,2.2548,2.2965,2.3404,2.3333,2.2821,2.3111,2.257,2.1481,2.2571,2.2984,2.3111,2.4512,2.5029,0.0,0.0,0.0,0.0,0.0,0.0,0.0,0.0,0.0,0.0,0.0,0.0,0.0,0.0,0.0,0.0,0.0,1.0877,1.0289,0.8749,0.6736,0.4869,0.3828,0.1913,0.0,-0.2488,-0.3937,-0.5089,-0.5967,-0.6861,-0.7887,-0.9151,-1.0641,-1.1912,-1.2739,-1.4212,-1.5507,-1.6253,-1.5437,0.0,-1.5036,-1.4233,0.0,0.0,0.0,0.0,-1.1234,-1.1392,-1.1384,-1.1167,-1.2335,-1.2948,-1.3024,-1.4238,-1.4257,-1.313,-1.4578,-1.4975,-1.4441,-1.497,0.0,0.0,0.0,0.0,0.0,-1.2749,-1.1966,-1.1,-1.168,-0.8884,-0.3923,0.0681,0.0717,-0.0706,0.0,0.0,0.0,0.0,0.0,0.0,0.0,0.0,0.0,0.0,1.5713,1.6422,1.7249,1.8054,1.8396,0.0,0.0,0.0,0.0,0.0,0.0,0.0,0.0,0.0,2.0603,2.0775,2.0797,2.0731,2.0702,2.099,2.165,2.1556,2.2031,2.2893,2.2046,2.156,2.1558,2.2678,2.2994,2.2873,2.4126,2.4574,0.0,0.0,0.0,0.0,2.2294,2.1129,0.0,0.0,0.0,0.0,0.0,0.0,0.0,0.0,1.1913,1.1115,0.9691,0.0,0.827,0.7177,0.5266,0.3533,0.0,0.0826,-0.1289,-0.2254,-0.3508,-0.4766,-0.613,-0.6694,-0.7432,-0.9051,-1.026,-1.1326,-1.227,-1.3362,-1.4366,-1.5063,-1.4283,-1.3711,-1.3763,-1.3306,0.0,0.0,0.0,-1.1636,-1.1141,-1.0574,-1.0167,-1.0028,-1.0269,-1.0762,-1.1358,-1.1492,-1.1461,-1.1398,-1.1315,-1.1144,-1.0926,-1.1235,0.0,0.0,0.0,0.0,-0.488,-0.4952,-0.29,0.0191,-0.0635,0.1759,0.5427,0.3601,0.4219,0.5893,0.0,0.0,0.0,0.0,0.0,0.0,0.0,0.0,0.0,0.0,0.0,0.0,0.0,0.0,0.0,0.0,0.0,0.0,0.0,0.0,0.0,0.0,0.0,1.9673,1.9092,1.9232,1.9318,1.9235,1.9015,1.9336,2.0116,2.0037,2.0662,2.186,2.1485,2.1352,2.1549,2.2304,2.2521,2.2471,2.3495,0.0,0.0,0.0,0.0,0.0,2.0743,1.9701,0.0,1.6705,1.5494,1.4665,0.0,0.0,0.0,0.0,1.1045,1.0161,0.9484,0.8473,0.7354,0.6415,0.4257,0.1961,0.0646,-0.0441,-0.1593,-0.2835,-0.3699,-0.4587,-0.6002,-0.6607,-0.7433,-0.879,-1.0005,-1.1135,-1.2412,-1.3039,-1.3564,-1.4102,-1.3373,-1.2788,0.0,0.0,0.0,0.0,0.0,-1.0368,-0.9953,-0.9281,-0.8974,-0.902,-0.8771,-0.8974,-0.9725,-0.9754,-0.9585,-0.9275,-0.8595,-0.8204,-0.8108,-0.7896,-0.7184,0.0,0.0,0.0,-0.2606,-0.2342,-0.0506,0.219,0.1876,0.4273,0.7686,0.5926,0.6849,0.8843,0.0,0.0,0.0,0.0,0.0,0.0,0.0,0.0,0.0,0.0,0.0,0.0,0.0,0.0,0.0,0.0,0.0,0.0,0.0,0.0,0.0,0.0,0.0,1.8312,1.7725,1.7612,1.7664,1.7825,1.7373,1.7513,1.8215,1.8397,1.9139,2.0305,2.0935,2.1257,2.14,2.1771,2.1903,2.1946,2.2556,0.0,0.0,0.0,0.0,0.0,0.0,0.0,0.0,1.5419,1.4194,1.3408,1.2683,0.0,0.0,0.0,0.0,0.0,0.9578,0.835,0.6836,0.5657,0.3387,0.0822,-0.1299,-0.1349,-0.1515,-0.3365,-0.3963,-0.4502,-0.5685,-0.6551,-0.7445,-0.8449,-0.9668,-1.0983,-1.2562,-1.2683,-1.2752,-1.3124,-1.2453,0.0,0.0,0.0,0.0,0.0,0.0,-0.8896,-0.844,-0.7984,-0.7812,-0.8013,-0.761,-0.761,-0.8059,-0.8364,-0.81,-0.7256,-0.644,-0.5935,-0.5833,-0.5165,-0.4446,0.0,0.0,0.0,-0.2505,-0.1736,-0.0749,0.0329,0.0821,0.3106,0.6231,0.72,0.8214,0.9275,0.0,0.0,0.0,0.0,0.0,0.0,0.0,0.0,0.0,0.0,0.0,0.0,0.0,0.0,0.0,0.0,0.0,0.0,0.0,0.0,0.0,1.5225,1.6095,1.6504,1.6374,1.5835,1.5616,1.5756,1.5522,1.544,1.561,1.6025,1.7102,1.875,1.9546,2.0271,2.0957,2.1329,2.1411,2.1288,2.107,0.0,0.0,0.0,0.0,0.0,0.0,0.0,0.0,1.3356,1.2455,1.2181,1.0615,0.0,0.0,0.0,0.0,0.0,0.7916,0.6857,0.5564,0.3314,0.2325,0.1609,0.0493,-0.0543,-0.1478,-0.2472,-0.3275,-0.424,-0.5563,-0.6125,-0.6826,-0.8166,-0.9241,-1.0323,-1.1426,0.0,-1.1389,-1.1546,0.0,0.0,0.0,0.0,0.0,0.0,0.0,-0.7806,-0.7521,-0.723,-0.7015,-0.6853,-0.6804,-0.6534,-0.6046,-0.6303,-0.6357,-0.6213,-0.5214,-0.4433,-0.3759,-0.3871,-0.2741,0.0,0.0,-0.0428,0.0331,0.1382,0.1777,0.1783,0.2892,0.3724,0.456,0.5819,0.6789,0.7688,0.0,0.0,0.0,0.0,0.0,0.0,0.0,0.0,0.0,0.0,0.0,0.0,0.0,0.0,0.0,0.0,0.0,0.0,0.0,0.0,0.0,1.3573,1.3764,1.4138,1.4817,1.4399,1.4122,1.3961,1.368,1.3654,1.3936,1.53,1.6467,1.7436,1.8597,1.942,1.994,2.0092,2.0244,2.0268,0.0,0.0,0.0,0.0,0.0,0.0,0.0,0.0,0.0,0.0,1.1746,1.1316,1.0348,0.0,0.0,0.0,0.0,0.0,0.6786,0.6013,0.4892,0.2622,0.1736,0.1165,0.0302,-0.0843,-0.1878,-0.2463,-0.3331,-0.4347,-0.554,-0.6218,-0.7073,-0.8467,-0.9277,-1.0021,-1.0688,-1.061,-1.0443,0.0,0.0,0.0,0.0,0.0,0.0,0.0,0.0,0.0,-0.649,-0.6317,-0.61,-0.5878,-0.5773,-0.5445,-0.5014,-0.5117,-0.5117,-0.4901,-0.3564,-0.2617,-0.2114,-0.1701,-0.0771,0.0447,0.0,0.0441,0.1288,0.1792,0.2015,0.2127,0.3239,0.3796,0.4128,0.5928,0.6745,0.7171,0.0,0.0,0.0,0.0,0.0,0.0,0.0,0.0,0.0,0.0,0.0,0.0,0.0,0.0,0.0,0.0,0.0,0.0,0.0,0.0,1.246,1.2198,1.1751,1.2083,1.3148,1.2884,1.2608,1.2381,1.2008,1.2145,1.2746,1.4486,1.5665,1.6338,1.75,1.8347,1.8917,1.8804,1.8955,1.9129,0.0,0.0,0.0,0.0,0.0,0.0,0.0,0.0,0.0,0.0,0.0,0.0,0.0,0.0,0.0,0.8974,0.7873,0.6588,0.6186,0.5445,0.4291,0.2649,0.166,0.0858,0.0,-0.098,-0.182,-0.2457,-0.3262,-0.4188,-0.5161,-0.6093,-0.7104,-0.8334,-0.8955,-0.9375,-0.9687,-0.9612,-0.9494,-0.9232,0.0,0.0,0.0,0.0,0.0,0.0,0.0,0.0,-0.5449,-0.5395,-0.5289,-0.5175,-0.4897,-0.4625,-0.4408,-0.4298,-0.4132,-0.3855,-0.251,-0.1618,-0.1118,-0.0448,0.0168,0.0617,0.028,0.0561,0.1346,0.1624,0.1847,0.2071,0.3072,0.3683,0.4181,0.5973,0.6825,0.7209,0.0,0.0,0.0,0.0,0.0,0.0,0.0,0.0,0.0,0.0,0.0,0.0,0.0,0.0,0.0,0.0,0.0,0.0,0.0,0.0,1.0424,1.0913,1.0673,1.0778,1.137,1.0998,1.0898,1.1019,1.0757,1.104,1.1799,1.252,1.3906,1.576,1.5921,1.6817,1.8145,1.7913,1.7863,1.787,1.6539,0.0,0.0,0.0,0.0,0.0,0.0,0.0,0.0,0.0,0.0,0.0,0.0,0.0,0.8197,0.7427,0.6877,0.6467,0.616,0.5023,0.3758,0.323,0.2344,0.1426,0.051,-0.0128,-0.0841,-0.1666,-0.2664,-0.3572,-0.425,-0.5445,-0.6462,-0.7057,-0.7564,-0.7878,-0.7988,0.0,-0.8196,0.0,0.0,0.0,0.0,0.0,0.0,0.0,0.0,0.0,-0.4343,-0.446,-0.4629,-0.4743,-0.4405,-0.4236,-0.4249,-0.3747,-0.3469,-0.3413,-0.3019,-0.2291,-0.1285,-0.1514,-0.1066,-0.0112,-0.0168,0.0056,0.0561,0.168,0.2018,0.1908,0.2798,0.3685,0.4515,0.5054,0.6207,0.7571,0.0,0.0,0.0,0.0,0.0,0.0,0.0,0.0,0.0,0.0,0.0,0.0,0.0,0.0,0.0,0.0,0.0,0.0,0.0,0.7459,0.8065,0.8436,0.8628,0.8732,0.877,0.9293,0.9361,0.8922,0.9043,0.9494,1.0205,1.1452,1.2619,1.3705,1.443,1.4974,1.5328,1.5471,1.5634,1.5718,1.433,1.4089,0.0,0.0,0.0,0.0,0.0,0.0,0.0,0.0,0.9791,0.9599,0.8758,0.7957,0.7241,0.697,0.6082,0.5089,0.4649,0.3969,0.3325,0.2797,0.2315,0.1662,0.0649,-0.0199,-0.0963,-0.1438,-0.2513,-0.3599,-0.4321,-0.5237,-0.6045,-0.6432,-0.6688,-0.6916,-0.7311,-0.7093,0.0,0.0,0.0,0.0,0.0,0.0,0.0,0.0,0.0,0.0,0.0,-0.3849,-0.3959,-0.4018,-0.3796,-0.3577,-0.3246,-0.3416,-0.319,-0.2517,-0.2237,-0.1734,-0.1064,-0.1178,-0.0887,-0.0326,-0.0167,0.0055,0.0435,0.1664,0.224,0.2354,0.3683,0.4737,0.5506,0.6286,0.71,0.7824,0.0,0.0,0.0,0.0,0.0,0.0,0.0,0.0,0.0,0.0,0.0,0.0,0.0,0.0,0.0,0.0,0.0,0.0,0.3997,0.5121,0.5961,0.6501,0.6983,0.7167,0.6858,0.7494,0.7727,0.7573,0.7809,0.8297,0.9084,1.025,1.123,1.2097,1.2814,1.3125,1.3147,1.3325,1.3505,1.3617,1.252,1.2413,0.0,0.0,0.0,0.0,0.0,0.0,0.0,0.0,0.9024,0.8912,0.8184,0.7269,0.6462,0.6416,0.5467,0.4358,0.394,0.3618,0.3255,0.2708,0.2353,0.1952,0.1093,0.007,-0.0792,-0.1137,-0.2158,-0.3229,-0.39,-0.4538,-0.5078,0.0,-0.5628,-0.5852,-0.6262,0.0,0.0,0.0,0.0,0.0,0.0,0.0,0.0,0.0,0.0,0.0,0.0,-0.3186,-0.3294,-0.3239,-0.3188,-0.2968,-0.2635,-0.2968,-0.2745,-0.1961,-0.1624,-0.1288,-0.0842,-0.0785,-0.0553,-0.0217,0.0111,0.0277,0.0542,0.1719,0.2464,0.3023,0.4284,0.5268,0.6068,0.6937,0.7688,0.8312,0.0,0.0,0.0,0.0,0.0,0.0,0.0,0.0,0.0,0.0,0.0,0.0,0.0,0.0,0.0,0.0,0.0,0.0,0.1785,0.3131,0.4305,0.5292,0.6035,0.623,0.5883,0.5632,0.6097,0.7277,0.7068,0.753,0.8606,0.8745,0.9728,1.136,1.1004,1.13,1.2033,1.1785,1.1678,1.1654,1.1382,1.1046,1.057,0.0,0.0,0.0,0.0,0.0,0.0,0.0,0.8119,0.777,0.711,0.6437,0.5873,0.5672,0.5136,0.4549,0.4273,0.3985,0.365,0.3059,0.2729,0.2411,0.1941,0.0964,0.0,-0.0778,-0.1539,-0.2251,-0.278,-0.3132,-0.3465,-0.4064,-0.4351,-0.4561,-0.466,0.0,0.0,0.0,0.0,0.0,0.0,0.0,0.0,0.0,0.0,0.0,0.0,-0.2521,-0.2635,-0.2521,-0.2465,-0.2465,-0.2465,-0.2296,-0.2073,-0.1797,-0.1459,-0.1066,-0.0673,-0.0505,-0.0168,0.0224,0.0561,0.0729,0.0784,0.1792,0.2852,0.3863,0.4279,0.5016,0.5953,0.6506,0.7678,0.9058,0.0,0.0,0.0,0.0,0.0,0.0,0.0,0.0,0.0,0.0,0.0,0.0,0.0,0.0,0.0,0.0,0.0,0.0,-0.1011,0.0731,0.1959,0.243,0.361,0.4257,0.415,0.4477,0.5052,0.5878,0.6027,0.6607,0.7628,0.7971,0.8375,0.8896,0.9382,0.9299,0.8791,0.9555,0.9679,0.9368,0.9125,0.9173,0.9186,0.0,0.0,0.0,0.0,0.0,0.0,0.0,0.0,0.0,0.6568,0.6437,0.6237,0.5884,0.5573,0.5297,0.4684,0.4367,0.4198,0.4016,0.3494,0.2957,0.2637,0.158,0.0386,-0.0704,-0.1405,-0.1831,-0.2224,-0.2551,0.0,-0.3277,-0.323,-0.3319,0.0,0.0,0.0,0.0,0.0,0.0,0.0,0.0,0.0,0.0,0.0,0.0,0.0,-0.1793,-0.1794,0.0,-0.1902,-0.1736,-0.1514,-0.168,-0.1568,-0.1178,-0.0842,-0.0673,-0.0673,-0.028,-0.0055,0.0162,0.0722,0.1325,0.1937,0.3465,0.4501,0.5073,0.5401,0.5996,0.6763,0.7576,0.8423,0.9217,0.0,0.0,0.0,0.0,0.0,0.0,0.0,0.0,0.0,0.0,-0.7034,-0.7329,0.0,0.0,0.0,0.0,0.0,0.0,0.0,-0.125,0.0107,0.0776,0.2017,0.2943,0.3335,0.3789,0.43,0.4963,0.532,0.5959,0.6751,0.6808,0.7004,0.7234,0.7611,0.7379,0.669,0.7442,0.758,0.7253,0.7144,0.7269,0.751,0.0,0.0,0.0,0.0,0.0,0.0,0.0,0.0,0.0,0.617,0.6112,0.5969,0.6142,0.5833,0.5448,0.5336,0.5111,0.4833,0.4853,0.439,0.3763,0.3097,0.1876,0.0612,-0.0308,-0.0838,-0.1186,-0.1485,-0.1874,0.0,-0.2589,-0.2475,0.0,0.0,0.0,0.0,0.0,0.0,0.0,0.0,0.0,0.0,0.0,0.0,0.0,0.0,-0.1177,0.0,0.0,-0.1119,-0.1008,-0.0729,-0.112,-0.1064,-0.0561,-0.0449,-0.028,0.0,0.028,0.0443,0.0598,0.1385,0.2261,0.324,0.4348,0.5164,0.5736,0.6091,0.6638,0.7307,0.8082,0.8699,0.9319,0.0,0.0,0.0,0.0,0.0,0.0,0.0,0.0,0.0,0.0,-0.7666,-0.8146,0.0,0.0,0.0,0.0,0.0,0.0,0.0,0.0,-0.1235,-0.0099,0.0993,0.2032,0.3079,0.3286,0.3664,0.4216,0.4874,0.5458,0.6007,0.554,0.5626,0.6095,0.584,0.5636,0.5509,0.5566,0.5505,0.5407,0.5457,0.5524,0.5616,0.5365,0.0,0.0,0.0,0.0,0.0,0.0,0.0,0.0,0.5917,0.5739,0.5464,0.6407,0.6,0.5428,0.616,0.5997,0.5676,0.5747,0.5229,0.4528,0.3312,0.1989,0.0874,0.0447,0.0072,-0.0348,-0.0763,-0.1019,-0.1389,-0.187,-0.1921,0.0,0.0,0.0,0.0,0.0,0.0,0.0,0.0,0.0,0.0,0.0,0.0,0.0,0.0,-0.0672,0.0,-0.0168,-0.0224,-0.0224,-0.0168,-0.0505,-0.0449,0.0,-0.0168,0.0224,0.1122,0.101,0.112,0.1509,0.245,0.3506,0.4515,0.4728,0.5222,0.585,0.6393,0.6992,0.7607,0.8054,0.8663,0.9238,0.0,0.0,0.0,0.0,0.0,0.0,0.0,0.0,0.0,0.0,0.0,0.0,0.0,0.0,0.0,0.0,0.0,0.0,0.0,0.0,-0.2474,-0.1781,-0.0283,0.0795,0.1381,0.2109,0.2565,0.2644,0.3854,0.4712,0.529,0.502,0.4811,0.4793,0.4897,0.4601,0.4022,0.4471,0.442,0.4069,0.4376,0.4517,0.4599,0.4933,0.5203,0.0,0.0,0.0,0.0,0.0,0.0,0.0,0.5778,0.6336,0.6763,0.6336,0.6706,0.7134,0.6701,0.6758,0.6838,0.6698,0.5775,0.4651,0.3829,0.2829,0.1917,0.1103,0.0615,0.0268,0.0,-0.0316,-0.0565,-0.0748,0.0,0.0,0.0,0.0,0.0,0.0,0.0,0.0,0.0,0.0,0.0,0.0,0.0,0.0,-0.0162,0.0,0.0,-0.0056,0.0393,0.0505,0.028,0.0561,0.0673,0.0,0.0842,0.1122,0.1459,0.1291,0.1625,0.2464,0.3732,0.4284,0.4343,0.5555,0.5996,0.6018,0.668,0.7021,0.7223,0.8061,0.8375,0.8561,0.0,0.0,0.0,0.0,0.0,0.0,0.0,0.0,0.0,0.0,0.0,0.0,0.0,0.0,0.0,0.0,0.0,0.0,0.0,0.0,-0.3385,-0.2233,-0.1069,-0.0147,0.0517,0.0856,0.134,0.194,0.2537,0.3286,0.4184,0.4171,0.4111,0.4089,0.4129,0.3987,0.3638,0.3753,0.351,0.3156,0.3386,0.3531,0.3594,0.3921,0.4214,0.447,0.4213,0.0,0.0,0.0,0.0,0.0,0.0,0.0,0.6678,0.6736,0.7062,0.7455,0.7604,0.7581,0.7414,0.7242,0.6472,0.5469,0.4689,0.3876,0.2978,0.208,0.1355,0.0768,0.0497,0.037,0.0184,-0.0182,0.0,0.0,0.0,0.0,0.0,0.0,0.0,0.0,0.0,0.0,0.0,0.0,0.0,0.0111,0.0492,0.05,0.0617,0.0784,0.112,0.1232,0.1064,0.1232,0.1344,0.14,0.1456,0.1681,0.2132,0.2128,0.2707,0.3772,0.4674,0.5177,0.5518,0.6086,0.643,0.649,0.6771,0.7002,0.7275,0.8003,0.8226,0.8207,0.0,0.0,0.0,0.0,0.0,0.0,0.0,0.0,0.0,0.0,0.0,0.0,0.0,0.0,0.0,0.0,0.0,0.0,0.0,0.0,0.0,-0.2483,-0.1797,-0.1085,-0.0307,-0.0382,0.0114,0.1234,0.1051,0.1541,0.2581,0.3096,0.3279,0.329,0.3245,0.3243,0.3312,0.2913,0.2557,0.2302,0.2396,0.2455,0.2571,0.2711,0.3079,0.3444,0.3032,0.3332,0.4015,0.4154,0.0,0.0,0.0,0.0,0.6018,0.6993,0.7142,0.7315,0.8147,0.82,0.7844,0.7705,0.7265,0.6587,0.5732,0.4824,0.4006,0.319,0.2147,0.1285,0.0973,0.0971,0.084,0.0,0.0,0.0,0.0,0.0,0.0,0.0,0.0,0.0,0.0,0.0,0.0,0.0,0.0,0.1007,0.1279,0.1398,0.1513,0.1734,0.1902,0.1958,0.1902,0.179,0.1846,0.2071,0.1902,0.2181,0.2858,0.3132,0.3795,0.4697,0.5189,0.5834,0.6525,0.6363,0.6482,0.6825,0.6912,0.7087,0.7474,0.8115,0.8207,0.8182,0.0,0.0,0.0,0.0,0.0,0.0,0.0,0.0,0.0,0.0,-1.0418,-0.9787,0.0,0.0,0.0,0.0,0.0,0.0,-0.656,0.0,0.0,-0.3797,-0.2816,-0.2177,-0.1814,-0.1258,-0.0877,-0.0646,-0.0399,-0.0109,0.0204,0.1472,0.1912,0.1709,0.1715,0.1574,0.1356,0.1357,0.1255,0.1038,0.1254,0.121,0.1128,0.1685,0.1991,0.2123,0.2002,0.2452,0.3086,0.3117,0.3576,0.0,0.0,0.0,0.578,0.6175,0.6838,0.7468,0.7639,0.7981,0.8347,0.826,0.8078,0.7643,0.6481,0.5648,0.4888,0.4165,0.2949,0.1937,0.1826,0.1533,0.1237,0.0,0.0,0.0,0.0,0.0,0.0,0.0,0.0,0.0,0.0,0.0,0.0,0.0,0.1483,0.1657,0.2038,0.1983,0.2071,0.2352,0.2521,0.2521,0.241,0.2408,0.2408,0.241,0.2629,0.2963,0.3471,0.3747,0.3974,0.4166,0.4916,0.5324,0.5439,0.5957,0.6191,0.6319,0.7022,0.7374,0.7531,0.8554,0.8672,0.8511,0.0,0.0,0.0,0.0,0.0,0.0,0.0,0.0,0.0,0.0,0.0,-1.0255,0.0,0.0,0.0,-0.7603,-0.7327,-0.6841,-0.615,-0.5684,-0.5181,-0.4621,-0.4063,-0.3601,-0.334,-0.2707,-0.215,-0.1712,-0.135,-0.1005,-0.0661,0.0,0.0503,0.0912,0.086,0.0812,0.0739,0.0665,0.0398,0.0,0.0508,0.0481,0.0186,0.0569,0.0801,0.091,0.0816,0.1436,0.2298,0.2614,0.3122,0.3837,0.4546,0.0,0.0,0.0,0.6552,0.7401,0.8022,0.8404,0.8626,0.8848,0.8685,0.8196,0.7249,0.6604,0.5954,0.4982,0.4011,0.3117,0.2307,0.2125,0.1994,0.0,0.0,0.0,0.0,0.0,0.0,0.0,0.0,0.0,0.0,0.0,0.0,0.0,0.2143,0.2336,0.2682,0.2662,0.274,0.3023,0.3135,0.3135,0.3023,0.3023,0.3023,0.3023,0.3519,0.3962,0.4239,0.4787,0.4894,0.4706,0.5117,0.5548,0.599,0.6005,0.6258,0.666,0.6928,0.7275,0.7793,0.8568,0.8829,0.8829,0.0,0.0,0.0,0.0,0.0,0.0,0.0,0.0,0.0,0.0,0.0,0.0,0.0,0.0,0.0,0.0,-0.7174,-0.6796,-0.6159,-0.618,-0.5968,-0.5504,-0.5123,-0.4779,-0.4563,-0.4029,-0.34,-0.2732,-0.2435,-0.201,-0.1387,-0.1327,-0.0922,-0.0219,-0.0092,0.0,0.0045,-0.0092,-0.0461,-0.0829,-0.0361,-0.0425,-0.0817,-0.0624,-0.0433,-0.0226,-0.017,0.0567,0.1583,0.2128,0.2728,0.3314,0.4213,0.4636,0.0,0.0,0.0,0.7064,0.8183,0.8563,0.864,0.8996,0.9016,0.8703,0.795,0.7394,0.6781,0.0,0.4848,0.402,0.285,0.2711,0.2622,0.0,0.0,0.0,0.0,0.0,0.0,0.0,0.0,0.0,0.0,0.0,0.0,0.0,0.2815,0.3079,0.3299,0.3352,0.3466,0.358,0.3694,0.3635,0.358,0.3469,0.3524,0.3633,0.4187,0.4625,0.4893,0.5555,0.569,0.5486,0.5584,0.5972,0.6456,0.6142,0.6343,0.6889,0.6825,0.725,0.7968,0.8587,0.8901,0.9081,0.0,0.0,0.0,0.0,0.0,0.0,0.0,0.0,0.0,0.0,0.0,0.0,-1.0293,-0.9537,-0.8675,-0.7751,-0.7771,-0.7626,-0.7068,-0.697,-0.6793,-0.6515,-0.5814,0.0,-0.5332,-0.5,-0.4492,-0.3799,-0.3993,-0.3512,-0.2504,-0.2444,-0.2312,-0.2147,-0.1542,-0.1236,-0.1137,-0.1377,-0.1449,-0.1403,-0.1606,-0.1792,-0.2028,-0.1937,-0.1753,-0.1407,-0.0881,-0.0117,0.0758,0.1582,0.2128,0.2709,0.3545,0.3966,0.4247,0.0,0.0,0.0,0.7444,0.7912,0.8254,0.8399,0.9034,0.9381,0.8308,0.779,0.7256,0.617,0.5203,0.4368,0.3759,0.3342,0.2958,0.0,0.0,0.0,0.0,0.0,0.0,0.0,0.0,0.0,0.0,0.0,0.0,0.0,0.3685,0.3796,0.3968,0.4082,0.4138,0.4138,0.4024,0.3968,0.3968,0.3694,0.3802,0.4177,0.4405,0.4791,0.5277,0.5778,0.6055,0.6128,0.6205,0.6187,0.6147,0.6257,0.6319,0.6386,0.6825,0.737,0.7974,0.8632,0.9062,0.9274,0.0,0.0,0.0,0.0,0.0,0.0,0.0,0.0,0.0,0.0,0.0,0.0,0.0,-0.9727,-0.8921,-0.7785,-0.749,-0.726,-0.6922,-0.7076,-0.7146,-0.7136,-0.6646,-0.6428,-0.6514,-0.5849,-0.5238,-0.4752,-0.4422,-0.3911,-0.3253,-0.3121,-0.3182,-0.3271,-0.2391,-0.2156,-0.2379,-0.2179,-0.2443,-0.2968,-0.2794,-0.3032,-0.3563,-0.317,-0.2869,-0.2626,-0.1887,-0.0999,-0.0124,0.0739,0.1434,0.2083,0.2863,0.3299,0.3797,0.4876,0.5528,0.6015,0.6772,0.7174,0.7522,0.7856,0.824,0.8436,0.7927,0.7716,0.726,0.6174,0.5588,0.506,0.4364,0.3714,0.3242,0.0,0.0,0.0,0.0,0.0,0.0,0.0,0.0,0.0,0.0,0.0,0.0,0.0,0.0,0.0,0.4298,0.4519,0.4629,0.4522,0.4574,0.4519,0.4467,0.4356,0.4467,0.4791,0.5171,0.5609,0.6154,0.6598,0.6928,0.7031,0.6958,0.6794,0.6468,0.6587,0.6668,0.6856,0.714,0.7693,0.8276,0.8483,0.8945,0.9556,0.0,0.0,0.0,0.0,0.0,0.0,0.0,0.0,0.0,-1.252,0.0,0.0,0.0,0.0,-0.927,-0.8118,-0.7722,-0.7512,-0.7423,-0.7505,-0.7674,-0.7835,-0.726,-0.7086,-0.73,-0.6559,-0.6007,-0.5605,-0.5094,-0.4556,-0.4005,-0.3829,-0.3843,-0.4024,-0.3283,-0.3155,-0.3444,-0.3081,-0.3391,-0.4113,-0.4193,-0.4391,-0.4681,-0.4511,-0.4213,-0.3738,-0.2965,-0.207,-0.1058,-0.0066,0.0759,0.1513,0.2272,0.2943,0.3557,0.4417,0.4882,0.5302,0.5834,0.6268,0.6674,0.7204,0.7398,0.7554,0.7482,0.7482,0.7122,0.6108,0.5807,0.5445,0.4667,0.4142,0.3776,0.3657,0.0,0.0,0.0,0.0,0.0,0.0,0.0,0.0,0.0,0.0,0.0,0.0,0.0,0.0,0.4625,0.4739,0.4794,0.4632,0.4739,0.4794,0.4691,0.4691,0.4963,0.5399,0.5668,0.6154,0.6864,0.73,0.7574,0.7628,0.7687,0.7384,0.6976,0.7033,0.7118,0.7315,0.7474,0.7936,0.8514,0.8508,0.8938,0.9617,0.0,0.0,0.0,0.0,0.0,0.0,0.0,0.0,-1.3182,-1.3126,0.0,0.0,0.0,0.0,0.0,-0.8818,-0.8551,-0.8477,-0.8633,-0.8381,-0.8361,-0.8719,-0.7706,-0.7344,-0.7711,-0.7192,-0.6764,-0.6432,-0.6141,-0.5617,-0.4849,-0.4638,-0.4464,-0.4354,-0.4358,-0.4317,-0.426,-0.4251,-0.4388,-0.4675,-0.575,-0.586,-0.5312,-0.5934,-0.5679,-0.4908,-0.4101,-0.3147,-0.2024,-0.0748,0.0198,0.1026,0.1862,0.2827,0.3564,0.366,0.3977,0.4452,0.0,0.0,0.0,0.6339,0.6593,0.6841,0.717,0.7074,0.6772,0.6031,0.5782,0.5432,0.4671,0.4652,0.4555,0.4063,0.0,0.0,0.0,0.0,0.0,0.0,0.0,0.0,0.0,0.0,0.0,0.0,0.0,0.4798,0.4897,0.4794,0.4632,0.4519,0.4632,0.4746,0.4746,0.4746,0.5179,0.6,0.5887,0.6322,0.7317,0.7723,0.7883,0.7901,0.8268,0.8088,0.7548,0.7548,0.7632,0.7709,0.7875,0.8166,0.8522,0.8675,0.9016,0.9475,0.0,0.0,0.0,0.0,0.0,0.0,-1.4685,-1.423,-1.3795,0.0,0.0,0.0,-1.1548,-1.0661,-0.9907,-0.9411,-0.9397,-0.9329,-0.9124,-0.8885,-0.8947,-0.9282,-0.8555,-0.831,-0.8652,-0.8084,-0.7588,-0.7183,-0.6673,-0.6207,-0.5741,-0.5468,-0.536,-0.5402,-0.5499,-0.5754,-0.6034,-0.5444,-0.5504,-0.6067,-0.6299,-0.6585,-0.6865,-0.6601,-0.6386,-0.604,-0.5046,-0.4154,-0.3172,-0.1908,-0.0982,-0.0132,0.1126,0.1834,0.2316,0.2911,0.3301,0.3665,0.3981,0.0,0.0,0.0,0.0,0.0,0.6057,0.6125,0.6002,0.5782,0.5735,0.5623,0.5426,0.5299,0.5229,0.5324,0.0,0.0,0.0,0.0,0.0,0.0,0.0,0.0,0.0,0.0,0.0,0.0,0.5073,0.5128,0.5069,0.5073,0.5132,0.5077,0.5132,0.5132,0.5132,0.5293,0.5673,0.6273,0.6376,0.6815,0.7467,0.7788,0.8002,0.8115,0.8421,0.8635,0.8732,0.8397,0.8269,0.8305,0.85,0.874,0.9047,0.8934,0.9117,0.9495,0.0,0.0,0.0,0.0,0.0,-1.5086,-1.4686,-1.4501,-1.431,0.0,0.0,0.0,-1.2016,-1.1034,-1.0396,-1.0332,-1.0249,-1.0159,-1.0002,-0.9588,-0.9535,-0.9819,-0.9166,-0.8882,-0.9096,-0.8652,-0.8266,-0.7959,-0.7386,-0.6939,-0.6656,-0.6361,-0.6186,-0.6129,-0.6384,-0.6671,-0.7014,-0.6717,-0.6612,-0.6687,-0.7221,-0.7517,-0.7618,-0.7318,-0.7125,-0.6849,-0.5898,-0.5038,-0.4154,-0.3119,-0.199,-0.0864,0.0314,0.0916,0.1268,0.1991,0.2354,0.2654,0.3179,0.3545,0.3852,0.4252,0.0,0.0,0.5384,0.5461,0.5557,0.0,0.5822,0.5859,0.5742,0.5701,0.5785,0.5957,0.0,0.0,0.0,0.0,0.0,0.0,0.0,0.0,0.0,0.5403,0.5289,0.5175,0.5179,0.5183,0.5124,0.5183,0.5242,0.5242,0.5242,0.5242,0.5297,0.5513,0.5837,0.6322,0.6652,0.7085,0.7622,0.8049,0.8321,0.8487,0.8791,0.9044,0.916,0.8991,0.8957,0.8949,0.9065,0.9212,0.9369,0.9378,0.9469,0.9726,0.0,0.0,0.0,-1.5471,-1.5455,-1.5363,-1.5162,-1.5012,-1.484,0.0,-1.406,-1.3352,-1.2452,-1.1616,-1.1211,-1.1467,-1.1226,-1.1061,-1.1111,-1.0517,-1.0257,-1.034,-0.9726,-0.9337,-0.9276,-0.9073,-0.8869,-0.8685,-0.8133,-0.7759,-0.7494,-0.7187,-0.6931,-0.6711,-0.7091,-0.7308,-0.7435,-0.7847,-0.7574,-0.6982,-0.8167,-0.8315,-0.7907,-0.7996,-0.7855,-0.7422,-0.6746,-0.594,-0.5147,-0.4265,-0.2947,-0.1539,-0.0503,-0.0061,0.0238,0.0939,0.123,0.1477,0.2243,0.2574,0.2836,0.3522,0.382,0.0,0.4895,0.513,0.5254,0.0,0.6004,0.6088,0.5785,0.5992,0.6186,0.6206,0.6358,0.0,0.0,0.0,0.0,0.0,0.0,0.0,0.6092,0.5817,0.5644,0.5622,0.5348,0.5183,0.5183,0.5183,0.5183,0.5183,0.5183,0.5238,0.5356,0.5567,0.5837,0.6263,0.6712,0.7198,0.7723,0.8408,0.8791,0.8804,0.9263,0.9361,0.9263,0.942,0.9568,0.9639,0.9674,0.9598,0.9583,0.9873,0.9962,1.0103,0.0,0.0,-1.6388,-1.7013,-1.6954,-1.6771,-1.6623,-1.6127,-1.5835,-1.5965,-1.5047,-1.4158,-1.3472,-1.2864,-1.2511,-1.2584,-1.26,-1.2309,-1.1675,-1.1853,-1.156,-1.066,-1.0885,-1.0603,-0.9788,-0.9872,-0.965,-0.9141,-0.8598,-0.8263,-0.8187,-0.7669,-0.7414,-0.7418,-0.7611,-0.785,-0.8158,-0.8174,-0.8152,-0.8162,-0.8061,-0.8252,-0.8562,-0.844,-0.8373,-0.8294,-0.7637,-0.6936,-0.5987,-0.4599,-0.3895,-0.3305,-0.1911,-0.1521,-0.1349,-0.0117,0.0288,0.0526,0.1203,0.162,0.2,0.2779,0.3232,0.0,0.4265,0.4568,0.4796,0.0,0.5509,0.5796,0.586,0.6117,0.642,0.6707,0.6892,0.0,0.0,0.0,0.0,0.0,0.0,0.0,0.6653,0.636,0.607,0.5959,0.5736,0.5681,0.5681,0.5681,0.5681,0.5681,0.5681,0.5686,0.5686,0.5841,0.6164,0.6593,0.682,0.7198,0.7723,0.8256,0.8573,0.8837,0.9354,0.9629,0.9688,1.0007,1.0016,0.9877,0.9952,1.0137,1.0394,1.043,1.053,1.0696,-1.7455,-1.7237,-1.7087,-1.7445,-1.7353,-1.7219,-1.7166,-1.6857,-1.6508,-1.6253,-1.5304,-1.4499,-1.4092,-1.3689,-1.3387,-1.3251,-1.3422,-1.3261,-1.2605,-1.2878,-1.2578,-1.1399,-1.1719,-1.1444,-1.0273,-1.0532,-1.0367,-0.9748,-0.9286,-0.898,-0.8769,-0.8424,-0.8213,-0.8213,-0.8363,-0.8538,-0.882,-0.882,-0.8754,-0.8705,-0.8288,-0.8282,-0.8523,-0.855,-0.8544,-0.8496,-0.8068,-0.7491,-0.6656,-0.5481,-0.5027,0.0,-0.3341,-0.2821,-0.2516,0.0,-0.0812,-0.0466,0.0169,0.068,0.1152,0.1695,0.0,0.0,0.0,0.3827,0.4282,0.4648,0.5149,0.5519,0.5771,0.6101,0.6444,0.6868,0.7291,0.748,0.0,0.0,0.0,0.0,0.0,0.0,0.6866,0.6627,0.6316,0.6057,0.5843,0.5681,0.5681,0.5626,0.5631,0.5795,0.5736,0.5791,0.59,0.6009,0.6228,0.644,0.7031,0.7461,0.7723,0.8521,0.8995,0.9145,0.9621,0.9888,1.0058,1.0316,1.0348,1.0268,1.0102,1.0068,1.0143,1.0528,1.0835,1.1084,-1.7591,-1.7648,-1.7774,-1.7792,-1.7685,-1.7617,-1.7612,-1.7446,-1.7002,-1.6121,-1.5548,-1.5082,-1.4685,-1.4525,-1.4352,-1.4198,-1.439,-1.4287,-1.3744,-1.3957,-1.3556,-1.2413,-1.2562,-1.2109,-1.0912,-1.1151,-1.0931,-1.03,-0.999,-0.9718,-0.9368,-0.9221,-0.9097,-0.8998,-0.9212,-0.934,-0.9439,-0.9429,-0.9302,-0.9058,-0.8532,-0.8281,-0.8315,-0.8626,-0.878,-0.8747,-0.8424,-0.7877,-0.726,-0.6424,-0.6171,-0.5902,-0.4747,-0.4099,0.0,0.0,0.0,0.0,0.0,0.0,0.0,0.0,0.0,0.2153,0.0,0.0,0.0,0.418,0.4683,0.5125,0.5495,0.0,0.0,0.0,0.0,0.0,0.0,0.7912,0.0,0.0,0.0,0.0,0.0,0.6926,0.6638,0.6315,0.6039,0.5881,0.5841,0.5677,0.5681,0.5955,0.5841,0.5841,0.6055,0.6228,0.6337,0.6391,0.7295,0.7777,0.7883,0.889,0.9413,0.9465,0.9895,1.0162,1.0375,1.047,1.0577,1.0646,1.0331,1.0113,1.0119,1.0752,1.1275,1.1695,-1.8675,-1.8474,-1.8484,-1.9089,-1.8987,-1.8815,-1.8815,-1.8237,-1.7362,-1.6075,-1.6607,-1.6711,-1.5669,-1.5841,-1.6105,-1.6266,-1.6075,-1.5758,-1.5274,-1.5343,-1.4914,-1.3814,-1.3707,-1.315,-1.2027,-1.1877,-1.1451,-1.0649,-1.0322,-1.0123,-1.0102,-0.9767,-0.9679,-0.9795,-1.008,-1.0258,-1.0243,-0.9688,-0.9467,-0.9391,-0.867,-0.8444,-0.854,-0.9232,-0.9572,-0.964,-0.8848,-0.8249,-0.7827,0.0,-0.7044,-0.6802,0.0,-0.5475,-0.5016,-0.3545,0.0,0.0,0.0,0.0,0.0,0.0,0.0794,0.0,0.0,0.0,0.3114,0.3365,0.0,0.4552,0.4938,0.0,0.0,0.0,0.0,0.0,0.8183,0.8367,0.8334,0.0,0.0,0.0,0.0,0.7683,0.7352,0.7115,0.6909,0.6753,0.6608,0.6539,0.6539,0.6593,0.6436,0.6327,0.6327,0.6544,0.6761,0.6977,0.7456,0.799,0.8521,0.8995,0.9361,0.9614,1.0051,1.0332,1.0502,1.0624,1.0683,1.0724,1.0751,1.113,1.1554,1.1651,1.2174,1.2789,-1.8436,-1.882,-1.9167,-1.95,-1.9572,-1.9513,-1.9263,-1.8883,-1.823,-1.7254,-1.7383,-1.7261,-1.6422,-1.6689,-1.6866,-1.6663,-1.7114,-1.7161,-1.6573,-1.652,-1.6128,-1.5326,-1.4662,-1.3918,-1.3087,-1.2551,-1.2033,-1.1518,-1.1073,-1.0702,-1.047,-1.0341,-1.0269,-1.0333,-1.0472,-1.0523,-1.0498,-1.0129,-0.9785,-0.9391,-0.9098,-0.8903,0.0,-0.9042,-0.9341,-0.9585,-0.9475,-0.9162,-0.8801,0.0,-0.8409,0.0,0.0,0.0,0.0,-0.5103,0.0,0.0,0.0,0.0,0.0,0.0,0.0,0.0,0.0947,0.0,0.2113,0.0,0.0,0.0,0.0,0.0,0.0,0.0,0.6889,0.0,0.0,0.0,0.8799,0.0,0.0,0.0,0.0,0.0,0.0,0.0,0.7544,0.7365,0.7083,0.7062,0.6999,0.682,0.6712,0.6761,0.6918,0.7085,0.7246,0.7456,0.799,0.8362,0.8626,0.9204,0.951,0.9614,1.0102,1.0427,1.064,1.0742,1.0887,1.104,1.1122,1.1194,1.1296,1.1841,1.2459,1.3049,-1.8158,-1.8801,-1.933,-1.9701,-1.9748,-1.9614,-1.9263,-1.9116,-1.8795,-1.8014,-1.7939,-1.7664,-1.7043,-1.7469,-1.7701,-1.7451,-1.81,-1.8393,-1.7928,-1.7513,-1.7122,-1.6704,-1.5589,-1.4733,-1.4167,-1.3322,-1.2674,-1.2224,-1.1628,-1.1175,-1.0879,-1.0816,-1.0713,-1.0583,-1.0791,-1.082,-1.0756,-1.0528,-1.0136,-0.9625,-0.9432,-0.9167,-0.8891,-0.915,-0.9427,-0.9707,-1.0024,-0.9901,-0.964,-0.9572,-0.9421,0.0,-0.851,0.0,-0.7308,0.0,0.0,0.0,-0.4333,0.0,0.0,0.0,0.0,0.0,0.0,0.0,0.0,0.0,0.0,0.0,0.0,0.0,0.5171,0.5801,0.0,0.7312,0.0,0.8415,0.0,0.0,0.0,0.0,0.0,0.0,0.0,0.8264,0.8143,0.7962,0.7611,0.7518,0.7404,0.7192,0.7122,0.7192,0.7348,0.7509,0.7676,0.7836,0.8415,0.8732,0.8784,0.9361,0.9673,0.9732,1.0254,1.0566,1.0794,1.1061,1.1242,1.1319,1.1704,1.1541,1.1276,1.2028,1.2779,1.3351,-1.8233,-1.848,-1.8752,-1.9798,-1.9474,-1.897,-1.875,-1.8865,-1.8674,-1.7817,-1.8172,-1.8212,-1.7445,-1.8247,-1.894,-1.9213,-1.9248,-1.9272,-1.9346,-1.8277,-1.7734,-1.7843,-1.6495,-1.5601,-1.5247,-1.4256,-1.3322,-1.248,-1.1828,-1.1427,-1.1285,-1.106,-1.0826,-1.0506,-1.1234,-1.1363,-1.1077,-1.095,-1.0585,-1.01,-0.9534,-0.8956,-0.8538,0.0,-1.0376,-1.0363,-1.0369,0.0,0.0,-1.0043,-0.9755,0.0,0.0,0.0,0.0,0.0,0.0,0.0,0.0,0.0,0.0,-0.3126,0.0,0.0,0.0,0.0,0.0229,0.0,0.0,0.0,0.0,0.3743,0.4741,0.5432,0.6164,0.0,0.0,0.0,0.0,0.0,0.0,0.0,0.0,0.0,0.0,0.9098,0.8845,0.8526,0.8257,0.8126,0.7993,0.788,0.7749,0.7622,0.7521,0.7771,0.799,0.8168,0.8745,0.9061,0.9211,0.9584,0.9844,1.0014,1.0562,1.0849,1.0945,1.1662,1.1711,1.1404,1.2672,1.2766,1.2182,1.2329,1.3193,1.4225,-1.7917,-1.8382,-1.8817,-1.9821,-2.0073,-2.0258,-2.0734,-2.0245,-1.9641,-1.9279,-1.9016,-1.8642,-1.7993,-1.8851,-1.9415,-1.9248,-1.9887,-2.0175,-1.9938,-1.9065,-1.8697,-1.8976,-1.715,-1.6158,-1.6297,-1.453,-1.3377,-1.2878,-1.2162,-1.1644,-1.1287,-1.1225,-1.1047,-1.0813,-1.1152,-1.1113,-1.0884,-1.0742,-1.0363,-0.9833,-0.9309,-0.8963,-0.8884,0.0,0.0,-1.0057,-1.0758,-1.0712,0.0,-1.0801,-1.0758,-1.0558,-1.0623,-1.004,-0.9285,-0.8901,-0.8011,0.0,0.0,0.0,-0.5058,-0.43,0.0,0.0,0.0,0.0,0.0,0.0,0.0,0.0,0.0,0.3146,0.3946,0.4766,0.5553,0.6287,0.0,0.0,0.0,0.0,0.0,0.0,0.0,0.0,0.0,0.9367,0.9515,0.9475,0.9211,0.9398,0.9169,0.8515,0.8576,0.8553,0.8381,0.8362,0.8521,0.885,0.926,0.9407,0.9375,1.0122,1.0378,1.0291,1.0863,1.1186,1.1352,1.1786,1.1896,1.1825,1.2525,1.275,1.2802,1.3167,1.3579,1.3967,-1.805,-1.8413,-1.8874,-1.9912,-2.0656,-2.1142,-2.1299,-2.0781,-2.0188,-1.9823,-1.9246,-1.8658,-1.8152,-1.8983,-1.9467,-1.9184,-2.0101,-2.0523,-2.0067,-1.9371,-1.8951,-1.8995,-1.7539,-1.6686,-1.6528,-1.4919,-1.3821,-1.3261,-1.2467,-1.1794,-1.1226,-1.1162,-1.0982,-1.0741,-1.0849,-1.0824,-1.0698,-1.0677,-1.0402,-0.9858,-0.923,-0.8903,0.0,0.0,-0.9798,-1.0078,0.0,-1.0918,-1.0618,-1.0779,-1.0774,-1.0754,-1.082,-1.03,-0.9626,-0.9392,-0.8468,-0.7504,-0.7035,-0.6454,0.0,-0.4908,-0.4223,0.0,-0.232,0.0,0.0,0.0,0.0,0.0,0.0,0.2563,0.3382,0.4167,0.4966,0.58,0.0,0.7583,0.0,0.0,0.0,0.9706,0.0,0.0,1.0153,0.9826,0.9897,0.9907,0.0,0.0,0.9887,0.9215,0.9382,0.9417,0.9228,0.9159,0.9323,0.9547,0.9798,0.9895,0.9872,1.0502,1.0773,1.0762,1.1281,1.1534,1.1579,1.2142,1.2255,1.2104,1.2807,1.2966,1.292,1.3438,1.3767,1.3974,-1.8546,-1.8666,-1.893,-2.0173,-2.124,-2.1574,-2.0597,0.0,-2.0292,-1.9538,-1.8835,-1.8251,-1.7909,-1.8608,-1.9087,-1.9087,-1.9947,-2.0283,-1.9812,-1.9158,0.0,0.0,-1.7678,-1.7032,-1.6097,0.0,-1.4601,-1.3524,-1.2636,-1.1868,-1.1141,-1.0903,-1.0602,-1.0309,-1.0514,-1.0604,-1.0579,-1.0733,-1.0616,-1.0248,-0.9194,-0.8751,-0.8717,-0.894,-0.9583,-1.0417,-1.0753,-1.0773,-1.0502,-1.012,-1.0003,-1.0164,-1.0523,-1.0094,-0.946,-0.9108,-0.8621,-0.7902,-0.6926,-0.6532,-0.6133,-0.4993,0.0,0.0,0.0,0.0,-0.1425,0.0,0.0,0.0,0.0,0.0,0.3051,0.3674,0.4491,0.5518,0.695,0.7456,0.7896,0.0,0.0,0.9748,1.0586,1.0361,1.0239,1.0272,1.0089,0.9919,0.0,0.0,1.0073,0.9945,1.0082,1.0156,1.0034,1.0149,1.02,1.0243,1.0379,1.0494,1.0644,1.0788,1.1073,1.1349,1.1709,1.181,1.1793,1.2642,1.2688,1.2324,1.3355,1.331,1.2707,1.3221,1.3808,1.4213,-1.8834,-1.9639,-2.0569,-2.1621,-2.1918,-2.2167,0.0,0.0,0.0,0.0,-1.9028,-1.7968,-1.7235,-1.8231,-1.8865,-1.874,-1.9775,0.0,0.0,0.0,0.0,-1.805,-1.7213,-1.6817,-1.689,-1.5245,-1.4305,-1.4108,-1.2946,-1.2019,-1.1398,-1.1015,-1.0725,-1.0543,-1.04,-1.0356,-1.0372,-1.017,-0.9881,-0.9407,-0.8834,-0.8741,-0.8931,0.0,-0.9395,-1.0021,-1.0647,-1.058,-1.0282,-1.0782,-1.0617,-1.0224,-1.0684,-1.0311,-0.9659,-0.9494,-0.8893,-0.812,-0.7421,-0.6915,-0.6318,-0.5379,-0.4781,-0.4107,0.0,0.0,0.0,0.0,0.0,0.0,0.0,0.0,0.0,0.327,0.4409,0.55,0.6367,0.6752,0.0,0.8131,0.0,0.0,0.958,0.9771,0.9886,1.008,1.0001,1.011,1.0371,0.0,0.0,1.0066,1.0227,1.0255,1.0077,1.002,1.0129,1.0502,1.077,1.0836,1.0795,1.1719,1.1984,1.1728,1.2416,1.255,1.2434,1.3,1.2854,1.2448,1.3271,1.3604,1.3593,1.3341,1.3678,1.4213,-1.9606,-2.071,-2.1812,-2.2583,0.0,0.0,-2.26,-2.1836,0.0,-2.0553,-1.9287,0.0,-1.7594,-1.8183,-1.8554,-1.8401,-1.9419,0.0,-1.9157,0.0,0.0,-1.7843,-1.7137,-1.6742,-1.6592,-1.5175,0.0,-1.3992,-1.2871,-1.1996,-1.139,-1.0929,-1.0639,-1.0476,-1.0235,-1.0157,-1.0168,-0.995,-0.9438,-0.8788,-0.8531,-0.8539,0.0,-0.868,-0.9056,-0.9664,-1.0174,-1.0119,-0.9874,-1.0251,-0.996,-0.9552,-0.9838,-0.9603,-0.9248,-0.9038,-0.8549,-0.7856,-0.7117,-0.6668,-0.614,-0.523,-0.4673,-0.411,-0.3146,-0.2653,-0.2155,0.0,0.0,0.0,0.0,0.0,0.0,0.3373,0.4468,0.5341,0.5721,0.0,0.0,0.0,0.7947,0.0,0.8918,0.9421,0.9819,1.0043,1.0181,1.0301,0.0,0.0,0.0,1.0444,1.0809,1.0918,1.0654,1.0654,1.079,1.1033,1.1263,1.1375,1.1397,1.2149,1.2377,1.2169,1.2704,1.2805,1.2752,1.3136,1.3124,1.2855,1.3254,1.3681,1.3957,1.3562,1.3803,1.4332,-2.0894,-2.1862,-2.274,-2.3067,-2.2815,0.0,0.0,-2.1989,0.0,-2.0611,0.0,-1.8598,-1.8154,-1.8169,-1.8172,-1.8037,-1.897,-1.9371,-1.8891,-1.8614,-1.8132,-1.7368,-1.7084,-1.6566,-1.5846,-1.5127,-1.44,0.0,-1.2788,-1.1935,-1.1176,-1.0825,-1.0507,-1.0228,-1.0038,-0.9886,-0.9856,-0.9734,-0.9221,-0.8425,-0.8368,-0.828,-0.8146,-0.8174,-0.8548,-0.921,-0.9606,-0.9574,-0.9389,-0.9234,-0.8856,-0.8468,-0.8521,-0.8521,-0.8468,-0.8215,-0.7889,-0.745,-0.648,-0.6067,-0.5751,-0.4792,-0.4302,-0.3856,-0.3377,-0.2717,-0.2041,-0.1505,-0.086,-0.0161,0.0,0.0,0.0,0.3621,0.4442,0.0,0.0,0.0,0.0,0.0,0.0,0.0,0.0,0.9221,0.9768,1.0067,1.0316,1.0448,0.0,0.0,0.0,1.0866,1.1402,0.0,1.1304,0.0,1.1567,1.1622,1.1747,1.1934,1.2112,1.2305,1.2436,1.2629,1.2805,1.2867,1.2805,1.318,1.3302,1.3329,1.3412,1.3658,1.3965,1.3727,1.401,1.446,-2.302,-2.3187,-2.3196,-2.2987,-2.2772,-2.2258,-2.1145,-2.0946,-2.0636,-1.9747,-1.9156,-1.8375,-1.7186,-1.7933,-1.829,-1.7726,-1.8668,0.0,0.0,0.0,0.0,-1.6483,-1.5856,-1.5693,-1.6015,-1.4814,-1.4197,0.0,0.0,-1.1937,-1.1285,-1.0923,-1.0534,-1.0127,-1.0063,-0.9621,-0.9028,-0.8964,0.0,-0.8096,-0.7876,-0.7917,-0.8027,-0.787,-0.8117,-0.8705,-0.9022,-0.9069,-0.898,-0.9311,-0.8708,-0.7883,-0.7984,-0.8031,-0.7984,-0.783,-0.7616,-0.7235,-0.6539,-0.6014,-0.5457,-0.4642,-0.4215,-0.3872,-0.3333,-0.2645,-0.1974,-0.1408,-0.0701,0.0,0.0443,0.0,0.0,0.0,0.0,0.0,0.0,0.0,0.0,0.0,0.0,0.7822,0.0,0.0,0.911,0.9403,0.9618,0.9943,0.0,0.0,0.0,0.0,0.0,0.0,0.0,0.0,1.1331,1.1622,1.1894,1.2058,1.2128,1.256,1.2637,1.2621,1.3058,1.3058,1.2805,1.3277,1.3459,1.345,1.3502,1.37,1.4001,1.393,1.4195,1.4446,-2.3876,-2.37,-2.3516,-2.3331,0.0,0.0,0.0,-2.0471,-2.0152,-1.9588,-1.9044,-1.8461,-1.7793,-1.7998,-1.7939,-1.724,-1.7957,-1.8092,-1.7291,-1.7243,-1.6897,-1.6019,-1.572,-1.5566,-1.5547,-1.4489,-1.4013,-1.4107,0.0,0.0,-1.156,-1.0859,-1.037,-1.0043,-0.9885,-0.9273,-0.8511,0.0,0.0,-0.7852,-0.7678,-0.7569,-0.7582,-0.7609,-0.7832,-0.8122,-0.8571,-0.8537,-0.8348,-0.9005,-0.8737,-0.8105,-0.7964,-0.7978,-0.8009,-0.7609,-0.7402,-0.7101,-0.6245,-0.5756,-0.5353,-0.4476,-0.4073,-0.3886,-0.3633,-0.2948,-0.2307,-0.1933,-0.1276,-0.0412,0.0553,0.1437,0.0,0.0,0.0,0.0,0.0,0.0,0.5719,0.0,0.0,0.0,0.0,0.0,0.0,0.0,0.0,0.0,0.0,0.0,0.0,0.0,0.0,0.0,0.0,0.0,0.0,1.1936,1.2131,1.2208,1.2212,1.2428,1.2567,1.2621,1.2989,1.3111,1.3094,1.358,1.37,1.37,1.383,1.401,1.4139,1.4198,1.4387,1.4446,-2.4205,-2.3941,-2.3689,0.0,-2.2375,0.0,-2.0335,-1.9995,-1.9703,-1.9376,-1.8885,-1.8525,-1.8419,-1.8084,-1.7583,-1.6958,-1.7489,-1.7526,-1.6775,-1.692,-1.6686,-1.5883,-1.5695,-1.5439,-1.5006,-1.4371,-1.3913,0.0,0.0,0.0,0.0,-1.0829,-1.0329,0.0,0.0,0.0,0.0,0.0,-0.8256,-0.7466,-0.7396,-0.7265,-0.7138,-0.7265,-0.7461,-0.7666,-0.8057,-0.8009,-0.7797,-0.8476,-0.852,-0.8176,-0.7914,-0.7988,-0.797,-0.7384,-0.7177,-0.6865,-0.5863,-0.5457,-0.5114,-0.431,-0.396,-0.384,-0.3792,-0.3194,-0.2609,-0.236,-0.163,-0.0678,0.0559,0.1379,0.0,0.0,0.0,0.0,0.0,0.0,0.5279,0.0,0.0,0.0,0.7312,0.0,0.0,0.0,0.0,0.0,0.0,0.0,0.0,0.0,0.0,1.2179,1.206,0.0,1.2439,0.0,1.241,1.2443,1.246,1.2523,1.2711,1.2907,1.3067,1.323,1.345,1.3821,1.395,1.383,1.4148,1.4267,1.4267,1.4396,1.4455,1.4455,0.0,-2.4059,0.0,0.0,0.0,0.0,-1.9673,-1.9205,-1.8868,-1.8565,-1.8457,-1.8247,-1.7728,-1.7936,-1.7852,-1.7324,-1.7642,-1.7818,-1.7577,-1.6819,-1.6297,-1.6079,-1.5236,-1.4923,-1.5092,-1.4374,-1.3973,0.0,0.0,0.0,0.0,0.0,0.0,0.0,0.0,0.0,0.0,-0.8102,-0.7583,-0.6806,-0.6942,-0.6946,-0.6946,-0.6806,-0.7003,-0.7269,-0.7335,-0.7456,-0.7767,-0.8021,-0.7793,-0.7429,-0.758,-0.7554,-0.7383,-0.6997,-0.6688,-0.6338,-0.5763,-0.5208,-0.4628,-0.412,-0.3823,-0.3578,-0.3486,-0.2992,-0.2461,-0.204,-0.1058,-0.0108,0.0406,0.0976,0.1607,0.0,0.0,0.0,0.0,0.0,0.5166,0.5862,0.0,0.0,0.0,0.7125,0.0,0.0,0.8635,0.0,0.0,0.0,0.0,1.1898,0.0,1.1833,1.2368,1.2304,0.0,1.2524,1.2861,1.3036,1.3048,1.3365,1.3555,1.3745,1.3605,1.365,1.3769,1.395,1.395,1.383,1.4148,1.4207,1.407,1.4267,1.4396,1.4455,0.0,0.0,0.0,0.0,0.0,0.0,0.0,-1.8916,-1.8448,-1.7791,-1.7701,-1.7622,-1.7366,-1.7467,-1.7323,-1.6664,-1.6807,-1.6699,-1.6074,-1.5933,-1.5642,-1.5153,-1.4953,-1.4805,-1.4632,-1.4255,-1.3926,0.0,0.0,0.0,0.0,0.0,0.0,0.0,0.0,-0.8725,-0.7892,-0.8027,-0.7628,-0.6966,-0.6726,-0.6618,-0.6618,-0.6478,-0.6544,-0.6745,-0.6872,-0.7007,-0.7274,-0.7466,-0.7737,-0.8012,-0.787,-0.7665,-0.7449,-0.7079,-0.6495,-0.5828,-0.5515,-0.4969,-0.4424,-0.3975,-0.3771,-0.3595,-0.3458,-0.31,-0.2706,-0.2184,-0.1314,-0.0541,-0.0113,0.0509,0.1188,0.0,0.0,0.0,0.0,0.0,0.0,0.5335,0.0,0.6218,0.6552,0.0,0.0,0.0,0.0,0.0,0.0,0.0,0.0,1.1735,0.0,1.2356,1.2669,1.2799,1.2906,1.2998,1.3153,1.3215,1.3207,1.3408,1.3555,1.3728,1.3835,1.387,1.3847,1.4328,1.4487,1.4487,1.468,1.4887,1.4988,1.4823,1.4949,1.5212,-2.2399,0.0,-2.1319,0.0,-2.0083,-1.9369,-1.8754,-1.8371,-1.7838,-1.7063,-1.6808,-1.6764,-1.6976,-1.6965,-1.6658,-1.6164,-1.6143,-1.5886,-1.5165,-1.534,-1.5186,-1.4516,-1.4647,0.0,-1.404,-1.3918,-1.3706,-1.3324,-1.2585,0.0,0.0,0.0,0.0,0.0,-0.9087,-0.8592,-0.7812,-0.7824,-0.7539,-0.6937,-0.6352,-0.6152,-0.6148,-0.5947,-0.6017,-0.6152,-0.628,-0.6478,-0.6679,-0.6811,-0.7335,-0.7962,-0.7932,-0.7727,-0.743,-0.6978,-0.6426,-0.58,-0.5311,-0.4742,-0.4196,-0.3849,-0.3685,-0.3543,-0.3313,-0.3166,-0.2857,-0.2194,-0.1513,-0.0817,-0.0447,0.0224,0.09,0.1421,0.0,0.0,0.0,0.3616,0.0,0.4797,0.5318,0.5767,0.6145,0.6586,0.0,0.0,0.0,0.0,0.0,0.0,0.0,0.0,0.0,0.0,0.0,1.32,1.3359,1.3308,1.3536,1.3535,1.3416,1.3616,1.368,1.3697,1.403,1.4003,1.3847,1.4504,1.4745,1.4844,1.5031,1.5267,1.5414,1.5203,1.5276,1.5515,-2.1118,-2.0884,-2.053,-1.9348,-1.8942,-1.8522,-1.774,-1.7268,-1.6852,-1.6431,-1.5875,-1.5819,-1.6509,-1.6285,-1.6114,-1.6104,-1.5979,-1.5796,-1.5593,-1.5323,-1.4991,0.0,0.0,-1.3992,-1.3494,-1.3424,-1.3275,-1.29,0.0,0.0,-1.1403,0.0,-0.976,-0.9539,-0.9003,-0.8355,-0.7785,-0.7453,-0.6983,-0.6394,-0.5814,-0.5617,-0.555,-0.5219,-0.5352,-0.5617,-0.5491,-0.5756,-0.6148,-0.5954,-0.6284,-0.6872,-0.7601,-0.7585,-0.7178,-0.6527,-0.6474,-0.6431,-0.5247,-0.44,-0.3838,-0.3654,-0.3521,-0.3315,-0.3063,-0.3049,-0.2837,-0.1995,-0.1342,-0.0785,-0.028,0.028,0.0851,0.1231,0.0,0.0,0.0,0.0,0.0,0.4284,0.4773,0.5257,0.5599,0.59,0.0,0.0,0.0,0.0,0.0,0.0,0.0,1.1675,1.1873,0.0,1.2889,1.3521,1.3618,1.332,1.4042,1.4143,1.3616,1.4148,1.4193,1.3823,1.4156,1.4127,1.383,1.4148,1.4432,1.4649,1.4969,1.504,1.4916,1.504,1.5102,1.5111,-1.9349,-1.9049,-1.8738,-1.8269,-1.791,-1.7599,-1.7175,-1.6884,-1.6541,-1.6005,-1.5767,-1.5596,-1.5501,-1.5393,-1.5245,0.0,-1.5118,-1.4942,0.0,-1.4478,-1.4297,-1.4003,-1.3799,-1.3502,-1.3102,-1.3077,-1.2642,-1.1855,0.0,0.0,0.0,-0.9695,-0.9241,-0.8784,-0.8556,-0.8138,-0.7526,-0.707,-0.6631,-0.6139,-0.5525,-0.5286,-0.5219,-0.4957,-0.5024,-0.5219,-0.4957,-0.509,-0.5418,-0.5226,-0.5355,-0.5683,-0.5881,-0.6077,-0.6136,-0.5763,-0.5257,-0.4605,-0.4124,-0.3761,-0.3442,-0.33,-0.3386,-0.3397,-0.2963,-0.2586,-0.2205,-0.1893,-0.1346,-0.0785,-0.0393,0.0112,0.0619,0.1081,0.1741,0.0,0.0,0.0,0.3838,0.4278,0.4785,0.5301,0.0,0.6137,0.0,0.0,0.0,0.0,0.0,0.0,0.0,0.0,1.1919,0.0,1.2921,1.3221,1.3484,1.3633,1.373,1.376,1.3725,1.4065,1.4055,1.3823,1.4156,1.4188,1.3967,1.4355,1.4818,1.536,1.5369,1.5551,1.5834,1.5606,1.5689,1.589,-1.8037,-1.7765,-1.7444,-1.7088,-1.678,-1.6504,-1.6061,-1.5991,-1.5756,-1.5308,-1.5121,-1.4968,-1.4597,-1.4354,0.0,-1.4621,-1.4416,-1.4153,-1.3865,-1.3605,-1.3375,-1.3236,-1.2991,-1.2719,-1.2346,0.0,0.0,-1.1037,-1.0906,-1.0377,-0.9392,-0.9254,-0.8823,-0.8067,-0.7988,-0.7685,-0.7135,-0.6493,-0.6108,-0.5851,-0.4999,-0.4691,-0.4691,-0.4492,-0.4492,-0.4556,-0.4292,-0.4425,-0.4691,-0.4492,-0.4558,-0.4691,-0.4691,-0.4672,-0.4729,-0.4921,-0.438,-0.361,-0.3209,-0.3023,-0.2976,-0.2927,-0.3093,-0.3169,-0.2754,-0.2228,-0.1751,-0.1566,-0.1122,-0.0617,-0.0393,0.0113,0.0628,0.0915,0.1643,0.2179,0.2437,0.0,0.0,0.0,0.0,0.0,0.0,0.6094,0.6552,0.0,0.0,0.0,0.0,0.0,0.0,1.1582,1.2159,0.0,1.29,1.3221,1.3432,1.3444,1.332,1.341,1.3713,1.3832,1.384,1.3675,1.3932,1.3987,1.3967,1.4267,1.4872,1.5606,1.546,1.5817,1.6372,1.5863,1.5947,1.6315,-1.7166,-1.6941,0.0,0.0,-1.5739,0.0,-1.4563,-1.4665,-1.4678,-1.4372,-1.4117,-1.3978,-1.3785,-1.3378,-1.3463,-1.4255,0.0,0.0,0.0,-1.2743,-1.2397,-1.221,-1.1977,-1.1722,-1.1449,-1.1206,-1.0812,-1.0443,-1.006,-0.9591,-0.8927,-0.8985,-0.8481,-0.7516,-0.736,-0.6986,-0.6441,-0.5708,-0.538,-0.5399,-0.4384,-0.3961,-0.3961,-0.3825,-0.3758,-0.3758,-0.3563,-0.3696,-0.3894,-0.3758,-0.3825,-0.3894,-0.3894,-0.349,-0.3071,-0.3912,-0.3849,-0.3316,-0.2477,-0.2287,-0.2402,-0.2631,-0.2635,-0.2577,-0.2354,-0.1906,-0.1459,-0.1178,-0.0731,-0.0338,-0.0169,0.0289,0.071,0.0828,0.1516,0.2123,0.2378,0.0,0.0,0.0,0.0,0.0,0.0,0.5907,0.6482,0.0,0.0,0.0,0.0,0.0,1.1065,1.1989,1.2486,1.2775,1.29,1.3514,1.3464,1.2864,1.2853,1.3078,1.3529,1.3515,1.3536,1.3511,1.3511,1.364,1.383,1.395,1.4577,1.5478,1.5311,1.5834,1.6496,1.5817,1.6053,1.6571,0.0,0.0,-1.5296,-1.5143,-1.4846,-1.4498,-1.4049,-1.394,-1.38,-1.3554,-1.3353,-1.3216,-1.3122,-1.2862,-1.2741,-1.2806,-1.2846,-1.2721,-1.2394,-1.2254,-1.2155,-1.2131,-1.1647,-1.1319,-1.123,-1.0708,-1.0143,-0.9549,-0.9062,-0.8521,-0.8089,-0.8137,-0.7575,-0.6697,-0.6763,-0.6401,-0.5557,-0.5099,-0.47,-0.4362,-0.4014,-0.3692,-0.3426,-0.3496,-0.3496,-0.3293,-0.3159,-0.3159,-0.3224,-0.3021,-0.2954,-0.3021,-0.3021,-0.2701,-0.2498,-0.3347,-0.3129,-0.2627,-0.2599,-0.2406,-0.2181,-0.2183,-0.2071,-0.1903,-0.1569,-0.1346,-0.1178,-0.101,-0.0572,-0.0175,0.0116,0.0359,0.0733,0.1223,0.1754,0.2174,0.2513,0.3278,0.0,0.0,0.4532,0.5092,0.555,0.6039,0.6738,0.0,0.0,0.0,0.0,1.0644,1.1071,1.1546,1.2104,1.2587,1.29,1.3462,1.362,1.3204,1.3336,1.33,1.3182,1.3622,1.3802,1.37,1.37,1.383,1.395,1.401,1.4416,1.5042,1.5139,1.5531,1.6113,1.5713,1.6126,1.6751,-1.5275,-1.4911,-1.4426,-1.4057,-1.3807,-1.3439,-1.2785,-1.2771,-1.2713,-1.2315,-1.236,-1.2328,-1.2211,-1.215,-1.1855,-1.1409,-1.1806,-1.1957,-1.168,-1.149,-1.1335,-1.1274,-1.0713,-1.0402,-1.0288,-0.976,-0.9311,-0.8861,-0.825,-0.7868,-0.7557,-0.7399,-0.6927,-0.6094,-0.6096,-0.5732,-0.5147,-0.4463,-0.4077,-0.3837,-0.3461,-0.309,-0.2825,-0.3025,-0.2891,-0.2622,-0.2622,-0.2555,-0.2487,-0.2285,-0.2217,-0.2217,-0.2217,-0.1862,-0.1633,-0.2279,-0.2151,-0.1916,-0.1942,-0.1815,-0.1639,-0.1524,-0.1407,-0.1167,-0.0748,-0.0696,-0.0643,-0.0518,-0.0177,0.0181,0.0301,0.0624,0.1024,0.1452,0.1957,0.24,0.2765,0.3341,0.0,0.4181,0.4607,0.5095,0.57,0.618,0.6852,0.7705,0.0,0.0,1.012,1.0517,1.1042,1.1739,1.222,1.2655,1.2886,1.3091,1.3201,1.3132,1.3294,1.334,1.3306,1.3933,1.4153,1.4031,1.4031,1.4057,1.4139,1.4139,1.4601,1.5286,1.529,1.5888,1.6656,1.6233,1.6603,1.7159,-1.4129,-1.3985,-1.3606,-1.2899,-1.2718,-1.2356,-1.1414,-1.1507,-1.1573,-1.1087,-1.123,-1.1292,-1.118,-1.1105,-1.0738,-1.0067,-1.0601,-1.0984,-1.0984,-1.0633,-1.0325,-1.0187,-0.9688,-0.9347,-0.9165,-0.8703,-0.8322,-0.8174,-0.7557,-0.7176,-0.7026,-0.6788,-0.6318,-0.5495,-0.5234,-0.4948,-0.4616,-0.3787,-0.3421,-0.342,-0.2867,-0.2509,-0.2316,-0.2506,-0.2232,-0.1828,-0.1963,-0.1896,-0.1761,-0.1557,-0.1489,-0.142,-0.1414,-0.1076,-0.0736,-0.1044,-0.1146,-0.1122,-0.1112,-0.1047,-0.0986,-0.0864,-0.0741,-0.0552,-0.006,-0.0061,-0.0123,0.0,0.0304,0.0498,0.0438,0.098,0.1477,0.1639,0.2113,0.2646,0.2969,0.0,0.3888,0.4372,0.4663,0.5142,0.5973,0.6356,0.6915,0.7798,0.8413,0.8998,0.0,1.0181,1.0953,1.1945,1.2421,1.2756,1.2998,1.2735,1.2699,1.3055,1.3074,1.3316,1.365,1.4306,1.4474,1.4282,1.4221,1.4206,1.4207,1.4267,1.4753,1.556,1.5595,1.6315,1.7349,1.6902,1.7135,1.7716,-1.3339,-1.2966,-1.2505,-1.2164,-1.197,-1.1675,-1.1003,-1.0724,-1.0554,-1.0358,-1.0092,-0.9922,-1.0121,-0.9685,-0.9301,-0.9226,-0.9034,-0.9165,-0.9788,-0.99,-0.99,-0.9712,-0.911,-0.8746,-0.8556,-0.7633,-0.7169,-0.7169,-0.663,-0.6321,-0.6096,-0.5935,-0.5399,-0.4675,-0.4433,-0.3958,-0.3309,-0.3,-0.272,-0.2452,-0.2303,-0.2119,-0.1797,-0.1827,-0.1671,-0.1463,-0.1323,-0.1254,-0.1183,-0.0975,-0.0835,-0.0693,-0.0677,-0.0403,-0.0134,-0.0201,-0.0067,-0.0132,-0.0751,-0.0864,-0.0741,-0.0556,-0.0432,-0.037,0.0,0.0,0.0,0.0184,0.0502,0.084,0.0992,0.1227,0.153,0.1871,0.2273,0.2704,0.2978,0.0,0.4268,0.4572,0.504,0.5593,0.6095,0.6631,0.7229,0.7975,0.8646,0.9211,0.9857,1.0271,1.0836,1.1496,1.2094,1.2715,1.3423,1.3142,1.2994,1.3107,1.3292,1.3443,1.3642,1.4026,1.4216,1.4264,1.3803,1.3692,1.389,1.401,1.4337,1.4854,1.5359,1.6145,1.6959,1.6796,1.721,1.7881,-1.2526,-1.2224,-1.1855,-1.1409,-1.1186,-1.0887,-1.0218,-0.9974,-0.9718,-0.9448,-0.922,-0.9125,-0.9226,-0.8932,-0.8623,-0.8394,-0.8084,-0.8008,-0.8165,-0.8618,-0.8851,-0.8784,-0.8241,-0.7629,-0.7096,-0.6475,-0.6167,-0.6167,-0.5777,-0.5467,-0.5392,-0.5082,-0.4745,-0.4236,-0.3878,-0.3434,-0.2992,-0.2665,-0.2292,-0.1934,-0.1791,-0.1515,-0.1238,-0.1366,-0.1217,-0.093,-0.0787,-0.0716,-0.0571,-0.0141,-0.007,-0.007,0.0069,0.0272,0.0404,0.0342,0.0341,0.0268,-0.0065,-0.0259,-0.0259,0.0,0.0,0.0065,0.0381,0.0448,0.0452,0.0635,0.0983,0.1356,0.1441,0.1778,0.2109,0.2511,0.278,0.0,0.0,0.3937,0.4464,0.4784,0.5105,0.5613,0.639,0.6892,0.7433,0.8226,0.8798,0.936,0.9841,1.0368,1.0887,1.1409,1.2325,1.2963,1.3215,1.3163,1.3053,1.2956,1.326,1.3451,1.365,1.4179,1.4362,1.4273,1.4162,1.4144,1.4198,1.4258,1.461,1.5215,1.5666,1.6383,1.7235,1.7216,1.7532,1.7978,-1.1706,-1.1484,-1.1111,-1.0588,-1.0368,-1.0067,-0.9468,-0.917,-0.8861,-0.8551,-0.8399,-0.8322,-0.8322,-0.8097,-0.7787,-0.7476,-0.7173,-0.6865,-0.663,-0.7084,-0.7472,-0.7718,-0.7169,-0.6472,-0.5705,-0.547,-0.5312,-0.5312,-0.4927,-0.4693,-0.4693,-0.4304,-0.3995,-0.3763,-0.3233,-0.2892,-0.2722,-0.2227,-0.184,-0.1545,-0.1251,-0.0959,-0.0593,-0.0737,-0.0515,-0.0147,-0.0147,0.0,0.022,0.0647,0.0713,0.0641,0.0779,0.0976,0.1101,0.0913,0.0767,0.0549,0.0613,0.0406,0.0337,0.0606,0.0539,0.0536,0.0917,0.0929,0.0939,0.119,0.1566,0.1829,0.1924,0.2285,0.2706,0.295,0.0,0.0,0.0,0.42,0.4629,0.5074,0.5322,0.5804,0.6777,0.7229,0.7758,0.8453,0.907,0.9549,0.9922,1.0513,1.1111,1.1632,1.2633,1.3122,1.2969,1.3055,1.2977,1.2774,1.3139,1.3433,1.3713,1.4179,1.4362,1.4282,1.4391,1.4425,1.4387,1.4446,1.4912,1.5689,1.59,1.66,1.7461,1.7647,1.7784,1.794,-1.0588,-1.0293,-0.9992,-0.9695,-0.9549,-0.9246,-0.8856,-0.8403,-0.8097,-0.7859,-0.7561,-0.7334,-0.7334,-0.6799,-0.6409,-0.6318,-0.5783,-0.555,-0.5699,-0.5389,-0.5702,-0.6637,-0.6089,-0.5544,-0.5082,-0.4693,-0.4462,-0.4462,-0.4073,-0.3919,-0.3841,-0.3446,-0.3056,-0.2902,-0.2427,-0.2164,-0.1894,-0.1437,-0.1284,-0.1209,-0.0604,-0.023,-0.0078,0.0152,0.0453,0.083,0.083,0.0981,0.1208,0.1206,0.1429,0.1647,0.1464,0.1813,0.2173,0.1816,0.1598,0.1298,0.0985,0.096,0.1008,0.1076,0.0941,0.0873,0.1409,0.1276,0.1218,0.1804,0.2097,0.2349,0.2686,0.2868,0.2949,0.302,0.0,0.0,0.39,0.4441,0.4995,0.5483,0.5907,0.6431,0.7195,0.7726,0.8245,0.8647,0.9377,0.9846,0.9922,1.0663,1.1484,1.2452,1.2973,1.3049,1.2841,1.3154,1.3068,1.2599,1.2899,1.3327,1.3895,1.3689,1.3838,1.4264,1.397,1.3916,1.407,1.4267,1.4789,1.556,1.59,1.6524,1.7235,1.7569,1.7706,1.7774,-0.9997,-0.9695,-0.9392,-0.9084,-0.8784,-0.8479,-0.8165,-0.7791,-0.7411,-0.7099,-0.6945,-0.6718,-0.6405,-0.6096,-0.5783,-0.5628,-0.5243,-0.4932,-0.5007,-0.4774,-0.4771,-0.524,-0.5004,-0.4616,-0.407,-0.3915,-0.3761,-0.3606,-0.3294,-0.3217,-0.3374,-0.2823,-0.2588,-0.2589,-0.2041,-0.172,-0.1473,-0.1162,-0.0775,-0.0465,-0.0232,0.0078,0.0392,0.0622,0.0775,0.093,0.124,0.1396,0.1546,0.1902,0.2042,0.2113,0.2319,0.2584,0.2775,0.2969,0.2875,0.2769,0.2492,0.1995,0.1518,0.1657,0.1635,0.169,0.1787,0.1864,0.1947,0.2356,0.2619,0.2885,0.3315,0.3446,0.3557,0.3863,0.0,0.4399,0.4433,0.5032,0.5445,0.5521,0.6018,0.6554,0.7266,0.7659,0.8187,0.8832,0.9392,0.9846,1.0218,1.126,1.2071,1.2548,1.31,1.3171,1.2792,1.3142,1.3203,1.3116,1.317,1.3578,1.4177,1.3987,1.4147,1.453,1.4101,1.4091,1.4365,1.4186,1.4513,1.516,1.5533,1.6169,1.6899,1.7357,1.7647,1.7706,-0.9344,-0.9029,-0.8746,-0.8485,-0.8022,-0.7658,-0.7631,-0.713,-0.6718,-0.6409,-0.6251,-0.6018,-0.5628,-0.5392,-0.516,-0.5007,-0.454,-0.4309,-0.4387,-0.4153,-0.4073,-0.4229,-0.4151,-0.3837,-0.3292,-0.3136,-0.2979,-0.2826,-0.2591,-0.2591,-0.2749,-0.2198,-0.1961,-0.2119,-0.1571,-0.1178,-0.0943,-0.0707,-0.0314,0.0236,0.0314,0.0628,0.1021,0.1266,0.1429,0.1588,0.1906,0.2075,0.2237,0.2551,0.2691,0.2781,0.3144,0.3253,0.3367,0.3802,0.3776,0.3664,0.3726,0.3113,0.2506,0.2416,0.2448,0.2565,0.2542,0.2555,0.2716,0.3006,0.3213,0.341,0.3893,0.4106,0.4307,0.4618,0.4851,0.5043,0.515,0.5606,0.5891,0.5876,0.6308,0.6823,0.7482,0.7927,0.8476,0.9221,0.9695,1.0293,1.0962,1.1855,1.243,1.2592,1.3158,1.3345,1.3016,1.3307,1.3433,1.3477,1.3583,1.3965,1.4518,1.4457,1.4603,1.4941,1.4604,1.4657,1.4899,1.4674,1.4862,1.5378,1.5651,1.6138,1.6735,1.7288,1.7529,1.7657,-0.8598,-0.8124,-0.7827,-0.7865,-0.7319,-0.6924,-0.7088,-0.6424,-0.5864,-0.586,-0.5553,-0.524,-0.5004,-0.4616,-0.4384,-0.4384,-0.3759,-0.3526,-0.3763,-0.3374,-0.3295,-0.3763,-0.3526,-0.3214,-0.2826,-0.2431,-0.2196,-0.2196,-0.1963,-0.1887,-0.1887,-0.1493,-0.1257,-0.1257,-0.0786,-0.0471,-0.0314,-0.0079,0.0236,0.0628,0.11,0.157,0.1965,0.2174,0.2601,0.301,0.301,0.3217,0.342,0.3423,0.3663,0.3885,0.3793,0.3841,0.3919,0.4307,0.4153,0.3919,0.4307,0.4382,0.4126,0.3511,0.3342,0.3344,0.3564,0.3419,0.3443,0.3911,0.3776,0.3875,0.46,0.4854,0.5085,0.5246,0.5473,0.5733,0.5976,0.6051,0.6253,0.6631,0.689,0.7306,0.8061,0.863,0.9216,0.9825,1.0438,1.1186,1.1929,1.2224,1.2526,1.29,1.3273,1.3535,1.3534,1.3708,1.3735,1.3631,1.4131,1.4535,1.4715,1.505,1.5319,1.5504,1.5495,1.556,1.5689,1.5689,1.5936,1.6312,1.6321,1.656,1.6968,1.7323,1.747,1.7539,-0.7889,-0.769,-0.7407,-0.7256,-0.6699,-0.6215,-0.6157,-0.5713,-0.526,-0.5098,-0.4851,-0.454,-0.4229,-0.3917,-0.3682,-0.353,-0.3137,-0.2981,-0.2902,-0.2982,-0.2904,-0.2508,-0.2666,-0.2589,-0.22,-0.1885,-0.1806,-0.1806,-0.1414,-0.1257,-0.1493,-0.1021,-0.0786,-0.0786,-0.0393,0.0,0.0314,0.055,0.0864,0.1335,0.1569,0.1901,0.2254,0.2675,0.2956,0.3328,0.3496,0.3675,0.3926,0.3972,0.4157,0.4305,0.4688,0.492,0.509,0.5168,0.5168,0.509,0.5246,0.5217,0.5005,0.4204,0.4049,0.4087,0.4087,0.4239,0.4378,0.4488,0.4693,0.5028,0.5462,0.5687,0.5912,0.6481,0.6474,0.6588,0.6889,0.688,0.7001,0.7306,0.7449,0.7845,0.8625,0.8872,0.9341,1.0034,1.0812,1.1403,1.1939,1.241,1.2893,1.3404,1.3768,1.408,1.448,1.4003,1.3968,1.4372,1.4375,1.4849,1.5704,1.5519,1.5604,1.5892,1.5608,1.5528,1.557,1.5426,1.5512,1.5769,1.6069,1.6327,1.6532,1.722,1.747,1.7539,-0.7407,-0.7028,-0.6736,-0.6681,-0.5933,-0.5441,-0.5579,-0.5002,-0.46,-0.4535,-0.4173,-0.3837,-0.3684,-0.3399,-0.3091,-0.2986,-0.2746,-0.2451,-0.2336,-0.2538,-0.2366,-0.183,-0.1814,-0.1727,-0.1493,-0.1335,-0.1178,-0.11,-0.0786,-0.0707,-0.0786,-0.0314,-0.0157,-0.0079,0.0314,0.0707,0.1021,0.1178,0.157,0.1964,0.222,0.2487,0.2767,0.3152,0.3535,0.3742,0.4,0.4276,0.4455,0.4651,0.4894,0.5103,0.5445,0.5693,0.5943,0.589,0.5874,0.5937,0.5879,0.5986,0.593,0.5452,0.5106,0.4911,0.5076,0.5218,0.5413,0.5542,0.5755,0.6086,0.641,0.6719,0.7116,0.7522,0.7465,0.7398,0.7676,0.7677,0.7768,0.8001,0.8236,0.8614,0.9322,0.9523,0.9902,1.0714,1.1409,1.1903,1.2364,1.2984,1.351,1.3925,1.4251,1.4579,1.4927,1.4466,1.4417,1.4791,1.4846,1.5297,1.6087,1.5913,1.606,1.6385,1.6107,1.5968,1.6056,1.595,1.5909,1.606,1.6315,1.6483,1.6578,1.7161,1.7461,1.7539,-0.697,-0.6408,-0.589,-0.5954,-0.5201,-0.4674,-0.5016,-0.436,-0.3918,-0.4068,-0.3514,-0.3153,-0.339,-0.2896,-0.2586,-0.2682,-0.2357,-0.2079,-0.1922,-0.1856,-0.1751,-0.1465,-0.1038,-0.079,-0.0788,-0.0629,-0.0393,-0.0236,-0.0158,-0.0079,0.0158,0.0473,0.0709,0.0709,0.118,0.1492,0.1729,0.1883,0.2199,0.2602,0.2983,0.3177,0.3446,0.385,0.4086,0.4348,0.4524,0.4842,0.5159,0.5389,0.5805,0.6204,0.6216,0.6376,0.6503,0.6377,0.6418,0.6541,0.6397,0.6627,0.6907,0.6921,0.6407,0.5972,0.6384,0.6358,0.639,0.6761,0.6795,0.6881,0.7375,0.7982,0.8417,0.8556,0.8303,0.8255,0.8489,0.8461,0.8572,0.8793,0.9139,0.9499,0.9969,1.0387,1.0974,1.1738,1.2116,1.2621,1.3154,1.3715,1.4227,1.4584,1.482,1.495,1.495,1.4953,1.4927,1.4896,1.53,1.5735,1.6131,1.6228,1.6482,1.6839,1.6682,1.6751,1.6908,1.6908,1.6908,1.6908,1.6908,1.6908,1.6899,1.7097,1.7314,1.7539,-0.631,-0.586,-0.5489,-0.527,-0.4796,-0.4312,-0.4088,-0.3791,-0.3574,-0.351,-0.324,-0.2984,-0.2817,-0.2497,-0.2316,-0.2101,-0.1984,-0.167,-0.0982,-0.1379,-0.1375,-0.0651,-0.0494,-0.0165,0.0323,0.0159,0.0238,0.0485,0.0646,0.0815,0.1076,0.1139,0.1371,0.1692,0.174,0.204,0.2512,0.2589,0.2774,0.3144,0.3568,0.3816,0.4024,0.4499,0.491,0.5156,0.5331,0.5612,0.5897,0.637,0.6636,0.6881,0.7007,0.7129,0.7191,0.7159,0.7148,0.7222,0.743,0.7527,0.7671,0.7887,0.7789,0.7434,0.7012,0.7181,0.7304,0.7047,0.7466,0.7857,0.8082,0.852,0.9057,0.9556,0.9169,0.9022,0.9595,0.9213,0.9085,0.9541,0.9611,0.9789,1.0564,1.1081,1.1721,1.248,1.2804,1.3314,1.4164,1.4333,1.4602,1.5227,1.4979,1.5016,1.5388,1.5041,1.4999,1.5141,1.5409,1.57,1.6079,1.6211,1.6351,1.6421,1.6691,1.676,1.6682,1.6682,1.6682,1.6682,1.6682,1.6682,1.6682,1.7097,1.7314,1.7539,-0.5612,-0.5099,-0.4565,-0.4389,-0.3941,-0.357,-0.3356,-0.3059,-0.2768,-0.2736,-0.2454,-0.2186,-0.2102,-0.1867,-0.1615,-0.1512,-0.1303,-0.0973,-0.0503,-0.0665,-0.0581,-0.0168,0.0168,0.0502,0.0909,0.1143,0.1225,0.1157,0.1322,0.1497,0.1849,0.1889,0.2113,0.2518,0.2645,0.2852,0.3062,0.3296,0.357,0.3818,0.4074,0.4337,0.4604,0.5003,0.532,0.5547,0.5811,0.6169,0.6612,0.6877,0.7215,0.7525,0.7696,0.7834,0.8005,0.8006,0.8062,0.8213,0.8214,0.833,0.8422,0.8603,0.8704,0.8696,0.8106,0.811,0.8199,0.8272,0.8582,0.8948,0.9203,0.9447,0.9777,1.0299,0.9853,0.9663,1.0075,0.9829,0.976,1.0143,1.033,1.0672,1.1316,1.1902,1.2428,1.2891,1.3348,1.3888,1.4435,1.4825,1.5162,1.5397,1.5447,1.5482,1.5536,1.5322,1.5213,1.5346,1.5488,1.5771,1.6202,1.6202,1.6342,1.6621,1.6691,1.6751,1.6751,1.6751,1.6751,1.6751,1.6751,1.6751,1.676,1.6968,1.7245,1.7539,-0.4816,-0.4295,-0.376,-0.3496,-0.3138,-0.2778,-0.2689,-0.2296,-0.201,-0.201,-0.1547,-0.136,-0.153,-0.112,-0.0869,-0.0869,-0.0503,-0.025,-0.0174,0.0086,0.0171,0.0174,0.0856,0.1272,0.1352,0.2037,0.2207,0.186,0.1944,0.2202,0.2636,0.2744,0.2873,0.319,0.3515,0.3628,0.3559,0.4047,0.4248,0.4362,0.4617,0.487,0.507,0.5424,0.5636,0.5897,0.6169,0.67,0.7316,0.7316,0.7672,0.812,0.8288,0.8464,0.8694,0.8803,0.8926,0.9061,0.8984,0.9056,0.9266,0.9266,0.9565,0.9699,0.9301,0.907,0.9145,0.9566,0.9777,0.9951,1.0294,1.0381,1.0554,1.0814,1.0444,1.0238,1.0476,1.0373,1.0368,1.0588,1.1228,1.1702,1.2081,1.2721,1.3153,1.3362,1.3995,1.4459,1.4616,1.5325,1.5651,1.5482,1.5851,1.5902,1.561,1.5538,1.5505,1.5576,1.5644,1.5919,1.6272,1.6202,1.6412,1.6839,1.6754,1.6851,1.7009,1.7012,1.704,1.704,1.704,1.704,1.704,1.711,1.7399,1.7729,-0.4026,-0.3671,-0.3226,-0.3047,-0.278,-0.2423,-0.1973,-0.1879,-0.1787,-0.1519,-0.1247,-0.1156,-0.1156,-0.0702,-0.0348,-0.0174,0.0,0.017,0.0522,0.0607,0.078,0.0955,0.1411,0.1853,0.2338,0.2468,0.2559,0.2683,0.2853,0.3141,0.3466,0.3393,0.358,0.3851,0.4018,0.4049,0.4133,0.4488,0.4578,0.4558,0.5193,0.5523,0.5612,0.6071,0.6251,0.6343,0.6786,0.7404,0.8025,0.8025,0.8376,0.8736,0.8823,0.8999,0.9253,0.9396,0.9474,0.9643,0.9957,1.0139,1.0163,1.0423,1.0534,1.0604,1.0721,1.0411,1.0086,0.9946,1.0391,1.0651,1.0554,1.0906,1.1257,1.1505,1.1106,1.0875,1.1123,1.0916,1.0812,1.0962,1.1847,1.2451,1.2685,1.3488,1.4095,1.4387,1.4845,1.5268,1.5435,1.5835,1.5971,1.5944,1.5996,1.5986,1.6003,1.569,1.5576,1.5805,1.6275,1.6393,1.6132,1.6202,1.6412,1.67,1.7186,1.7413,1.744,1.7569,1.7649,1.7649,1.7649,1.7649,1.7714,1.8091,1.8311,1.8547,-0.3314,-0.2957,-0.2601,-0.2332,-0.2063,-0.1794,-0.1615,-0.1345,-0.1166,-0.0987,-0.0718,-0.0538,-0.0718,-0.0352,0.0,0.0348,0.069,0.086,0.1043,0.1406,0.1593,0.1681,0.2053,0.2323,0.2741,0.2946,0.3215,0.3451,0.3271,0.3375,0.3765,0.3858,0.4058,0.4278,0.4619,0.473,0.4724,0.4979,0.5129,0.5292,0.5531,0.5852,0.6163,0.6609,0.6786,0.6884,0.742,0.793,0.8212,0.8488,0.8792,0.9148,0.9335,0.9674,1.0007,1.0164,1.0219,1.0396,1.0656,1.0649,1.0584,1.0978,1.0999,1.1137,1.1379,1.1441,1.1361,1.1009,1.1081,1.1165,1.1338,1.1521,1.1774,1.202,1.1634,1.1438,1.1784,1.1642,1.1642,1.2171,1.2674,1.3064,1.3388,1.4052,1.4532,1.4831,1.5257,1.5612,1.5759,1.623,1.6332,1.6021,1.6226,1.6288,1.6085,1.6127,1.618,1.6334,1.6879,1.694,1.6589,1.6982,1.7288,1.7442,1.7697,1.7844,1.7862,1.7897,1.7961,1.7961,1.7961,1.7961,1.8035,1.8258,1.8403,1.8351]},{"header":{"parameterUnit":"m.s-1","parameterCategory":1,"la1":30.6,"la2":28.766,"lo1":-90.7593,"lo2":-88.6598,"dy":0.0162,"dx":0.0183,"nx":116,"ny":114,"refTime":"2023-09-22T00:00:00:Z","depth":0,"parameterNumber":3,"parameterNumberName":"V-component_of_WINDS"},"data":[0.0,0.0,0.0,0.0,0.0,0.0,0.0,0.0,0.0,0.0,0.0,0.0,0.0,0.0,0.0,0.0,0.0,0.0,0.0,0.0,0.0,0.0,0.0,0.0,0.0,0.0,0.0,0.0,0.0,0.0,0.0,0.0,0.0,0.0,0.0,0.0,0.0,0.0,0.0,0.0,0.0,0.0,0.0,0.0,0.0,0.0,0.0,0.0,0.0,0.0,0.0,0.0,0.0,0.0,0.0,0.0,0.0,0.0,0.0,0.0,0.0,0.0,0.0,0.0,0.0,0.0,0.0,0.0,0.0,0.0,0.0,0.0,0.0,0.0,0.0,0.0,0.0,0.0,0.0,0.0,0.0,0.0,0.0,0.0,0.0,0.0,0.0,0.0,0.0,0.0,0.0,0.0,0.0,0.0,0.0,0.0,0.0,0.0,0.0,0.0,0.0,0.0,0.0,0.0,0.0,0.0,0.0,0.0,0.0,0.0,0.0,0.0,0.0,0.0,0.0,0.0,0.0,0.0,0.0,0.0,0.0,0.0,0.0,0.0,0.0,0.0,0.0,0.0,0.0,0.0,0.0,0.0,0.0,0.0,0.0,0.0,0.0,0.0,0.0,0.0,0.0,0.0,0.0,0.0,0.0,0.0,0.0,0.0,0.0,0.0,0.0,0.0,0.0,0.0,0.0,0.0,0.0,0.0,0.0,0.0,0.0,0.0,0.0,0.0,0.0,0.0,0.0,0.0,0.0,0.0,0.0,0.0,0.0,0.0,0.0,0.0,0.0,0.0,0.0,0.0,0.0,0.0,0.0,0.0,0.0,0.0,0.0,0.0,0.0,0.0,0.0,0.0,0.0,0.0,0.0,0.0,0.0,0.0,0.0,0.0,0.0,0.0,0.0,0.0,0.0,0.0,0.0,0.0,0.0,0.0,0.0,0.0,0.0,0.0,0.0,0.0,0.0,0.0,0.0,0.0,0.0,0.0,0.0,0.0,0.0,0.0,0.0,0.0,0.0,0.0,0.0,0.0,0.0,0.0,0.0,0.0,0.0,0.0,0.0,0.0,0.0,0.0,0.0,0.0,0.0,0.0,0.0,0.0,0.0,0.0,0.0,0.0,0.0,0.0,0.0,0.0,0.0,0.0,0.0,0.0,0.0,0.0,0.0,0.0,0.0,0.0,0.0,0.0,0.0,0.0,0.0,0.0,0.0,0.0,0.0,0.0,0.0,0.0,0.0,0.0,0.0,0.0,0.0,0.0,0.0,0.0,0.0,0.0,0.0,0.0,0.0,0.0,0.0,0.0,0.0,0.0,0.0,0.0,0.0,0.0,0.0,0.0,0.0,0.0,0.0,0.0,0.0,0.0,0.0,0.0,0.0,0.0,0.0,0.0,0.0,0.0,0.0,0.0,0.0,0.0,0.0,0.0,0.0,0.0,0.0,0.0,0.0,0.0,0.0,0.0,0.0,0.0,0.0,0.0,0.0,0.0,0.0,0.0,0.0,0.0,0.0,0.0,0.0,0.0,0.0,0.0,0.0,0.0,0.0,0.0,0.0,0.0,0.0,0.0,0.0,0.0,0.0,0.0,0.0,0.0,0.0,0.0,0.0,0.0,0.0,0.0,0.0,0.0,0.0,0.0,0.0,0.0,0.0,0.0,0.0,0.0,0.0,0.0,0.0,0.0,0.0,0.0,0.0,0.0,0.0,0.0,0.0,0.0,0.0,0.0,0.0,0.0,0.0,0.0,0.0,0.0,0.0,0.0,0.0,0.0,0.0,0.0,0.0,0.0,0.0,0.0,0.0,0.0,0.0,0.0,0.0,0.0,0.0,0.0,0.0,0.0,0.0,0.0,0.0,0.0,0.0,0.0,0.0,0.0,0.0,0.0,0.0,0.0,0.0,0.0,0.0,0.0,0.0,0.0,0.0,0.0,0.0,0.0,0.0,0.0,0.0,0.0,0.0,0.0,0.0,0.0,0.0,0.0,0.0,0.0,0.0,0.0,0.0,0.0,0.0,0.0,0.0,0.0,0.0,0.0,0.0,0.0,0.0,0.0,0.0,0.0,0.0,0.0,0.0,0.0,0.0,0.0,0.0,0.0,0.0,0.0,0.0,0.0,0.0,0.0,0.0,0.0,0.0,0.0,0.0,0.0,0.0,0.0,0.0,0.0,0.0,0.0,0.0,0.0,0.0,0.0,0.0,0.0,0.0,0.0,0.0,0.0,0.0,0.0,0.0,0.0,0.0,0.0,0.0,0.0,0.0,0.0,0.0,0.0,0.0,0.0,0.0,0.0,0.0,0.0,0.0,0.0,0.0,0.0,0.0,0.0,0.0,0.0,0.0,0.0,0.0,0.0,0.0,0.0,0.0,0.0,0.0,0.0,0.0,0.0,0.0,0.0,0.0,0.0,0.0,0.0,0.0,0.0,0.0,0.0,0.0,0.0,0.0,0.0,0.0,0.0,0.0,0.0,0.0,0.0,0.0,0.0,0.0,0.0,0.0,0.0,0.0,0.0,0.0,0.0,0.0,0.0,0.0,0.0,0.0,0.0,0.0,0.0,0.0,0.0,0.0,0.0,0.0,0.0,0.0,0.0,0.0,0.0,0.0,0.0,0.0,0.0,0.0,0.0,0.0,0.0,0.0,0.0,0.0,0.0,0.0,0.0,0.0,0.0,0.0,0.0,0.0,0.0,0.0,0.0,0.0,0.0,0.0,0.0,0.0,0.0,0.0,0.0,0.0,0.0,0.0,0.0,0.0,0.0,0.0,0.0,0.0,0.0,0.0,0.0,0.0,0.0,0.0,0.0,0.0,0.0,0.0,0.0,0.0,0.0,0.0,0.0,0.0,0.0,0.0,0.0,0.0,0.0,0.0,0.0,0.0,0.0,0.0,0.0,0.0,0.0,0.0,0.0,0.0,0.0,0.0,0.0,0.0,0.0,0.0,0.0,0.0,0.0,0.0,0.0,0.0,0.0,0.0,0.0,0.0,0.0,0.0,0.0,0.0,0.0,0.0,0.0,0.0,0.0,0.0,0.0,0.0,0.0,0.0,0.0,0.0,0.0,0.0,0.0,0.0,0.0,0.0,0.0,0.0,0.0,0.0,0.0,0.0,0.0,0.0,0.0,0.0,0.0,0.0,0.0,0.0,0.0,0.0,0.0,0.0,0.0,0.0,0.0,0.0,0.0,0.0,0.0,0.0,0.0,0.0,0.0,0.0,0.0,0.0,0.0,0.0,0.0,0.0,0.0,0.0,0.0,0.0,0.0,0.0,0.0,0.0,0.0,0.0,0.0,0.0,0.0,0.0,0.0,0.0,0.0,0.0,0.0,0.0,0.0,0.0,0.0,0.0,0.0,0.0,0.0,0.0,0.0,0.0,0.0,0.0,0.0,0.0,0.0,0.0,0.0,0.0,0.0,0.0,0.0,0.0,0.0,0.0,0.0,0.0,0.0,0.0,0.0,0.0,0.0,0.0,0.0,0.0,0.0,0.0,0.0,0.0,0.0,0.0,0.0,0.0,0.0,0.0,0.0,0.0,0.0,0.0,0.0,0.0,0.0,0.0,0.0,0.0,0.0,0.0,0.0,0.0,0.0,0.0,0.0,0.0,0.0,0.0,0.0,0.0,0.0,0.0,0.0,0.0,0.0,0.0,0.0,0.0,0.0,0.0,0.0,0.0,0.0,0.0,0.0,0.0,0.0,0.0,0.0,0.0,0.0,0.0,0.0,0.0,0.0,0.0,0.0,0.0,0.0,0.0,0.0,0.0,0.0,0.0,0.0,0.0,0.0,0.0,0.0,0.0,0.0,0.0,0.0,0.0,0.0,0.0,0.0,0.0,0.0,0.0,0.0,0.0,0.0,0.0,0.0,0.0,0.0,0.0,0.0,0.0,0.0,0.0,0.0,0.0,0.0,0.0,0.0,0.0,0.0,0.0,0.0,0.0,0.0,0.0,0.0,0.0,0.0,0.0,0.0,0.0,0.0,0.0,0.0,0.0,0.0,0.0,0.0,0.0,0.0,0.0,0.0,0.0,0.0,0.0,0.0,0.0,0.0,0.0,0.0,0.0,0.0,0.0,0.0,0.0,0.0,0.0,0.0,0.0,0.0,0.0,0.0,0.0,0.0,0.0,0.0,0.0,0.0,0.0,0.0,0.0,0.0,0.0,0.0,0.0,0.0,0.0,0.0,0.0,0.0,0.0,0.0,0.0,0.0,0.0,0.0,0.0,0.0,0.0,0.0,0.0,0.0,0.0,0.0,0.0,0.0,0.0,0.0,0.0,0.0,0.0,0.0,0.0,0.0,0.0,0.0,0.0,0.0,0.0,0.0,0.0,0.0,0.0,0.0,0.0,0.0,0.0,0.0,0.0,0.0,0.0,0.0,0.0,0.0,0.0,0.0,0.0,0.0,0.0,0.0,0.0,0.0,0.0,0.0,0.0,0.0,0.0,0.0,0.0,0.0,0.0,0.0,0.0,0.0,0.0,0.0,0.0,0.0,0.0,0.0,0.0,0.0,0.0,0.0,0.0,0.0,0.0,0.0,0.0,0.0,0.0,0.0,0.0,0.0,0.0,0.0,0.0,0.0,0.0,0.0,0.0,0.0,0.0,0.0,0.0,0.0,0.0,0.0,0.0,0.0,0.0,0.0,0.0,0.0,0.0,0.0,0.0,0.0,0.0,0.0,0.0,0.0,0.0,0.0,0.0,0.0,0.0,0.0,0.0,0.0,0.0,0.0,0.0,0.0,0.0,0.0,0.0,0.0,0.0,0.0,0.0,0.0,0.0,0.0,0.0,0.0,0.0,0.0,0.0,0.0,0.0,0.0,0.0,0.0,0.0,0.0,0.0,0.0,0.0,0.0,0.0,0.0,0.0,0.0,0.0,0.0,0.0,0.0,0.0,0.0,0.0,0.0,0.0,0.0,0.0,0.0,0.0,0.0,0.0,0.0,0.0,0.0,0.0,0.0,0.0,0.0,0.0,0.0,0.0,0.0,0.0,0.0,0.0,0.0,0.0,0.0,0.0,0.0,0.0,0.0,0.0,0.0,0.0,0.0,0.0,0.0,0.0,0.0,0.0,0.0,0.0,0.0,0.0,0.0,0.0,0.0,0.0,0.0,0.0,0.0,0.0,0.0,0.0,0.0,0.0,0.0,0.0,0.0,0.0,0.0,0.0,0.0,0.0,0.0,0.0,0.0,0.0,0.0,0.0,0.0,0.0,0.0,0.0,0.0,0.0,0.0,0.0,0.0,0.0,0.0,0.0,0.0,0.0,0.0,0.0,0.0,0.0,0.0,0.0,0.0,0.0,0.0,0.0,0.0,0.0,0.0,0.0,0.0,0.0,0.0,0.0,0.0,0.0,0.0,0.0,0.0,0.0,0.0,0.0,0.0,0.0,0.0,0.0,0.0,0.0,0.0,0.0,0.0,0.0,0.0,0.0,0.0,0.0,0.0,0.0,0.0,0.0,0.0,0.0,0.0,0.0,0.0,0.0,0.0,0.0,0.0,0.0,0.0,0.0,0.0,0.0,0.0,0.0,0.0,0.0,0.0,0.0,0.0,0.0,0.0,0.0,0.0,0.0,0.0,0.0,0.0,0.0,0.0,0.0,0.0,0.0,0.0,0.0,0.0,0.0,0.0,0.0,0.0,0.0,0.0,0.0,0.0,0.0,0.0,0.0,0.0,0.0,0.0,0.0,0.0,0.0,0.0,0.0,0.0,0.0,0.0,0.0,0.0,0.0,0.0,0.0,0.0,0.0,0.0,0.0,0.0,0.0,0.0,0.0,0.0,0.0,0.0,0.0,0.0,0.0,0.0,0.0,0.0,0.0,0.0,0.0,0.0,0.0,0.0,0.0,0.0,0.0,0.0,0.0,0.0,0.0,0.0,0.0,0.0,0.0,0.0,0.0,0.0,0.0,0.0,0.0,0.0,0.0,0.0,0.0,0.0,0.0,0.0,0.0,0.0,0.0,0.0,0.0,0.0,0.0,0.0,0.0,0.0,0.0,0.0,0.0,0.0,0.0,0.0,0.0,0.0,0.0,0.0,0.0,0.0,0.0,0.0,0.0,0.0,0.0,0.0,0.0,0.0,0.0,0.0,0.0,0.0,-1.3306,0.0,0.0,0.0,0.0,0.0,0.0,0.0,0.0,0.0,0.0,0.0,0.0,0.0,0.0,0.0,0.0,0.0,0.0,0.0,0.0,0.0,0.0,0.0,0.0,0.0,0.0,0.0,0.0,0.0,0.0,0.0,0.0,0.0,0.0,0.0,0.0,0.0,0.0,0.0,-0.9131,-1.0196,-1.154,-1.248,-1.3174,-1.3631,0.0,0.0,0.0,0.0,0.0,0.0,0.0,0.0,0.0,0.0,0.0,0.0,0.0,0.0,0.0,0.0,0.0,0.0,0.0,0.0,0.0,0.0,0.0,0.0,0.0,0.0,0.0,0.0,0.0,0.0,0.0,0.0,0.0,0.0,0.0,0.0,0.0,0.0,0.0,0.0,0.0,0.0,0.0,0.0,0.0,0.0,0.0,0.0,0.0,0.0,0.0,0.0,0.0,0.0,0.0,0.0,0.0,0.0,0.0,0.0,0.0,0.0,0.0,0.0,0.0,0.0,0.0,0.0,0.0,0.0,0.0,-1.4138,0.0,0.0,0.0,0.0,0.0,0.0,0.0,0.0,0.0,0.0,0.0,0.0,0.0,0.0,0.0,0.0,0.0,0.0,0.0,0.0,0.0,0.0,0.0,0.0,-1.1802,-1.1009,-0.9668,-0.8157,0.0,0.0,0.0,0.0,0.0,0.0,0.0,-0.564,-0.6472,-0.7809,-0.8403,-0.9877,-1.2152,-1.3042,-1.3751,-1.4344,-1.4807,0.0,0.0,0.0,0.0,0.0,0.0,0.0,0.0,0.0,0.0,0.0,0.0,0.0,0.0,0.0,0.0,0.0,0.0,0.0,0.0,0.0,0.0,0.0,0.0,0.0,0.0,0.0,0.0,0.0,0.0,0.0,0.0,0.0,0.0,0.0,0.0,0.0,0.0,0.0,0.0,0.0,0.0,0.0,0.0,0.0,0.0,0.0,0.0,0.0,0.0,0.0,0.0,0.0,0.0,0.0,0.0,0.0,0.0,0.0,0.0,0.0,0.0,0.0,-0.9046,-0.9751,-1.0011,-1.1385,-1.229,-1.2659,-1.3405,-1.4363,-1.5471,0.0,0.0,0.0,0.0,0.0,0.0,0.0,0.0,0.0,0.0,0.0,0.0,0.0,0.0,0.0,0.0,0.0,0.0,0.0,0.0,0.0,0.0,-0.9601,-0.8182,-0.722,-0.514,-0.3429,0.0,0.0,0.0,0.0,0.0,0.0,-0.3178,-0.4277,-0.5048,-0.5358,-0.7614,-0.9551,-1.1127,-1.2502,-1.3728,-1.4731,-1.5254,-1.5951,-1.6669,0.0,0.0,0.0,0.0,0.0,0.0,0.0,0.0,0.0,0.0,0.0,0.0,0.0,0.0,0.0,0.0,0.0,0.0,0.0,0.0,0.0,0.0,0.0,0.0,0.0,0.0,0.0,0.0,0.0,0.0,0.0,0.0,0.0,0.0,0.0,0.0,0.0,0.0,0.0,0.0,0.0,-0.2833,-0.2463,0.0,0.0,0.0,0.0,0.0,0.0,0.0,0.0,0.0,0.0,0.0,0.0,0.0,-0.5068,-0.5749,-0.6782,-0.7499,-0.7901,-0.9092,-0.9902,-1.0412,-1.1396,-1.2214,-1.2893,-1.3723,0.0,-1.5251,-1.5377,0.0,0.0,0.0,0.0,0.0,0.0,0.0,0.0,0.0,0.0,0.0,0.0,0.0,0.0,0.0,0.0,0.0,0.0,0.0,0.0,0.0,-0.3187,-0.1058,0.0183,0.1951,0.3042,0.3176,0.2487,0.0,0.0,0.0,0.0588,0.0672,-0.036,-0.1919,-0.4096,-0.6531,-0.8471,-1.004,-1.1048,-1.2474,-1.4212,-1.5246,-1.6492,-1.7784,-1.729,0.0,0.0,0.0,0.0,0.0,0.0,0.0,0.0,0.0,0.0,0.0,0.0,0.0,0.0,0.0,0.0,0.0,0.0,0.0,0.0,0.0,0.0,0.0,0.0,0.0,0.0,0.0,0.0,0.0,0.0,0.0,0.0,0.0,0.0,0.0,0.0,0.0,0.0,0.0,-0.2171,-0.2189,-0.1673,-0.1567,-0.1386,0.0,0.0,0.0,0.0,0.0,0.0,0.0,0.0,0.0,-0.3422,-0.3836,-0.4406,-0.5119,-0.6017,-0.6684,-0.7336,-0.8357,-0.9073,-0.9605,-1.073,-1.1589,-1.2281,-1.327,-1.4088,-1.4911,-1.5477,-1.6087,-1.6769,0.0,0.0,0.0,0.0,-1.8725,-1.8848,0.0,0.0,0.0,0.0,0.0,0.0,0.0,0.0,0.0,0.0,0.0,0.0,0.0555,0.3507,0.5893,0.7372,0.8595,0.9121,0.8678,0.7612,0.0,0.0,0.5404,0.4774,0.5006,0.3839,0.162,-0.1765,-0.4115,-0.6145,-0.7848,-0.9084,-1.0818,-1.295,-1.4636,-1.6636,-1.8621,-1.848,-1.853,-1.8687,0.0,0.0,0.0,0.0,0.0,0.0,0.0,0.0,0.0,0.0,0.0,0.0,0.0,0.0,0.0,0.0,0.0,0.0,0.0,0.0,0.0,0.0,0.0,0.0,0.0,0.0,0.0,0.0,0.0,0.0,0.0,0.0,0.0,0.0,0.0,0.0,0.0,-0.1328,-0.1383,-0.079,-0.0742,-0.0618,0.0,0.0,0.0,0.0,0.0,0.0,-0.1474,-0.1508,-0.1888,-0.2734,-0.3089,-0.3548,-0.4391,-0.5099,-0.5906,-0.677,-0.7526,-0.8265,-0.9013,-1.0079,-1.0942,-1.1686,-1.2793,-1.3677,-1.4514,-1.533,-1.6225,-1.7081,-1.7161,-1.7793,-1.8643,-1.9274,-1.9323,-1.9249,0.0,0.0,0.0,0.0,0.0,0.0,0.0,0.0,0.0,0.0,0.0,0.431,0.722,0.9189,1.1035,1.2766,1.3514,1.3656,1.3107,1.2759,1.192,1.0391,0.9867,0.9597,0.9498,0.746,0.5261,0.3026,0.0429,-0.1881,-0.396,-0.6604,-0.8858,-1.0797,-1.3247,-1.6119,-1.9019,-1.8598,-1.9366,-2.0663,-1.8884,0.0,0.0,0.0,0.0,0.0,0.0,0.0,0.0,0.0,0.0,0.0,0.0,0.0,0.0,0.0,0.0,0.0,0.0,0.0,0.0,0.0,0.0,0.0,0.0,0.0,0.0,0.0,0.0,0.0,0.0,0.0,0.0,0.0,0.0,0.0,0.0,0.0,0.0,-0.007,-0.0071,0.0,0.0,0.0,0.0,0.0529,0.0316,-0.0082,-0.0756,-0.1029,-0.1414,-0.1935,-0.2212,-0.2739,-0.3587,-0.4295,-0.5249,-0.645,-0.6896,-0.7893,-0.9226,-0.9873,-1.0622,-1.145,-1.2593,-1.34,-1.4033,-1.5072,-1.6217,-1.7342,-1.7654,-1.8241,-1.8983,-2.0062,-2.0096,-1.968,0.0,0.0,0.0,0.0,0.0,0.0,0.0,0.0,-0.292,0.0189,0.523,0.9447,1.1844,1.4616,1.6699,1.7665,1.8259,1.8069,1.6837,1.5995,1.5153,1.428,1.3383,1.2979,1.3203,1.1146,0.9225,0.7439,0.4265,0.1572,-0.0697,-0.2947,-0.5538,-0.8345,-1.078,-1.3641,-1.6788,-1.8432,-1.9902,-2.0996,-2.0489,-2.0012,0.0,0.0,0.0,0.0,0.0,0.0,0.0,0.0,0.0,0.0,0.0,0.0,0.0,0.0,0.0,0.0,0.0,0.0,0.0,0.0,0.0,0.0,0.0,0.0,0.0,0.0,0.0,0.0,0.0,0.0,0.0,0.0,0.0,0.0,0.0,0.0,0.0,0.0769,0.0933,0.0,0.1385,0.1493,0.1458,0.1265,0.1047,0.0658,0.0,-0.0254,-0.0686,-0.1393,-0.1741,-0.224,-0.295,-0.3619,-0.4356,-0.5251,-0.5997,-0.6884,-0.7748,-0.8779,-0.9791,-1.0734,-1.1741,-1.2654,-1.3572,-1.419,-1.5557,-1.7324,-1.7773,-1.8439,-1.9158,-1.9702,-1.976,-1.9669,0.0,0.0,0.0,0.0,0.0,0.0,0.0,0.0,0.2416,0.5692,1.0769,1.45,1.5684,1.8252,2.0024,2.0323,2.065,2.0228,1.8857,1.8263,1.7673,1.6994,1.6866,1.687,1.7029,1.535,1.3631,1.1863,0.83,0.5319,0.2849,0.0208,-0.2631,-0.5586,-0.8366,-1.1282,-1.4314,-1.7234,-1.9585,-2.1378,-2.1582,-2.1449,-2.0983,0.0,0.0,0.0,0.0,0.0,0.0,0.0,0.0,0.0,0.0,0.0,0.0,0.0,0.0,0.0,0.0,0.0,0.0,0.0,0.0,0.0,0.0,0.0,0.0,0.0,0.0,0.0,0.0,0.0,0.0,0.0,0.0,0.0,0.0,0.0,0.1442,0.1539,0.1794,0.2047,0.214,0.2192,0.209,0.1663,0.1508,0.112,0.0325,0.0163,-0.0163,-0.0821,-0.1151,-0.1626,-0.2225,-0.2856,-0.3573,-0.4395,-0.5161,-0.6022,-0.6857,-0.792,-0.9,-1.0109,-1.0958,-1.1955,-1.3131,-1.3672,-1.4975,-1.6682,-1.7442,-1.8311,-1.9079,-1.9512,-1.9511,-1.9342,0.0,0.0,0.0,0.0,0.0,0.0,0.0,0.3771,0.8249,1.1259,1.6375,1.9447,1.8706,1.9974,2.0776,2.056,2.0504,2.0066,1.9123,1.9648,1.9505,1.8375,2.0279,2.1164,2.0834,1.9903,1.8358,1.621,1.2484,0.9374,0.6769,0.2888,-0.0192,-0.2514,-0.6105,-0.919,-1.1888,-1.494,-1.8336,-2.1703,-2.2079,-2.251,-2.2804,0.0,0.0,0.0,0.0,0.0,0.0,0.0,0.0,0.0,0.0,0.0,0.0,0.0,0.0,0.0,0.0,0.0,0.0,0.0,0.0,0.0,0.0,0.0,0.0,0.0,0.0,0.0,0.0,0.0,0.0,0.0,0.0,0.0,0.2166,0.2068,0.2101,0.2314,0.2508,0.2643,0.2786,0.3011,0.2713,0.189,0.1811,0.1434,0.0378,0.0378,0.0153,-0.0313,-0.047,-0.0929,-0.1588,-0.2113,-0.2901,-0.3835,-0.4448,-0.5355,-0.6588,-0.7293,-0.8253,-0.9492,-1.0295,-1.1367,-1.2636,-1.349,-1.4362,-1.5308,-1.6735,-1.7862,-1.8736,-1.9465,-1.9273,-1.8726,0.0,0.0,0.0,0.0,0.0,0.0,0.0,0.7394,1.1885,1.5006,1.8176,1.9881,1.9189,1.9623,1.9808,1.9391,1.9613,1.9373,1.8358,1.9032,1.9437,1.9252,2.1229,2.2083,2.1626,2.0452,1.9262,1.8137,1.4583,1.1762,0.9685,0.6225,0.3058,0.0173,-0.339,-0.6717,-0.991,-1.3016,-1.5893,-1.8605,-2.1847,-2.3279,-2.3405,0.0,0.0,0.0,0.0,0.0,0.0,0.0,0.0,0.0,0.0,0.0,0.0,0.0,0.0,0.0,0.0,0.0,0.0,0.0,0.0,0.0,0.0,0.0,0.0,0.0,0.0,0.0,0.0,0.0,0.0,0.0,0.4296,0.4089,0.2992,0.3119,0.3217,0.3076,0.3102,0.3054,0.3004,0.3077,0.2893,0.2429,0.2501,0.2209,0.1547,0.1253,0.0887,0.0447,0.0074,-0.0368,-0.0859,-0.1647,-0.2401,-0.302,-0.4214,-0.5137,-0.5773,-0.7052,-0.7992,-0.8676,-0.9665,-1.0634,-1.1593,-1.2398,-1.3342,-1.4426,-1.6186,-1.7115,-1.7574,-1.8323,-1.8555,-1.8516,0.0,0.0,0.0,0.0,0.0,0.0,0.0,1.0032,1.4533,1.7545,1.9491,1.9973,1.8357,1.8646,1.8574,1.7593,1.8039,1.7981,1.7009,1.8378,1.9843,2.1207,2.241,2.2914,2.2685,2.1387,2.0261,1.9387,1.6304,1.402,1.2454,0.9154,0.6075,0.3194,-0.0344,-0.446,-0.8873,-1.1703,-1.4911,-1.8317,-2.1369,-2.2746,-2.3025,-2.3978,-2.3699,-2.2563,-2.0893,-1.9696,-1.8585,-1.6836,0.0,0.0,0.0,0.0,0.0,0.0,0.0,0.0,0.0,0.0,0.0,0.0,0.0,0.0,0.0,0.0,0.0,0.0,0.0,0.0,0.0,0.0,0.0,0.0,0.5369,0.5135,0.4293,0.404,0.3917,0.3704,0.3711,0.3587,0.3413,0.3391,0.319,0.2724,0.2624,0.2315,0.1736,0.1318,0.0972,0.0694,0.0351,0.0,-0.0345,-0.1102,-0.1776,-0.2482,-0.3508,-0.4499,-0.5382,-0.6481,-0.741,0.0,-0.9313,-1.0233,-1.1159,-1.2104,-1.298,0.0,0.0,0.0,0.0,0.0,-1.7776,-1.791,0.0,0.0,0.0,0.0,0.0,0.0,0.0,1.2031,1.6447,1.9119,2.0306,1.9838,1.7115,1.7549,1.7362,1.5667,1.6444,1.6817,1.6329,1.8178,2.0526,2.3306,2.3356,2.3389,2.3554,2.2184,2.096,1.9957,1.7568,1.5847,1.4747,1.1617,0.8889,0.6459,0.2985,-0.1887,-0.7654,-1.0322,-1.4312,-1.8952,-2.0496,-2.1462,-2.2152,-2.3957,-2.4355,-2.3766,-2.242,-2.1142,-1.9775,-1.7634,0.0,0.0,0.0,0.0,0.0,0.0,0.0,0.0,0.0,0.0,0.0,0.0,0.0,0.0,0.0,0.0,0.0,0.0,0.0,0.0,0.0,0.0,0.0,0.0,0.6373,0.6313,0.5652,0.4858,0.4367,0.4298,0.4229,0.4055,0.3781,0.3717,0.347,0.2835,0.2499,0.2043,0.1476,0.0,0.0,0.0,0.0,0.0267,0.0067,-0.0533,-0.1198,-0.2059,-0.2722,-0.3763,-0.5185,-0.5746,-0.6779,-0.8172,-0.9015,-0.9993,-1.0989,-1.2109,-1.2849,-1.3425,-1.4608,-1.5537,-1.6295,-1.6667,-1.701,0.0,0.0,0.0,0.0,0.0,0.0,0.0,0.0,1.4053,1.7922,1.9649,2.0058,1.9669,1.8273,1.7871,1.6948,1.5131,1.7118,1.925,2.1031,2.0731,2.1035,2.2344,2.2206,2.2122,2.2103,2.1146,2.0133,1.9139,1.767,1.6264,1.492,1.3076,1.1323,0.9616,0.6744,0.2743,-0.2132,-0.6292,-1.0568,-1.4884,-1.8264,-2.0515,-2.2032,-2.4015,-2.4584,-2.4205,-2.3405,-2.2633,-2.1584,-1.9099,-1.6582,-1.4268,-1.2644,-1.0644,0.0,0.0,0.0,0.0,0.0,0.0,0.0,0.0,0.0,0.0,0.0,0.0,0.0,0.0,0.0,0.0,0.0,0.0,0.0,0.7183,0.7086,0.6904,0.6313,0.5687,0.522,0.4838,0.4384,0.3898,0.3382,0.3443,0.3244,0.2786,0.2894,0.2814,0.2428,0.1991,0.1619,0.1309,0.0877,0.0566,0.0377,-0.0376,-0.1065,-0.1629,0.0,0.0,-0.4296,-0.5451,-0.6327,-0.7005,-0.8261,-0.9184,-0.9883,-1.0925,-1.215,-1.3394,-1.4515,-1.526,-1.5786,-1.6291,-1.6644,-1.6873,0.0,0.0,0.0,0.0,0.0,0.0,0.0,1.4299,1.827,1.9976,1.9796,1.8981,1.7645,1.6871,1.5896,1.4521,1.6848,1.9632,2.2552,2.1809,2.1811,2.3048,2.2168,2.1628,2.1597,2.0708,1.9997,1.9455,1.8344,1.7224,1.6112,1.469,1.2975,1.1053,0.8793,0.5251,0.0656,-0.3763,-0.8111,-1.2335,-1.6271,-1.8715,-2.0285,-2.3062,-2.4425,-2.4787,-2.4264,-2.3729,-2.2923,-2.0567,-1.7884,-1.5098,-1.2859,-1.0114,-0.7374,0.0,0.0,0.0,0.0,0.0,0.0,0.0,0.0,0.0,0.0,0.0,0.0,0.0,0.0,0.8536,0.8265,0.0,0.8455,0.8096,0.7716,0.7373,0.7048,0.6455,0.5797,0.4974,0.459,0.4187,0.3699,0.3572,0.339,0.3083,0.2978,0.2771,0.247,0.2047,0.1687,0.1449,0.1103,0.0865,0.0617,-0.0062,-0.0739,-0.1539,-0.2362,-0.3361,-0.4374,-0.5205,-0.6081,-0.7036,-0.8052,-0.8899,-0.9701,-1.0954,-1.2096,-1.3259,-1.4033,-1.4624,-1.5052,-1.5753,-1.6109,-1.6282,0.0,0.0,0.0,0.0,0.0,0.0,0.0,1.4456,1.8546,1.9965,1.9649,1.8685,1.7148,1.6402,1.5801,1.5273,1.6991,1.957,2.3004,2.2265,2.2323,2.3797,2.2186,2.123,2.1209,2.0476,1.9953,1.9665,1.8877,1.8022,1.7109,1.5937,1.4338,1.2346,1.0645,0.7444,0.3028,-0.1205,-0.5588,-1.0001,-1.3878,-1.6309,-1.797,-2.1081,-2.3301,-2.4739,-2.468,-2.4416,-2.3745,-2.1681,-1.9114,-1.6264,-1.283,-0.9469,-0.6278,-0.3776,-0.1841,0.0,0.0,0.0,0.0,0.0,0.0,0.0,0.0,0.8596,0.904,0.9655,0.9851,0.9806,0.9552,0.9269,0.8965,0.8826,0.8317,0.7902,0.7711,0.721,0.6459,0.5381,0.491,0.4493,0.4111,0.3871,0.363,0.3387,0.2956,0.2565,0.233,0.1921,0.1631,0.1518,0.1257,0.1031,0.0728,0.0243,-0.0485,-0.1392,-0.1947,-0.3006,-0.4446,-0.4851,-0.5857,-0.7186,-0.8078,-0.8912,-0.9814,-1.1115,-1.2085,-1.2842,-1.338,-1.3851,-1.4268,-1.5182,-1.5622,-1.5682,0.0,0.0,0.0,0.0,0.0,0.0,0.0,0.0,1.9802,1.9309,1.9834,1.9846,1.8822,1.865,1.8864,1.9535,1.9142,2.0352,2.3844,2.2524,2.2037,2.2983,2.1316,2.0289,2.0179,2.0127,1.9573,1.8486,1.8446,1.7764,1.6486,1.6224,1.5692,1.4925,1.3639,1.0926,0.699,0.3005,-0.1657,-0.6633,-1.0179,-1.3234,-1.5803,-1.7517,-2.0057,-2.2889,-2.4166,-2.4486,-2.3998,-2.1708,-1.9772,-1.7385,-1.1976,-0.844,-0.5373,-0.09,0.1901,0.3948,0.5719,0.6931,0.8008,0.9261,0.9582,0.9897,0.0,1.163,1.1539,1.1346,1.1431,1.1119,0.994,0.9892,0.9796,0.8851,0.8906,0.8792,0.8086,0.779,0.7362,0.6524,0.5478,0.4653,0.4079,0.3899,0.3674,0.3396,0.3156,0.2981,0.2811,0.2249,0.197,0.1915,0.1301,0.0908,0.0851,0.017,-0.0454,-0.0964,-0.1693,-0.2537,-0.3562,-0.4473,-0.5454,-0.6405,-0.7919,-0.9036,-0.9821,-1.0558,-1.1319,-1.2081,-1.2695,-1.324,-1.3788,-1.4925,-1.5484,-1.5697,0.0,0.0,0.0,0.0,0.0,0.0,0.0,0.0,0.0,0.0,1.8979,1.8896,1.8948,1.8423,1.8383,1.9181,1.9869,2.1078,2.2964,2.2915,2.2752,2.262,2.1283,2.0288,1.9781,1.9635,1.9233,1.8531,1.8364,1.7638,1.6386,1.6098,1.5536,1.4704,1.3664,1.2075,0.9895,0.5529,0.1805,-0.1532,-0.6135,-0.9408,-1.1792,-1.367,-1.5872,-1.8301,-2.1184,-2.1752,0.0,-1.8375,-1.6468,-1.3989,-0.759,-0.2913,0.1036,0.5178,0.8151,1.0456,1.2085,1.3159,1.3714,1.3631,1.3735,1.3969,1.4162,1.3747,1.3216,1.2854,1.2557,1.2058,1.1038,1.0698,1.0377,0.9724,0.9551,0.9285,0.8651,0.8496,0.8165,0.7419,0.6718,0.5912,0.5022,0.4519,0.4184,0.4076,0.3685,0.3352,0.2905,0.2683,0.2348,0.2015,0.1624,0.1232,0.0898,0.0224,-0.0336,-0.0898,-0.1624,-0.2517,-0.3413,-0.4346,-0.5605,-0.7025,-0.8196,-0.9138,-0.9865,-1.0557,-1.1267,-1.2076,-1.2579,-1.3256,-1.4035,-1.4777,-1.5198,-1.539,0.0,0.0,0.0,0.0,0.0,0.0,0.0,0.0,0.0,0.0,1.8236,1.8297,1.899,1.8393,1.8159,1.8682,2.0346,2.1694,2.2445,2.3088,2.3264,2.2814,2.1592,2.0485,1.9631,1.9583,1.9291,1.8672,1.838,1.7776,1.6873,1.6252,1.5499,1.4639,1.3689,1.2696,1.1495,0.7567,0.4678,0.2383,-0.2102,-0.5354,-0.7737,-0.9834,-1.1345,-1.292,-1.7629,-1.8746,-1.7552,-1.4879,-1.2831,-1.0186,-0.3224,0.1967,0.6234,1.022,1.3697,1.6586,1.7898,1.8601,1.8804,1.7872,1.766,1.7462,1.6627,1.5624,1.4639,1.3987,1.3447,1.2841,1.1986,1.1522,1.1061,1.0508,1.0225,0.9904,0.9402,0.9384,0.913,0.83,0.7976,0.7379,0.6268,0.534,0.4739,0.4574,0.4132,0.3688,0.313,0.3019,0.274,0.2184,0.1902,0.1511,0.0954,0.028,-0.0336,-0.0954,-0.168,-0.2573,-0.3522,-0.4673,-0.6091,-0.7622,-0.8468,-0.9249,-0.9925,-1.0608,-1.1368,-1.2166,-1.2628,-1.3399,-1.4362,-1.4777,-1.5096,-1.53,0.0,0.0,0.0,0.0,0.0,0.0,0.0,0.0,0.0,0.0,0.0,0.0,0.0,1.9397,1.9318,1.928,2.0803,2.2131,2.293,2.2865,2.3125,2.3821,2.2151,2.0689,1.9611,2.0227,1.9918,1.8591,1.8385,1.8253,1.8114,1.6955,1.6128,1.5618,1.4626,1.3207,1.1475,0.9361,0.6795,0.3943,0.1679,-0.1141,-0.4177,-0.5965,-0.6492,-0.7154,-1.392,-1.6159,-1.5387,-1.1985,-0.9758,-0.7158,0.015,0.4605,0.8049,1.2716,1.7492,2.1503,2.2432,2.2618,2.2451,2.1955,2.0811,1.9605,1.8815,1.7396,1.5849,1.4576,1.3967,1.3418,1.2465,1.2289,1.1928,1.0959,1.0932,1.0848,1.0135,1.0492,1.0333,0.9018,0.8966,0.8678,0.0,0.6376,0.5348,0.4743,0.4359,0.4027,0.3585,0.3244,0.2965,0.2691,0.1959,0.1455,0.1122,0.0224,-0.0505,-0.1122,-0.1849,-0.274,-0.3852,-0.571,-0.6966,-0.7723,-0.8633,-0.9375,-1.0051,-1.0667,-1.141,-1.2255,-1.2628,-1.3484,-1.4547,-1.4915,-1.5345,-1.5671,0.0,0.0,0.0,0.0,0.0,0.0,0.0,0.0,0.0,0.0,0.0,0.0,0.0,0.0,0.0,0.0,2.0453,2.1384,2.2016,2.3119,2.3773,2.3837,2.304,2.2134,2.1148,2.1038,2.0603,1.9794,1.8966,1.849,1.8289,1.7009,1.6375,1.6311,1.5299,1.4042,1.2482,1.0761,0.8658,0.6309,0.4311,0.2154,0.0,-0.1547,-0.2444,-0.3205,0.0,-0.7144,-0.806,-0.5622,-0.2123,0.1859,0.5819,1.0658,1.5695,1.9769,2.284,2.4998,2.5542,2.609,2.6156,2.4597,2.3634,2.2645,2.091,1.9225,1.7716,1.6658,1.5725,1.4904,1.4333,1.3915,1.348,1.2847,1.2428,1.2161,1.1924,1.1648,1.1271,1.0861,1.0706,1.023,0.9214,0.0,0.0,0.6426,0.5932,0.5386,0.4736,0.456,0.4067,0.3297,0.2963,0.2462,0.168,0.1007,0.0336,-0.0393,-0.1733,-0.3012,-0.4226,-0.5597,-0.6794,-0.7877,-0.883,-0.9577,-1.0205,-1.0964,-1.1751,-1.2472,-1.2812,-1.3627,-1.4663,-1.4858,-1.5367,-1.5913,0.0,0.0,0.0,0.0,0.0,0.0,0.0,0.0,0.0,0.0,0.0,0.0,0.0,0.0,0.0,0.0,0.0,2.0601,2.1267,2.2787,2.3807,2.4105,2.3818,2.3256,2.2459,2.2303,2.1847,2.1094,2.0124,1.9584,1.9389,1.7948,1.7251,1.7179,1.6105,1.4815,1.3422,1.1945,1.0203,0.8244,0.6505,0.4803,0.3181,0.1811,0.1079,0.0,0.0625,-0.0117,-0.0833,0.0467,0.3553,0.7277,1.0103,1.4846,2.0083,2.3639,2.5698,2.7007,2.7865,2.828,2.8214,2.7079,2.5768,2.4249,2.2499,2.0822,1.9315,1.8031,1.7261,1.6683,1.6223,1.5788,1.5298,1.4622,1.4201,1.3833,1.358,1.3259,1.2847,1.2394,1.233,1.1889,1.0705,0.9379,0.0,0.78,0.7208,0.6617,0.5919,0.5701,0.5105,0.4174,0.3793,0.3183,0.2237,0.1621,0.0671,-0.0504,-0.1899,-0.3176,-0.4391,-0.5433,-0.6524,-0.7605,-0.8718,-0.9517,-1.0035,-1.0964,-1.181,-1.2482,-1.2871,-1.3721,-1.4709,-1.4903,-1.5412,-1.5988,0.0,0.0,0.0,0.0,0.0,0.0,0.0,0.0,0.0,0.0,0.0,0.0,0.0,0.0,0.0,0.0,0.0,0.0,2.0777,2.1983,2.3309,2.4685,2.4482,2.4074,2.3522,2.3938,2.3564,2.2405,2.1771,2.1439,2.1304,1.9707,1.8724,1.8224,1.7022,1.5642,1.4198,1.2893,1.1389,0.9823,0.8348,0.6769,0.5275,0.4071,0.4082,0.4593,0.4001,0.462,0.5768,0.5887,0.7087,0.9224,1.3027,1.707,2.1001,2.4159,2.6064,2.7535,2.9324,2.9123,2.8603,2.9308,2.7161,2.4618,2.3649,2.226,2.0688,1.8891,1.8652,1.8615,1.8205,1.7868,1.7368,1.6389,1.6219,1.5932,1.5184,1.5241,1.4916,1.3597,1.3815,1.3579,1.2339,1.1938,0.0,0.8906,0.0,0.7782,0.7186,0.672,0.614,0.5214,0.4501,0.3674,0.2792,0.2012,0.067,-0.1229,-0.2233,-0.3234,-0.4233,-0.5332,-0.6258,-0.7015,-0.8296,-0.9145,-0.9718,-1.071,-1.1569,-1.2295,-1.2822,-1.3721,-1.4755,-1.5006,-1.5501,-1.6032,0.0,0.0,0.0,0.0,0.0,0.0,0.0,0.0,0.0,0.0,0.0,0.0,0.0,0.0,0.0,0.0,0.0,0.0,2.1025,2.1992,2.337,2.5242,2.4911,2.4777,2.5016,2.4697,2.4291,2.3889,2.2686,2.2129,2.2023,2.0504,1.9514,1.9056,1.8175,1.688,1.5403,1.4272,1.2814,1.1077,0.9734,0.8294,0.695,0.6006,0.5809,0.5935,0.5735,0.6399,0.7365,0.7665,1.0128,1.3516,1.5707,1.8204,2.0742,2.292,2.4944,2.6746,2.8113,2.8648,2.8883,2.9082,2.751,2.5759,2.5141,2.381,2.2446,2.1655,2.1028,2.0682,2.099,2.0743,2.0279,1.9612,1.898,1.8352,1.7605,1.6239,1.5427,1.5684,1.5002,1.436,1.4003,1.3918,1.3543,0.0,1.1015,0.9769,0.9141,0.8462,0.7623,0.6563,0.576,0.4835,0.3846,0.2345,0.095,-0.0335,-0.1562,-0.295,-0.4391,-0.5546,-0.6691,-0.7711,-0.8876,-0.9718,-1.0293,-1.1267,-1.2107,-1.2822,-1.3266,-1.4071,-1.5051,-1.5277,-1.578,-1.6306,0.0,0.0,0.0,0.0,0.0,0.0,0.0,0.0,0.0,0.0,0.0,0.0,0.0,0.0,0.0,0.0,0.0,0.0,0.0,2.1113,2.2743,2.4802,2.5017,2.5403,2.6115,2.5456,2.5056,2.4996,2.3758,2.3071,2.2942,2.1425,2.0425,1.9772,1.8581,1.7346,1.602,1.5024,1.3713,0.0,0.0,0.9547,0.8348,0.7324,0.6979,0.6974,0.7242,0.8417,1.0069,1.1025,1.292,1.5008,1.6312,1.8274,2.043,2.2213,2.404,2.575,2.7069,2.7387,2.758,2.8601,2.7593,2.6373,2.6525,2.584,2.4974,2.4244,2.3842,2.3647,2.3665,2.3608,2.3389,2.2826,2.2141,2.1347,2.043,1.8512,1.7222,1.7289,1.6355,1.5666,1.558,1.5508,1.5297,0.0,1.2946,1.1548,1.0788,0.9915,0.8933,0.78,0.6794,0.5546,0.4015,0.2309,0.0928,-0.0055,-0.1291,-0.2717,-0.4407,-0.5222,-0.6322,-0.7547,0.0,-0.951,-1.0233,-1.1209,-1.2147,-1.2967,-1.342,-1.4176,-1.5051,-1.5501,-1.5988,-1.6392,0.0,0.0,0.0,0.0,0.0,0.0,0.0,0.0,0.0,0.0,0.0,0.0,0.0,0.0,0.0,0.0,0.0,0.0,0.0,0.0,2.1831,2.3973,2.4835,2.5683,2.6672,2.598,2.5545,2.5478,2.4463,2.3859,2.3625,2.2209,2.1105,2.024,1.8668,1.7407,1.64,1.5402,1.4301,1.3186,1.1731,1.0607,0.9634,0.0,0.7902,0.8032,0.8737,1.0647,1.3053,1.4751,1.5143,1.5099,1.6029,1.7839,1.9967,2.1695,2.3192,2.4614,2.6075,2.5845,2.5763,2.8096,2.7516,2.6667,2.7755,2.787,2.7468,2.6467,2.6493,2.6581,2.6121,2.6215,2.616,2.5555,2.5013,2.4235,2.2961,2.1029,1.9479,1.8754,1.7741,1.7099,1.7024,1.6811,1.6471,1.6008,1.4516,1.3205,1.2355,1.124,1.0033,0.8771,0.7439,0.5814,0.3959,0.2167,0.0853,-0.0053,-0.1133,-0.2574,-0.42,-0.4641,-0.5529,-0.6873,0.0,0.0,-0.9592,-1.0568,-1.1534,-1.2511,-1.3006,-1.3768,-1.4663,-1.5186,-1.5732,-1.6151,0.0,0.0,0.0,0.0,0.0,0.0,0.0,0.0,0.0,0.0,1.0137,1.0572,0.0,0.0,0.0,0.0,0.0,0.0,0.0,0.0,0.0,2.3879,2.4213,2.4869,2.6104,2.5661,2.5043,2.4273,2.3628,2.3085,2.2703,2.17,2.081,1.9876,1.8879,1.7883,1.6738,1.6019,1.495,1.3611,1.2531,1.1461,1.0461,0.9215,0.0,0.0,1.0885,1.2733,1.4696,1.5441,1.5669,1.5847,1.6995,1.7958,1.9051,2.0729,2.2131,2.3435,2.497,2.5285,2.5745,2.7973,2.742,2.6805,2.8631,2.8525,2.7956,2.7705,2.7437,2.7376,2.7772,2.7478,2.6979,2.6314,2.5842,2.5027,2.3412,2.155,2.0377,2.0504,1.8862,1.7847,1.809,1.7801,1.7366,0.0,1.6157,1.5163,1.3805,1.2541,1.083,0.8435,0.6843,0.555,0.4563,0.2775,0.1365,0.0371,-0.0897,-0.2227,-0.3518,-0.4189,-0.4944,-0.579,-0.6502,0.0,-0.8259,-0.8779,-0.971,-1.0864,-1.114,-1.1935,-1.289,-1.3195,-1.3903,-1.4675,0.0,0.0,0.0,0.0,0.0,0.0,0.0,0.7972,0.9022,1.1136,1.1469,1.1677,1.2017,1.3183,0.0,0.0,0.0,0.0,0.0,0.0,0.0,0.0,2.3027,2.3599,2.4586,2.4368,2.4112,2.3886,0.0,2.2954,2.2764,2.1658,2.0686,1.9847,1.8657,1.7552,1.6557,1.5843,1.4937,1.3908,1.2962,1.2065,1.1182,0.0,0.0,0.0,1.2646,1.4266,1.5986,1.7584,1.7773,1.7359,1.7675,1.8367,1.9312,2.064,2.1698,2.2725,2.3818,2.4189,2.4787,2.6965,2.7231,2.744,2.9418,2.9647,2.9437,2.9362,2.9137,2.9002,2.9112,2.9038,2.8785,2.8201,2.8041,2.7321,2.5329,2.3765,2.2497,2.1526,2.0051,1.9051,1.8985,1.8679,1.8226,1.7679,1.7256,1.6416,1.496,1.3233,1.1423,0.9658,0.8187,0.6865,0.5688,0.4177,0.2649,0.1132,-0.0151,-0.1322,-0.2492,-0.3462,-0.4304,-0.5017,-0.5927,0.0,-0.7772,-0.8287,-0.9275,-1.0468,-1.0814,-1.1612,-1.2599,-1.306,-1.3721,-1.4494,0.0,0.0,0.0,0.0,0.0,0.0,0.0,0.9238,1.0214,1.2776,1.318,1.3375,1.3744,1.4037,1.437,0.0,0.0,0.0,0.0,0.0,0.0,0.0,0.0,0.0,2.2971,0.0,0.0,2.3202,2.271,0.0,0.0,0.0,0.0,0.0,1.8276,1.7102,1.611,1.5535,1.4836,0.0,0.0,1.2671,0.0,0.0,0.0,0.0,0.0,1.5364,1.7051,1.9329,1.9634,1.903,1.8819,1.9248,1.999,2.0865,2.1619,2.2329,2.2895,2.318,2.3894,2.6093,2.6916,2.7728,2.9697,3.031,3.0422,3.033,3.0389,3.034,3.0013,3.0095,3.0109,2.9773,2.975,2.9179,2.747,2.61,2.4658,2.29,2.1431,2.0439,2.0005,1.9574,1.9035,1.845,1.8082,0.0,1.5752,1.385,1.2329,1.1297,0.9957,0.8612,0.7253,0.5747,0.4087,0.2188,0.096,-0.0323,-0.1547,-0.2566,-0.3435,-0.421,-0.5131,0.0,0.0,-0.7632,-0.8696,-1.0089,-1.0359,-1.1098,-1.2076,-1.2638,-1.3351,-1.4082,0.0,0.0,0.0,0.0,0.0,0.0,0.0,1.0077,1.1367,1.4384,1.4288,1.4624,1.6485,1.5769,1.5378,0.0,0.0,0.0,0.0,0.0,0.0,0.0,0.0,0.0,0.0,0.0,0.0,2.1251,2.1063,0.0,0.0,0.0,0.0,0.0,0.0,1.6884,1.5732,1.5666,0.0,0.0,0.0,0.0,0.0,0.0,0.0,0.0,0.0,1.5836,1.7899,1.8954,1.976,2.0502,2.1348,2.1177,2.0729,2.1277,2.1859,2.2329,2.253,2.2883,2.3789,2.6172,2.6505,2.6772,2.8834,2.9471,2.9568,2.9444,3.0049,3.0472,3.0145,2.9801,2.9626,2.9782,2.9357,2.8949,2.8886,2.7365,2.6094,2.5589,2.3393,2.1816,2.1525,2.0551,1.9692,1.9132,1.8679,0.0,1.5947,1.4914,1.39,1.2847,1.1282,1.0073,0.9315,0.7131,0.5304,0.3859,0.2285,0.0646,-0.0983,-0.1527,-0.2245,-0.3051,-0.3336,0.0,0.0,-0.5682,-0.6759,-0.8567,-0.8521,-0.904,-0.9909,-1.0226,-1.1116,-1.2297,0.0,0.0,0.0,0.0,0.0,0.0,1.076,1.1327,1.2445,1.4845,1.5227,1.5954,1.7772,1.7816,1.741,0.0,0.0,0.0,0.0,0.0,0.0,0.0,0.0,0.0,0.0,0.0,2.1279,2.1361,2.0967,0.0,0.0,0.0,0.0,0.0,0.0,1.671,1.5867,1.5184,0.0,0.0,0.0,0.0,0.0,0.0,0.0,0.0,0.0,0.0,1.9231,2.0519,2.125,2.1903,2.3195,2.3318,2.2899,2.2504,2.2893,2.3531,2.3938,2.4537,2.5416,2.7087,2.7625,2.7965,2.8873,2.9291,2.9459,2.9322,2.9501,2.9777,3.0049,2.9715,2.9507,2.9934,2.9953,2.9867,2.9721,2.9334,2.8665,2.7607,2.5848,2.4512,2.39,2.2794,2.16,2.0391,0.0,0.0,1.7866,1.6654,1.5707,1.5122,1.4043,1.2842,1.1601,0.9907,0.8099,0.6233,0.3875,0.2292,0.1409,-0.0089,-0.1028,-0.1477,-0.163,0.0,0.0,-0.4052,-0.5096,-0.6681,-0.7074,-0.7711,-0.8336,-0.8534,-0.9089,-0.9783,0.0,0.0,0.0,0.0,0.0,1.1411,1.239,1.2867,1.3998,1.6393,1.6979,1.7796,1.9359,1.9734,1.9226,1.7675,0.0,0.0,0.0,0.0,0.0,0.0,0.0,0.0,0.0,0.0,2.0732,2.1459,2.0745,2.0463,0.0,0.0,1.9077,1.8383,0.0,0.0,0.0,0.0,0.0,0.0,0.0,0.0,0.0,0.0,0.0,0.0,0.0,0.0,0.0,0.0,0.0,2.2881,2.4544,2.4894,2.4556,2.367,2.4016,2.4757,2.509,2.5679,2.6508,2.7744,2.8256,2.8487,2.8652,2.8901,2.9084,2.8974,2.9043,2.9313,2.9954,2.9704,2.9561,3.0057,3.0442,3.0618,3.0494,3.0919,3.0855,2.9608,2.8442,2.7266,2.6185,2.4597,2.304,2.1631,0.0,0.0,1.9752,1.8641,1.7705,1.7126,1.6422,1.5492,1.4272,1.2574,1.0723,0.882,0.6056,0.4223,0.3234,0.1542,0.062,0.0355,0.0,0.0,0.0,-0.1661,-0.2659,-0.4271,-0.4385,-0.4559,-0.4713,-0.4666,-0.4658,-0.4665,0.0,0.0,0.0,0.0,0.0,0.0,0.0,1.4802,1.6079,1.9536,1.9851,2.0325,2.1813,2.1316,2.0587,1.9836,0.0,0.0,0.0,0.0,0.0,0.0,0.0,0.0,0.0,0.0,2.0231,2.1118,1.9995,1.942,1.9433,1.8881,1.8342,1.7796,0.0,0.0,0.0,0.0,0.0,0.0,0.0,0.0,0.0,0.0,0.0,0.0,0.0,0.0,0.0,0.0,0.0,0.0,0.0,2.5575,2.5086,2.4555,2.5063,2.5716,2.5467,2.579,2.6508,2.7843,2.7896,2.7661,2.7869,2.8072,2.8182,2.8135,2.8694,2.9359,2.9889,2.9788,2.972,3.0119,3.0541,3.0945,3.1314,3.1978,3.2232,3.1823,3.1041,2.9867,2.8032,2.5464,2.3604,2.283,0.0,0.0,2.1309,2.0764,1.9869,1.8517,1.8071,1.7755,1.7424,1.485,1.2904,1.1541,0.9036,0.6495,0.3964,0.3354,0.2827,0.0,0.0,0.0,0.0,0.169,0.0782,-0.123,0.0156,0.1176,0.1864,0.2407,0.3129,0.3911,0.0,0.0,0.0,0.0,0.0,0.0,0.0,1.5851,1.7518,1.9887,2.0854,2.1669,2.2651,2.2537,2.2155,2.1458,0.0,0.0,0.0,0.0,0.0,0.0,0.0,0.0,0.0,0.0,2.103,2.1171,2.0179,1.9936,2.0447,1.9485,1.8923,1.8709,1.7324,1.6328,0.0,0.0,0.0,0.0,0.0,0.0,0.0,0.0,0.0,0.0,0.0,0.0,0.0,0.0,0.0,0.0,0.0,0.0,0.0,2.6084,2.64,2.6857,2.7207,2.7712,2.8276,2.8988,2.9303,2.9332,2.8892,2.8486,2.8174,2.8119,2.7729,2.7616,2.8236,2.8551,2.9282,3.1004,3.1644,3.2488,3.4212,3.4443,3.4175,3.3473,3.1459,2.9624,0.0,0.0,2.4991,0.0,0.0,0.0,2.2212,2.1689,2.1054,2.0304,1.9793,1.9358,1.9016,1.7237,1.5976,1.526,1.1905,0.9799,0.8777,0.6953,0.0,0.0,0.0,0.0,0.0,0.572,0.5889,0.5838,0.6216,0.6201,0.6154,0.7466,0.7547,0.7189,0.0,0.0,0.0,0.0,0.0,0.0,0.0,1.7675,1.936,2.1292,2.2376,2.3231,2.3966,2.3792,2.3389,2.2632,0.0,0.0,0.0,0.0,0.0,0.0,0.0,0.0,0.0,2.1622,2.1557,2.1628,2.0681,2.0411,2.0774,1.9821,1.9259,1.8982,1.7788,1.6842,0.0,0.0,0.0,0.0,0.0,0.0,1.7022,0.0,0.0,0.0,0.0,0.0,0.0,0.0,0.0,0.0,0.0,0.0,0.0,0.0,2.7338,2.7736,2.8228,2.87,2.9152,2.9607,2.9999,3.0007,2.9012,2.8476,2.8099,2.7683,2.7079,2.6822,2.749,2.8022,2.8931,3.0617,3.182,3.3095,3.4786,3.5544,3.5659,3.5007,3.2256,0.0,0.0,2.7641,2.6141,0.0,0.0,0.0,2.284,2.2395,2.2085,2.1874,2.1258,2.0799,2.0542,1.9128,1.8268,1.7967,1.5034,1.3309,1.2661,1.1013,0.0,0.0,0.0,0.0,0.0,1.0544,1.1013,1.137,1.1871,1.1963,1.1951,1.3295,1.3587,1.3479,0.0,0.0,0.0,0.0,0.0,0.0,0.0,0.0,2.1529,2.3469,2.4302,2.4997,2.5627,2.5149,2.4415,2.3625,0.0,0.0,0.0,0.0,0.0,0.0,0.0,0.0,2.2916,2.2131,2.1862,2.2269,2.1363,2.0752,2.0408,1.9813,1.932,1.8896,1.8384,1.7555,1.6633,1.655,1.6546,1.6637,1.7565,1.8018,0.0,0.0,0.0,0.0,0.0,0.0,0.0,0.0,0.0,0.0,0.0,0.0,0.0,0.0,0.0,0.0,0.0,2.89,2.9259,2.9776,3.0075,2.9899,2.8593,2.8236,0.0,2.7073,2.6743,2.6806,2.7485,2.804,2.8681,2.9471,3.1348,3.2952,3.3625,3.5398,3.6532,3.6292,3.3294,0.0,3.1173,2.9022,0.0,0.0,0.0,0.0,2.3291,2.2975,2.2958,2.3151,2.2483,2.2091,2.2,2.0716,1.9987,1.9837,1.8327,1.7001,1.5828,1.5301,0.0,0.0,0.0,0.0,0.0,1.5814,1.6025,1.5783,1.7235,1.8114,1.8654,1.95,2.0534,2.157,0.0,0.0,0.0,0.0,0.0,0.0,0.0,0.0,0.0,0.0,2.615,2.6931,2.6688,2.6269,2.5671,0.0,0.0,0.0,0.0,0.0,0.0,0.0,0.0,0.0,2.3288,2.2872,2.24,2.1846,2.0702,2.027,2.0456,1.9666,1.9577,2.0077,1.8996,1.8333,1.785,1.7798,1.7965,1.8275,1.8512,1.8602,0.0,0.0,0.0,0.0,1.9986,2.0854,0.0,0.0,0.0,0.0,0.0,0.0,0.0,0.0,2.7895,2.8767,2.9175,0.0,2.9568,2.9893,3.0248,3.042,0.0,2.9109,2.8115,2.7858,2.6645,2.6032,2.7369,2.7618,2.848,3.1052,3.2296,3.3364,3.4649,3.5038,3.5336,3.5702,3.2849,3.0796,3.0731,2.9029,0.0,0.0,0.0,2.524,2.4306,2.3749,2.3522,2.3624,2.3477,2.3212,2.2905,2.2554,2.2372,2.225,2.117,2.0418,1.9915,1.8244,0.0,0.0,0.0,0.0,1.9214,1.9679,2.0637,2.1855,2.2374,2.2353,2.2178,2.3396,2.3332,2.2785,0.0,0.0,0.0,0.0,0.0,0.0,0.0,0.0,0.0,0.0,0.0,0.0,0.0,0.0,0.0,0.0,0.0,0.0,0.0,0.0,0.0,0.0,0.0,2.4079,2.3368,2.3227,2.2619,2.1551,2.1119,2.0826,2.065,2.0124,2.0216,2.0745,1.9774,1.931,1.9149,1.8965,1.8981,1.9192,1.9368,0.0,0.0,0.0,0.0,0.0,2.0384,2.1313,0.0,2.1771,2.2649,2.393,0.0,0.0,0.0,0.0,2.804,2.9097,2.9407,2.9308,2.9225,2.9546,2.9815,2.9916,2.9622,2.8844,2.806,2.755,2.6323,2.5687,2.6797,2.7519,2.8742,3.1167,3.2723,3.4271,3.6048,3.5826,3.5568,3.5799,3.2893,3.0874,0.0,0.0,0.0,0.0,0.0,2.566,2.448,2.4178,2.4002,2.3964,2.4098,2.4002,2.3623,2.3548,2.3575,2.3699,2.3143,2.2849,2.2738,2.1548,2.1013,0.0,0.0,0.0,2.2014,2.228,2.3178,2.4414,2.4518,2.4235,2.383,2.4448,2.4084,2.3342,0.0,0.0,0.0,0.0,0.0,0.0,0.0,0.0,0.0,0.0,0.0,0.0,0.0,0.0,0.0,0.0,0.0,0.0,0.0,0.0,0.0,0.0,0.0,2.4082,2.3522,2.3266,2.2609,2.1527,2.1744,2.1531,2.0862,2.0702,2.0795,2.1119,2.0662,2.0528,2.0576,2.0125,1.9982,2.0022,2.0221,0.0,0.0,0.0,0.0,0.0,0.0,0.0,0.0,2.2226,2.305,2.4189,2.3605,0.0,0.0,0.0,0.0,0.0,2.9479,2.9119,2.8749,2.9104,2.9159,2.8973,2.833,2.8093,2.7752,2.6919,2.6127,2.5861,2.6746,2.8094,2.9585,3.1261,3.317,3.5099,3.7008,3.6574,3.6012,3.5816,3.3086,0.0,0.0,0.0,0.0,0.0,0.0,2.5835,2.434,2.4391,2.4405,2.4299,2.451,2.451,2.4263,2.4118,2.4208,2.4495,2.4459,2.4486,2.4531,2.4301,2.3986,0.0,0.0,0.0,2.3834,2.4078,2.452,2.5095,2.5065,2.4846,2.4534,2.4308,2.4025,2.3699,0.0,0.0,0.0,0.0,0.0,0.0,0.0,0.0,0.0,0.0,0.0,0.0,0.0,0.0,0.0,0.0,0.0,0.0,0.0,0.0,0.0,2.6774,2.5386,2.4583,2.4506,2.3149,2.2303,2.1988,2.1266,2.0866,2.0715,2.0419,2.0655,2.138,2.1613,2.1929,2.2278,2.1895,2.1788,2.1853,2.1162,0.0,0.0,0.0,0.0,0.0,0.0,0.0,0.0,2.1479,2.2014,2.2789,2.2635,0.0,0.0,0.0,0.0,0.0,2.9544,2.9406,2.8962,2.9089,2.8734,2.8333,2.8238,2.7631,2.7069,2.6898,2.6675,2.7151,2.9301,3.0445,3.1775,3.4014,3.4486,3.4851,3.5696,0.0,3.4538,3.4506,0.0,0.0,0.0,0.0,0.0,0.0,0.0,2.5533,2.4599,2.4604,2.4666,2.4712,2.4746,2.4818,2.4942,2.4818,2.4804,2.4921,2.5069,2.5139,2.515,2.4441,2.4535,0.0,0.0,2.4547,2.5271,2.5314,2.5407,2.5504,2.5383,2.5294,2.5216,2.4956,2.4689,2.4383,0.0,0.0,0.0,0.0,0.0,0.0,0.0,0.0,0.0,0.0,0.0,0.0,0.0,0.0,0.0,0.0,0.0,0.0,0.0,0.0,0.0,2.6929,2.5751,2.4989,2.466,2.3498,2.2382,2.1395,2.1065,2.0825,2.0661,2.145,2.1952,2.2217,2.2965,2.3351,2.345,2.3216,2.3084,2.301,0.0,0.0,0.0,0.0,0.0,0.0,0.0,0.0,0.0,0.0,2.2444,2.2947,2.2972,0.0,0.0,0.0,0.0,0.0,2.854,2.8593,2.8469,2.8532,2.8384,2.8081,2.7655,2.7585,2.7729,2.8154,2.8143,2.8657,3.0636,3.1621,3.2921,3.5267,3.5871,3.6136,3.6372,3.5254,3.4427,0.0,0.0,0.0,0.0,0.0,0.0,0.0,0.0,0.0,2.487,2.4874,2.4929,2.4962,2.5006,2.508,2.5209,2.5149,2.5149,2.5212,2.5356,2.5432,2.544,2.5118,2.5223,2.5621,0.0,2.527,2.5651,2.5621,2.5604,2.5595,2.5459,2.5401,2.535,2.493,2.4741,2.4601,0.0,0.0,0.0,0.0,0.0,0.0,0.0,0.0,0.0,0.0,0.0,0.0,0.0,0.0,0.0,0.0,0.0,0.0,0.0,0.0,2.8317,2.7237,2.6239,2.5332,2.4597,2.3607,2.2398,2.1019,2.101,2.0931,2.08,2.2521,2.3335,2.3442,2.4198,2.457,2.4653,2.4395,2.4153,2.3941,0.0,0.0,0.0,0.0,0.0,0.0,0.0,0.0,0.0,0.0,0.0,0.0,0.0,0.0,0.0,2.5519,2.6369,2.7182,2.7616,2.8011,2.829,2.8157,2.8154,2.8092,2.7695,2.8069,2.8731,2.9566,2.9783,3.0278,3.1692,3.2878,3.4152,3.574,3.6596,3.6914,3.647,3.5256,3.4235,3.3862,0.0,0.0,0.0,0.0,0.0,0.0,0.0,0.0,2.5099,2.5111,2.5153,2.5157,2.5192,2.5264,2.5322,2.5341,2.5369,2.5412,2.5482,2.5535,2.5601,2.566,2.5703,2.5696,2.5702,2.5697,2.5687,2.5632,2.5617,2.56,2.5479,2.5398,2.5321,2.4879,2.4821,2.4936,0.0,0.0,0.0,0.0,0.0,0.0,0.0,0.0,0.0,0.0,0.0,0.0,0.0,0.0,0.0,0.0,0.0,0.0,0.0,0.0,2.8068,2.8615,2.7095,2.5703,2.4523,2.2928,2.1978,2.1742,2.0999,2.0873,2.1396,2.2939,2.4086,2.4858,2.4872,2.5407,2.6278,2.5463,2.5044,2.4823,2.3731,0.0,0.0,0.0,0.0,0.0,0.0,0.0,0.0,0.0,0.0,0.0,0.0,0.0,2.3473,2.5483,2.6122,2.6427,2.7502,2.8486,2.9035,2.8352,2.8204,2.8402,2.9234,2.9414,2.9656,3.0521,3.1234,3.1969,3.2832,3.487,3.6185,3.5477,3.5971,3.5904,3.4257,0.0,3.3182,0.0,0.0,0.0,0.0,0.0,0.0,0.0,0.0,0.0,2.5274,2.5293,2.5283,2.5282,2.5303,2.5312,2.5389,2.5448,2.5488,2.5495,2.5506,2.5542,2.5593,2.5678,2.5701,2.5703,2.5703,2.5703,2.5697,2.5629,2.5643,2.5671,2.555,2.5418,2.5284,2.5122,2.5365,2.5766,0.0,0.0,0.0,0.0,0.0,0.0,0.0,0.0,0.0,0.0,0.0,0.0,0.0,0.0,0.0,0.0,0.0,0.0,0.0,2.8331,2.8124,2.7811,2.7158,2.6097,2.4596,2.3146,2.2188,2.1673,2.1305,2.145,2.2136,2.401,2.531,2.6048,2.6302,2.6333,2.6152,2.5748,2.5513,2.5277,2.4087,2.3799,0.0,0.0,0.0,0.0,0.0,0.0,0.0,0.0,2.3067,2.3464,2.4061,2.3782,2.35,2.4922,2.5094,2.5015,2.6033,2.7804,2.9186,2.8398,2.9421,3.0443,2.9758,3.039,3.1528,3.2937,3.3813,3.4245,3.3964,3.504,3.5643,3.4702,3.4813,3.4768,3.4028,3.3016,0.0,0.0,0.0,0.0,0.0,0.0,0.0,0.0,0.0,0.0,0.0,2.5374,2.5357,2.5367,2.5401,2.5453,2.5517,2.5515,2.5524,2.556,2.5566,2.5605,2.5661,2.5696,2.5395,2.492,2.5468,2.5391,2.4938,2.5395,2.5605,2.5615,2.5398,2.5561,2.5906,2.5687,2.6042,2.6628,0.0,0.0,0.0,0.0,0.0,0.0,0.0,0.0,0.0,0.0,0.0,0.0,0.0,0.0,0.0,0.0,0.0,0.0,2.7997,2.7972,2.7746,2.7343,2.7002,2.6287,2.5156,2.3768,2.2602,2.1684,2.1601,2.2045,2.306,2.5055,2.6296,2.6854,2.7169,2.6911,2.6225,2.5872,2.5668,2.5476,2.4441,2.4232,0.0,0.0,0.0,0.0,0.0,0.0,0.0,0.0,2.3356,2.3838,2.4283,2.3777,2.33,2.4587,2.4915,2.5034,2.5972,2.795,2.9725,2.9466,3.075,3.1913,3.1309,3.1875,3.2998,3.4747,3.5286,3.5145,3.4232,3.4468,3.4491,0.0,3.3634,3.3615,3.2985,0.0,0.0,0.0,0.0,0.0,0.0,0.0,0.0,0.0,0.0,0.0,0.0,2.5485,2.5452,2.5459,2.5505,2.5551,2.5607,2.5551,2.5576,2.5628,2.5632,2.5651,2.5709,2.5691,2.5365,2.4843,2.5449,2.537,2.4857,2.5371,2.5585,2.5544,2.5601,2.5895,2.6281,2.6348,2.681,2.74,0.0,0.0,0.0,0.0,0.0,0.0,0.0,0.0,0.0,0.0,0.0,0.0,0.0,0.0,0.0,0.0,0.0,0.0,2.6346,2.6456,2.6805,2.7543,2.6669,2.6203,2.6263,2.4638,2.3156,2.1909,2.1916,2.2669,2.4136,2.5949,2.6909,2.709,2.7236,2.7114,2.6712,2.5859,2.5478,2.5425,2.469,2.4521,2.4454,0.0,0.0,0.0,0.0,0.0,0.0,0.0,2.3748,2.3392,2.4395,2.3611,2.271,2.4569,2.5822,2.6824,2.7759,2.9281,3.0839,3.1767,3.1993,3.245,3.4183,3.3971,3.3906,3.5636,3.5259,3.434,3.3459,3.329,3.2963,3.1949,3.2503,3.2454,3.0723,0.0,0.0,0.0,0.0,0.0,0.0,0.0,0.0,0.0,0.0,0.0,0.0,2.5599,2.5607,2.5599,2.5604,2.5604,2.5604,2.56,2.5619,2.5699,2.5701,2.5701,2.5694,2.5698,2.5703,2.5683,2.5697,2.5693,2.5672,2.5621,2.5525,2.547,2.6275,2.6422,2.6308,2.7101,2.7685,2.8087,0.0,0.0,0.0,0.0,0.0,0.0,0.0,0.0,0.0,0.0,0.0,0.0,0.0,0.0,0.0,0.0,0.0,0.0,2.5722,2.5751,2.5609,2.5235,2.4896,2.4456,2.3841,2.3304,2.2787,2.2325,2.2892,2.3625,2.4566,2.6278,2.6767,2.6207,2.668,2.5901,2.4319,2.5056,2.5051,2.4563,2.4405,2.4699,2.5069,0.0,0.0,0.0,0.0,0.0,0.0,0.0,0.0,0.0,2.4728,2.5348,2.598,2.6003,2.7089,2.8238,2.799,2.9661,3.1361,3.103,3.1899,3.2973,3.351,3.4456,3.5369,3.5833,3.5754,3.4932,3.2835,3.2419,0.0,3.1176,3.0729,3.0307,0.0,0.0,0.0,0.0,0.0,0.0,0.0,0.0,0.0,0.0,0.0,0.0,0.0,2.564,2.566,0.0,2.5593,2.5625,2.5678,2.5629,2.5636,2.5696,2.5709,2.5694,2.5694,2.5702,2.5371,2.4824,2.5439,2.5278,2.4611,2.5054,2.5207,2.5217,2.5409,2.5716,2.6151,2.6862,2.755,2.8159,0.0,0.0,0.0,0.0,0.0,0.0,0.0,0.0,0.0,0.0,2.3746,2.5145,0.0,0.0,0.0,0.0,0.0,0.0,0.0,2.489,2.459,2.3718,2.3645,2.3547,2.3357,2.2951,2.3199,2.4124,2.4247,2.4822,2.5872,2.6563,2.6371,2.5437,2.5489,2.4519,2.2951,2.3785,2.368,2.3005,2.3366,2.3593,2.364,0.0,0.0,0.0,0.0,0.0,0.0,0.0,0.0,0.0,2.5454,2.6211,2.7204,2.7706,2.867,2.9759,3.0652,3.1819,3.283,3.2965,3.3345,3.3677,3.3706,3.4363,3.5053,3.535,3.4892,3.3964,3.2388,3.1781,0.0,3.0358,2.978,0.0,0.0,0.0,0.0,0.0,0.0,0.0,0.0,0.0,0.0,0.0,0.0,0.0,0.0,2.5676,0.0,0.0,2.564,2.5664,2.5693,2.5659,2.5661,2.5697,2.5699,2.5702,2.5703,2.5702,2.5406,2.4895,2.5372,2.5211,2.4612,2.4976,2.5099,2.5095,2.5373,2.5901,2.6572,2.7285,2.8016,2.868,0.0,0.0,0.0,0.0,0.0,0.0,0.0,0.0,0.0,0.0,2.2582,2.3656,0.0,0.0,0.0,0.0,0.0,0.0,0.0,0.0,2.3561,2.2695,2.2752,2.3232,2.4199,2.3383,2.4157,2.6621,2.5674,2.5956,2.7376,2.6637,2.564,2.4447,2.3866,2.3031,2.2097,2.2324,2.1876,2.1095,2.1888,2.1751,2.1142,2.2133,0.0,0.0,0.0,0.0,0.0,0.0,0.0,0.0,2.6416,2.6715,2.747,2.9508,3.0509,3.1588,3.4493,3.4899,3.4853,3.6286,3.5516,3.4391,3.4392,3.373,3.3387,3.4177,3.3086,3.1932,3.1788,3.1116,3.03,2.9511,2.9312,0.0,0.0,0.0,0.0,0.0,0.0,0.0,0.0,0.0,0.0,0.0,0.0,0.0,0.0,2.5655,0.0,2.5703,2.5702,2.5702,2.5703,2.5698,2.5699,0.0,2.5703,2.5702,2.5698,2.5703,2.5659,2.558,2.5449,2.5345,2.5284,2.5205,2.5107,2.5089,2.5882,2.6556,2.7198,2.8087,2.8783,2.9301,0.0,0.0,0.0,0.0,0.0,0.0,0.0,0.0,0.0,0.0,0.0,0.0,0.0,0.0,0.0,0.0,0.0,0.0,0.0,0.0,2.1715,2.0881,2.1619,2.276,2.4316,2.4107,2.4927,2.6843,2.5788,2.5426,2.5711,2.5527,2.3915,2.1183,2.2321,2.1645,1.9771,2.1732,2.1723,2.0459,2.1273,2.1483,2.1406,2.2253,2.2993,0.0,0.0,0.0,0.0,0.0,0.0,0.0,2.7186,2.9183,3.1149,3.0461,3.2598,3.5063,3.4472,3.5177,3.6017,3.5705,3.4976,3.4177,3.3611,3.2337,3.1348,3.1582,3.1342,3.0682,2.9355,2.8963,2.8783,2.8584,0.0,0.0,0.0,0.0,0.0,0.0,0.0,0.0,0.0,0.0,0.0,0.0,0.0,0.0,2.4726,0.0,0.0,2.5703,2.57,2.5698,2.5702,2.5697,2.5694,0.0,2.5709,2.5698,2.5701,2.571,2.5652,2.5585,2.5352,2.5264,2.5274,2.5056,2.4974,2.5069,2.583,2.6204,2.6494,2.7882,2.8502,2.8671,0.0,0.0,0.0,0.0,0.0,0.0,0.0,0.0,0.0,0.0,0.0,0.0,0.0,0.0,0.0,0.0,0.0,0.0,0.0,0.0,2.1077,2.0386,2.1282,2.2402,2.3705,2.4516,2.557,2.6903,2.6343,2.5827,2.534,2.4927,2.3312,2.0793,2.1243,2.0753,1.9627,2.0499,2.0165,1.9116,1.9969,2.0023,1.9873,2.1957,2.3016,2.3544,2.4841,0.0,0.0,0.0,0.0,0.0,0.0,0.0,3.2106,3.2034,3.3582,3.5455,3.6162,3.6446,3.6441,3.5997,3.535,3.453,3.3363,3.215,3.0931,2.9751,2.9559,2.9345,2.8453,2.8279,2.8124,2.7734,0.0,0.0,0.0,0.0,0.0,0.0,0.0,0.0,0.0,0.0,0.0,0.0,0.0,2.5508,2.5054,2.5444,2.5696,2.5652,2.5659,2.5654,2.5642,2.5654,2.5648,2.5645,2.5642,2.5648,2.5654,2.5615,2.5757,2.6017,2.585,2.5734,2.5683,2.5595,2.5551,2.5556,2.5947,2.6594,2.739,2.8142,2.8688,2.9099,0.0,0.0,0.0,0.0,0.0,0.0,0.0,0.0,0.0,0.0,0.0,0.0,0.0,0.0,0.0,0.0,0.0,0.0,0.0,0.0,0.0,2.0593,2.1625,2.2591,2.3416,2.4997,2.6172,2.6905,2.6757,2.6126,2.5082,2.4335,2.297,2.1073,2.0487,2.019,2.006,1.9491,1.8792,1.8096,1.8833,1.8648,1.8297,2.1313,2.2623,2.3045,2.4697,2.5309,2.5348,2.5504,0.0,0.0,0.0,0.0,3.1699,3.3257,3.3964,3.4786,3.7524,3.7373,3.6511,3.664,3.6112,3.511,3.3359,3.2278,3.0953,2.8553,2.8062,2.8017,2.7854,2.7795,2.7507,0.0,0.0,0.0,0.0,0.0,0.0,0.0,0.0,0.0,0.0,0.0,0.0,0.0,0.0,2.5625,2.5476,2.5606,2.5658,2.5605,2.5593,2.5589,2.5593,2.5601,2.5598,2.56,2.5593,2.5571,2.5583,2.5511,2.5777,2.6303,2.6389,2.6314,2.6171,2.6252,2.6242,2.6155,2.6254,2.7157,2.8388,2.8536,2.9099,2.9755,0.0,0.0,0.0,0.0,0.0,0.0,0.0,0.0,0.0,0.0,1.899,1.9738,0.0,0.0,0.0,0.0,0.0,0.0,2.0807,0.0,0.0,2.1265,2.2933,2.4277,2.5149,2.62,2.6782,2.6906,2.6149,2.4961,2.3417,2.3235,2.185,1.9535,2.0103,1.9997,1.9386,2.0032,1.9804,1.9015,1.9139,1.9102,1.9127,2.0282,2.1666,2.3106,2.4097,2.4899,2.5596,2.634,2.6715,0.0,0.0,0.0,3.081,3.2524,3.3987,3.5133,3.5556,3.6001,3.6519,3.7259,3.6819,3.5575,3.3341,3.1628,3.0015,2.8289,2.7479,2.6864,2.6108,2.599,2.5752,0.0,0.0,0.0,0.0,0.0,0.0,0.0,0.0,0.0,0.0,0.0,0.0,0.0,2.5152,2.5278,2.4525,2.5195,2.56,2.5595,2.5599,2.5599,2.5609,2.559,2.559,2.5609,2.5549,2.5512,2.5507,2.5448,2.5453,2.5581,2.6203,2.6462,2.6438,2.6327,2.6293,2.6322,2.6911,2.7283,2.7625,2.8877,2.9514,2.9683,0.0,0.0,0.0,0.0,0.0,0.0,0.0,0.0,0.0,0.0,0.0,1.85,0.0,0.0,0.0,1.955,1.884,1.8669,1.9359,2.0496,2.1172,2.1281,2.3043,2.4463,2.5367,2.6306,2.6573,2.6116,2.5765,2.4237,2.165,2.1602,2.097,1.9901,2.0744,2.0668,1.9908,2.0321,2.0289,1.9883,1.9407,2.0053,2.1366,2.1711,2.2935,2.4514,2.4928,2.5291,2.562,2.5962,2.6378,2.6876,2.7537,0.0,0.0,0.0,3.257,3.4088,3.5451,3.6045,3.6635,3.7947,3.6882,3.5151,3.3742,3.2101,3.0279,2.8255,2.7245,2.634,2.5109,2.491,2.4646,0.0,0.0,0.0,0.0,0.0,0.0,0.0,0.0,0.0,0.0,0.0,0.0,0.0,2.5124,2.542,2.4993,2.5329,2.5537,2.5544,2.5531,2.5531,2.5544,2.5544,2.5544,2.5544,2.5441,2.5376,2.5331,2.5214,2.5472,2.6023,2.6324,2.6675,2.702,2.6536,2.6578,2.6963,2.7278,2.7633,2.81,2.9158,2.9569,2.9569,0.0,0.0,0.0,0.0,0.0,0.0,0.0,0.0,0.0,0.0,0.0,0.0,0.0,0.0,0.0,0.0,1.69,1.7034,1.8143,1.9902,2.0984,2.1091,2.2871,2.43,2.5235,2.6176,2.6265,2.5459,2.5293,2.3567,2.048,2.0249,2.0116,2.0116,2.0996,2.1152,2.0742,2.1015,2.1147,2.1097,2.0661,2.1636,2.3384,2.382,2.4801,2.5936,2.6015,2.599,2.5889,2.5615,2.5951,2.6512,2.6602,2.8077,0.0,0.0,0.0,3.2882,3.5094,3.5666,3.5989,3.747,3.6501,3.4908,3.3764,3.2349,3.0585,0.0,2.7149,2.6118,2.4542,2.4263,2.3939,0.0,0.0,0.0,0.0,0.0,0.0,0.0,0.0,0.0,0.0,0.0,0.0,0.0,2.5195,2.5538,2.549,2.5464,2.5468,2.5472,2.5476,2.5464,2.5472,2.5488,2.548,2.5445,2.536,2.5264,2.5173,2.5056,2.5406,2.609,2.6269,2.6663,2.7153,2.6605,2.6678,2.7127,2.7123,2.7538,2.8253,2.8989,2.9344,2.9472,0.0,0.0,0.0,0.0,0.0,0.0,0.0,0.0,0.0,0.0,0.0,0.0,1.6392,1.6686,1.6754,1.6341,1.6201,1.6636,1.783,1.9681,2.0752,2.0821,2.2685,0.0,2.5084,2.6028,2.614,2.5421,2.4521,2.2817,2.0394,1.9555,1.9177,1.9216,2.0156,2.096,2.1689,2.2516,2.2864,2.2945,2.3715,2.4113,2.4408,2.6061,2.6739,2.6838,2.6919,2.6894,2.6708,2.587,2.5615,2.5776,2.6482,2.7351,2.8415,0.0,0.0,0.0,3.3579,3.3933,3.4053,3.4982,3.557,3.5318,3.3014,3.1834,3.0516,2.812,2.7083,2.6102,2.4419,2.4164,2.3663,0.0,0.0,0.0,0.0,0.0,0.0,0.0,0.0,0.0,0.0,0.0,0.0,0.0,2.5418,2.5401,2.5415,2.5416,2.5407,2.5407,2.5406,2.5415,2.5415,2.5476,2.544,2.5302,2.5303,2.5233,2.5096,2.5025,2.498,2.5042,2.5848,2.6274,2.6363,2.6317,2.6322,2.6346,2.6155,2.6575,2.7358,2.8017,2.8742,2.9412,0.0,0.0,0.0,0.0,0.0,0.0,0.0,0.0,0.0,0.0,0.0,0.0,0.0,1.603,1.5688,1.5279,1.5881,1.6501,1.7026,1.9311,2.0902,2.1483,2.2801,2.42,2.565,2.559,2.5184,2.4445,2.3573,2.19,1.9437,1.9162,1.9013,1.9037,2.0584,2.1415,2.1726,2.3159,2.3742,2.3741,2.4057,2.515,2.6618,2.6786,2.788,2.9277,2.8786,2.8596,2.8515,2.8213,2.7365,2.6461,2.6683,2.736,2.836,2.9938,3.0956,3.168,3.2206,3.2699,3.3242,3.4027,3.3996,3.3525,3.2705,3.1832,3.0535,2.8139,2.7465,2.6653,2.4438,2.413,2.3823,0.0,0.0,0.0,0.0,0.0,0.0,0.0,0.0,0.0,0.0,0.0,0.0,0.0,0.0,0.0,2.5341,2.5303,2.5283,2.5322,2.5293,2.5303,2.5332,2.5351,2.5332,2.5233,2.5138,2.5043,2.4915,2.4842,2.4772,2.4723,2.5088,2.5578,2.6186,2.6176,2.6498,2.6995,2.688,2.7276,2.7941,2.8185,2.8369,2.8561,0.0,0.0,0.0,0.0,0.0,0.0,0.0,0.0,0.0,1.6243,0.0,0.0,0.0,0.0,1.4981,1.4571,1.5573,1.6388,1.677,1.8812,2.0526,2.1674,2.2511,2.373,2.5458,2.5135,2.4549,2.3802,2.2977,2.1435,1.9256,1.9033,1.889,1.8932,2.0441,2.1429,2.2057,2.3805,2.4513,2.458,2.5398,2.6593,2.797,2.8888,2.9979,3.1006,3.0795,3.0555,3.0294,3.0039,2.8974,2.7713,2.7347,2.7421,2.7958,2.9555,3.0392,3.0856,3.1098,3.1511,3.2087,3.2832,3.2368,3.177,3.2088,3.1466,3.0247,2.8134,2.7918,2.7374,2.4878,2.4753,2.4535,2.3091,0.0,0.0,0.0,0.0,0.0,0.0,0.0,0.0,0.0,0.0,0.0,0.0,0.0,0.0,2.5264,2.5262,2.5252,2.5302,2.5262,2.5252,2.5311,2.5311,2.5239,2.513,2.505,2.4915,2.4749,2.4645,2.4582,2.4566,2.4568,2.5129,2.6035,2.6019,2.6563,2.7299,2.6951,2.7226,2.7849,2.783,2.7921,2.8128,0.0,0.0,0.0,0.0,0.0,0.0,0.0,0.0,1.571,1.5782,0.0,0.0,0.0,0.0,0.0,1.425,1.5269,1.6285,1.7127,1.8181,1.9578,2.1313,2.1762,2.2771,2.4458,2.4676,2.4392,2.3592,2.272,2.1525,2.0007,1.9133,1.8773,1.8859,1.9659,2.0986,2.2709,2.4418,2.5207,2.5533,2.795,2.8485,2.8315,3.241,3.3051,3.189,3.2811,3.2681,3.1948,3.1163,3.0292,2.9377,2.8416,2.7472,2.7071,2.8772,2.9223,2.9352,0.0,0.0,0.0,3.1158,3.0686,3.0232,3.1058,3.0639,2.9626,2.807,2.8422,2.8272,2.5831,2.6053,2.5832,2.334,0.0,0.0,0.0,0.0,0.0,0.0,0.0,0.0,0.0,0.0,0.0,0.0,0.0,2.5271,2.5192,2.5252,2.5302,2.5303,2.5302,2.5301,2.5301,2.5301,2.5176,2.4993,2.5,2.4893,2.4701,2.4495,2.4444,2.45,2.4358,2.4891,2.5895,2.5895,2.6399,2.7109,2.6165,2.63,2.7028,2.6897,2.7341,2.8114,0.0,0.0,0.0,0.0,0.0,0.0,1.4814,1.493,1.5121,0.0,0.0,0.0,1.5118,1.4947,1.4897,1.4916,1.5795,1.6489,1.6893,1.7918,1.9296,2.1095,2.1442,2.2374,2.4099,2.4337,2.4066,2.3313,2.2528,2.1647,2.0703,1.9887,1.9491,1.948,2.0344,2.1287,2.2324,2.3579,2.4827,2.6021,2.6749,2.7966,2.9444,3.0725,3.2105,3.3403,3.3766,3.3828,3.3718,3.3598,3.2153,3.0175,2.865,2.7987,2.7873,2.8288,2.8422,2.8318,2.7881,0.0,0.0,0.0,0.0,0.0,2.9442,2.9448,2.9174,2.874,2.883,2.8593,2.7278,2.7263,2.7217,2.6462,0.0,0.0,0.0,0.0,0.0,0.0,0.0,0.0,0.0,0.0,0.0,0.0,2.5217,2.5206,2.5198,2.5217,2.5225,2.5236,2.5225,2.5225,2.5225,2.5172,2.5069,2.4926,2.4879,2.4783,2.4615,2.4515,2.4446,2.443,2.4284,2.4727,2.5541,2.5653,2.6227,2.6953,2.5968,2.6506,2.7639,2.6318,2.5924,2.6266,0.0,0.0,0.0,0.0,0.0,1.4007,1.4369,1.4501,1.469,0.0,0.0,0.0,1.5174,1.4844,1.4847,1.5318,1.5934,1.6498,1.698,1.7752,1.8815,2.0244,2.0954,2.1984,2.3391,2.3933,2.4007,2.3617,2.2901,2.2346,2.1942,2.1134,2.0554,2.0204,2.1045,2.1652,2.2077,2.3045,2.4252,2.5626,2.6717,2.7811,2.8936,3.0481,3.1809,3.2928,3.3449,3.3708,3.3828,3.3939,3.2537,3.0456,2.8768,2.7973,2.7647,2.7604,2.7595,2.7568,2.7375,2.7389,2.7406,2.7229,0.0,0.0,2.8699,2.8763,2.8586,0.0,2.927,2.9123,2.7911,2.802,2.8122,2.7727,0.0,0.0,0.0,0.0,0.0,0.0,0.0,0.0,0.0,2.5149,2.5153,2.5157,2.5176,2.5195,2.5187,2.5195,2.5203,2.5203,2.5203,2.5203,2.5191,2.5125,2.5032,2.4893,2.4827,2.4707,2.4547,2.441,2.4339,2.4303,2.4153,2.4351,2.4829,2.487,2.5649,2.6746,2.5777,2.6015,2.6829,2.6121,2.5839,2.6015,0.0,0.0,0.0,1.3991,1.4038,1.4139,1.4326,1.437,1.452,0.0,1.5276,1.5359,1.4971,1.4669,1.481,1.5568,1.5959,1.6475,1.7191,1.7765,1.841,1.9144,2.0506,2.1604,2.2393,2.3484,2.4041,2.4025,2.3454,2.3189,2.3236,2.2452,2.1652,2.0964,2.1662,2.2001,2.2062,2.2788,2.3661,2.4757,2.7137,2.7848,2.7804,3.0916,3.1798,3.1521,3.2431,3.2846,3.296,3.2948,3.2072,3.0645,2.8843,2.7832,2.7245,2.6878,2.6827,2.705,2.7722,2.736,2.698,2.7687,2.676,0.0,2.8489,2.8368,2.8007,0.0,2.9513,2.9595,2.8122,2.8498,2.8796,2.7992,2.7818,0.0,0.0,0.0,0.0,0.0,0.0,0.0,2.5132,2.5197,2.5196,2.5101,2.516,2.5195,2.5195,2.5195,2.5195,2.5195,2.5195,2.5184,2.5199,2.5113,2.5032,2.4888,2.4832,2.4695,2.4495,2.4248,2.4153,2.419,2.3976,2.3917,2.3976,2.3915,2.4926,2.6484,2.5534,2.5333,2.563,2.6231,2.6469,2.6666,0.0,0.0,1.4372,1.4724,1.5,1.5233,1.5366,1.5039,1.5092,1.5965,1.6066,1.5794,1.5228,1.5467,1.5729,1.582,1.6721,1.7178,1.6908,1.8339,1.9144,1.9035,2.058,2.1383,2.1231,2.2841,2.3443,2.2912,2.2996,2.3015,2.2959,2.2271,2.1842,2.1697,2.1795,2.2167,2.2721,2.2922,2.3509,2.4393,2.576,2.7418,2.9139,2.9926,3.0978,3.207,3.2433,3.263,3.2699,3.2212,3.2305,3.2116,2.9156,2.9023,2.9422,2.6738,2.6385,2.6772,2.6242,2.6493,2.6918,2.7006,2.7309,0.0,2.8116,2.8048,2.7911,0.0,2.8675,2.9136,2.8804,2.941,2.9884,2.9641,2.9559,0.0,0.0,0.0,0.0,0.0,0.0,0.0,2.5958,2.5991,2.5779,2.5063,2.5095,2.5107,2.5107,2.5107,2.5107,2.5107,2.5107,2.5126,2.5126,2.5051,2.4953,2.4823,2.4802,2.4695,2.4495,2.4321,2.421,2.4115,2.3899,2.3831,2.3828,2.3718,2.4791,2.6417,2.5426,2.5899,2.7077,2.6477,2.6227,2.6307,1.3823,1.44,1.4788,1.5031,1.5285,1.5436,1.5524,1.5312,1.526,1.5559,1.5438,1.5213,1.498,1.527,1.5536,1.5652,1.6575,1.7126,1.7035,1.8307,1.8914,1.8602,2.0297,2.1078,2.0718,2.2458,2.3285,2.3106,2.3275,2.3394,2.3453,2.3144,2.3033,2.3033,2.2978,2.3143,2.3434,2.3434,2.373,2.4246,2.5319,2.6469,2.7662,2.8634,2.9551,3.0377,3.0918,3.1203,3.1312,3.1083,3.1298,0.0,2.9322,2.9298,2.9502,0.0,2.657,2.6715,2.5878,2.5968,2.6381,2.6763,0.0,0.0,0.0,2.7666,2.7422,2.7778,2.8126,2.8394,2.8364,2.9014,2.968,3.0045,3.0367,3.0281,0.0,0.0,0.0,0.0,0.0,0.0,2.679,2.683,2.6564,2.5722,2.5311,2.5107,2.5107,2.512,2.5139,2.5101,2.5095,2.5082,2.5057,2.5031,2.4977,2.4903,2.4723,2.4596,2.4495,2.4229,2.4057,2.3979,2.3813,2.3725,2.3696,2.3585,2.4379,2.5574,2.4693,2.4918,2.575,2.6059,2.5997,2.5955,1.3682,1.4548,1.5248,1.5466,1.5647,1.5724,1.5788,1.5709,1.5443,1.4902,1.4884,1.4886,1.4814,1.5107,1.5458,1.5837,1.6553,1.7179,1.7592,1.8438,1.8831,1.8578,2.0202,2.0974,2.0632,2.2244,2.3177,2.3271,2.3534,2.3753,2.3935,2.418,2.4331,2.4389,2.4476,2.449,2.4431,2.4247,2.4233,2.4388,2.5134,2.5485,2.5782,2.7569,2.8277,2.839,2.9139,2.9655,2.9953,2.9904,2.9997,3.0011,2.9147,2.9166,0.0,0.0,0.0,0.0,0.0,0.0,0.0,0.0,0.0,2.6612,0.0,0.0,0.0,2.7556,2.7613,2.7654,2.7941,0.0,0.0,0.0,0.0,0.0,0.0,2.9787,0.0,0.0,0.0,0.0,0.0,2.7521,2.7129,2.6303,2.5646,2.5222,2.5051,2.5088,2.5107,2.5044,2.5051,2.5051,2.498,2.4977,2.495,2.4936,2.4626,2.4478,2.4444,2.4096,2.3896,2.3876,2.3743,2.3652,2.358,2.3517,2.3897,2.4485,2.4046,2.4118,2.4581,2.5798,2.6086,2.6114,1.4988,1.557,1.6068,1.6594,1.6946,1.7165,1.7165,1.6784,1.612,1.5122,1.6037,1.635,1.5264,1.5841,1.6677,1.7519,1.7932,1.8288,1.8694,1.9639,2.0064,1.9821,2.0907,2.1354,2.1044,2.222,2.2596,2.2078,2.3048,2.3562,2.3656,2.4638,2.5051,2.5026,2.5754,2.6041,2.6004,2.5403,2.5152,2.5118,2.4653,2.4875,2.5709,2.7392,2.7999,2.7996,2.8277,2.9006,2.9729,0.0,2.9342,2.976,0.0,2.884,2.9578,2.6482,0.0,0.0,0.0,0.0,0.0,0.0,2.7996,0.0,0.0,0.0,2.6812,2.6919,0.0,2.72,2.8739,0.0,0.0,0.0,0.0,0.0,3.0807,3.017,2.955,0.0,0.0,0.0,0.0,2.7704,2.6965,2.6098,2.6012,2.5649,2.4879,2.4837,2.4837,2.4823,2.4884,2.4912,2.4912,2.4856,2.4798,2.4738,2.4578,2.4409,2.4229,2.4057,2.3917,2.3795,2.3678,2.362,2.3588,2.3448,2.3442,2.3531,2.429,2.5446,2.6731,2.6795,2.7184,2.7741,1.4534,1.5583,1.6443,1.6655,1.7316,1.7646,1.7193,1.7003,1.6705,1.5949,1.6496,1.6596,1.5721,1.64,1.7163,1.779,1.8677,1.9397,1.9927,2.04,2.0736,2.0901,2.1135,2.133,2.1461,2.2184,2.2513,2.2364,2.2957,2.3348,2.3517,2.4509,2.5258,2.5737,2.6082,2.6545,2.6995,2.6217,2.5658,2.5285,2.4997,2.4798,0.0,2.6074,2.7128,2.8036,2.8526,2.9058,2.9476,0.0,2.9326,0.0,0.0,0.0,0.0,2.7201,0.0,0.0,0.0,0.0,0.0,0.0,0.0,0.0,2.7112,0.0,2.6851,0.0,0.0,0.0,0.0,0.0,0.0,0.0,2.984,0.0,0.0,0.0,3.0941,0.0,0.0,0.0,0.0,0.0,0.0,0.0,2.6973,2.6333,2.554,2.5465,2.5239,2.4802,2.4832,2.4798,2.4734,2.4707,2.466,2.4578,2.4409,2.4284,2.4192,2.3978,2.3837,2.3795,2.3656,2.3557,2.3483,2.3437,2.3348,2.3276,2.3583,2.4282,2.5223,2.5984,2.5975,2.5749,1.4508,1.5636,1.6583,1.6901,1.7471,1.7738,1.7193,1.7212,1.7072,1.6652,1.6875,1.691,1.6315,1.7167,1.8012,1.8551,1.9495,2.0338,2.1084,2.0872,2.1144,2.2066,2.1555,2.1537,2.2238,2.2505,2.263,2.2632,2.2944,2.3168,2.333,2.4581,2.5391,2.5868,2.6542,2.712,2.7482,2.69,2.6235,2.5573,2.5395,2.4847,2.4262,2.5311,2.6622,2.7994,2.8504,2.896,2.9233,2.9029,2.8996,0.0,2.9195,0.0,2.8007,0.0,0.0,0.0,2.5553,0.0,0.0,0.0,0.0,0.0,0.0,0.0,0.0,0.0,0.0,0.0,0.0,0.0,2.8241,2.8836,0.0,2.988,0.0,3.0602,0.0,0.0,0.0,0.0,0.0,0.0,0.0,2.8819,2.7939,2.7097,2.6324,2.6005,2.5611,2.5083,2.4839,2.4676,2.461,2.4561,2.453,2.4479,2.4266,2.4154,2.4135,2.3917,2.3792,2.3789,2.3867,2.3731,2.3413,2.372,2.3569,2.3207,2.3474,2.3533,2.364,2.5359,2.5492,2.5109,1.5642,1.5924,1.6445,1.7826,1.7689,1.7459,1.7638,1.7515,1.7262,1.6834,1.7396,1.7664,1.7219,1.8407,1.9613,2.0513,2.0641,2.1124,2.2157,2.1119,2.1323,2.3359,2.2393,2.2385,2.3703,2.3379,2.2958,2.2515,2.2842,2.3045,2.3137,2.5135,2.5661,2.5054,2.7459,2.8123,2.7417,2.7447,2.7045,2.6312,2.567,2.4945,2.445,0.0,2.6854,2.7716,2.7734,0.0,0.0,2.8165,2.7935,0.0,0.0,0.0,0.0,0.0,0.0,0.0,0.0,0.0,0.0,2.5925,0.0,0.0,0.0,0.0,2.619,0.0,0.0,0.0,0.0,2.6633,2.6215,2.861,2.7521,0.0,0.0,0.0,0.0,0.0,0.0,0.0,0.0,0.0,0.0,2.9528,2.8707,2.7886,2.7008,2.617,2.5741,2.5775,2.4957,2.4547,2.4599,2.4459,2.4409,2.4412,2.419,2.4074,2.3996,2.3871,2.3765,2.3736,2.4436,2.4225,2.3472,2.4451,2.4146,2.3252,2.4604,2.4136,2.3032,2.5561,2.69,2.7473,1.6062,1.677,1.7394,1.8004,1.8394,1.9057,2.0198,1.9551,1.8967,1.8863,1.8769,1.848,1.7915,1.91,2.0105,2.0641,2.1513,2.2308,2.2936,2.2322,2.2783,2.473,2.339,2.3401,2.5095,2.3944,2.3287,2.3232,2.3614,2.3874,2.4067,2.5361,2.6183,2.6597,2.7429,2.8034,2.8354,2.7802,2.7173,2.6475,2.5752,2.5667,2.5984,0.0,0.0,2.7079,2.8026,2.8273,0.0,2.8323,2.8026,2.7684,2.8223,2.7585,2.6589,2.6411,2.6409,0.0,0.0,0.0,2.7289,2.5697,0.0,0.0,0.0,0.0,0.0,0.0,0.0,0.0,0.0,2.7614,2.7215,2.7381,2.7292,2.7233,0.0,0.0,0.0,0.0,0.0,0.0,0.0,0.0,0.0,2.9485,2.9068,2.8526,2.7729,2.7294,2.663,2.5634,2.5264,2.4838,2.434,2.4284,2.4229,2.4152,2.4604,2.4506,2.3953,2.4896,2.4748,2.3809,2.4688,2.5272,2.5497,2.4435,2.399,2.4112,2.4985,2.5572,2.596,2.6847,2.7385,2.7561,1.6612,1.7397,1.7989,1.8568,1.9517,2.0506,2.1486,2.0872,2.0277,2.0172,1.967,1.907,1.8391,1.9572,2.0514,2.0753,2.2033,2.2994,2.3392,2.2984,2.3508,2.5207,2.4363,2.4507,2.5944,2.5077,2.4428,2.4047,2.4468,2.4452,2.4074,2.5368,2.6189,2.6584,2.7193,2.7833,2.8424,2.8182,2.7638,2.6903,2.5884,2.604,0.0,0.0,2.6738,2.7134,0.0,2.8257,2.7661,2.808,2.7705,2.7126,2.7645,2.7009,2.6093,2.6158,2.6061,2.5745,2.4945,2.5887,0.0,2.5548,2.5928,0.0,2.652,0.0,0.0,0.0,0.0,0.0,0.0,2.7243,2.7055,2.6688,2.6472,2.6162,0.0,2.623,0.0,0.0,0.0,3.032,0.0,0.0,3.1017,3.0241,2.9579,2.8978,0.0,0.0,2.735,2.6386,2.5954,2.5525,2.5012,2.4996,2.4935,2.4871,2.536,2.5281,2.4744,2.5669,2.5535,2.4605,2.5486,2.6058,2.6315,2.5456,2.4989,2.4954,2.5827,2.6293,2.649,2.6953,2.7313,2.7426,1.737,1.7869,1.8522,1.9738,2.0964,2.1763,2.1705,0.0,2.1105,2.077,2.0198,1.9487,1.8627,1.9955,2.0922,2.0922,2.2251,2.3231,2.3507,2.3137,0.0,0.0,2.5246,2.5733,2.6397,0.0,2.6207,2.5038,2.5345,2.4742,2.3358,2.5225,2.5755,2.5199,2.6863,2.7624,2.7739,2.8516,2.8393,2.7592,2.6145,2.6153,2.7028,2.6913,2.7251,2.7862,2.8571,2.825,2.7538,2.7431,2.6933,2.6308,2.6209,2.579,2.5301,2.5368,2.5579,2.5646,2.4975,2.5485,2.6045,2.5393,0.0,0.0,0.0,0.0,2.5096,0.0,0.0,0.0,0.0,0.0,2.5777,2.6563,2.5149,2.4143,2.4644,2.5373,2.6444,0.0,0.0,3.0225,3.2581,3.1422,3.0824,3.1615,3.0154,2.9222,0.0,0.0,2.7864,2.7889,2.6966,2.6457,2.6483,2.6439,2.6399,2.634,2.635,2.6304,2.6181,2.6206,2.6087,2.5947,2.677,2.6683,2.6027,2.7422,2.7055,2.5693,2.7081,2.6406,2.4806,2.5947,2.6809,2.7303,1.8508,2.016,2.1865,2.3288,2.3197,2.3257,0.0,0.0,0.0,0.0,2.0949,1.9695,1.9226,2.0248,2.1044,2.1181,2.2352,0.0,0.0,0.0,0.0,2.4958,2.5519,2.6524,2.7972,2.6808,2.6347,2.6674,2.5823,2.5341,2.5155,2.5793,2.638,2.6936,2.7451,2.8072,2.8691,2.8327,2.8098,2.7911,2.6989,2.7512,2.8762,0.0,2.8285,2.8898,2.886,2.7926,2.6786,2.7198,2.6444,2.5466,2.5953,2.5683,2.5163,2.5226,2.5465,2.5558,2.4853,2.5363,2.582,2.4514,2.4598,2.4878,0.0,0.0,0.0,0.0,0.0,0.0,0.0,0.0,0.0,2.6636,2.5659,2.4808,2.4842,2.4982,0.0,2.723,0.0,0.0,3.0155,3.0525,3.0426,2.9909,2.9462,2.9156,2.9085,0.0,0.0,2.7846,2.7537,2.7068,2.6425,2.6447,2.6217,2.5669,2.6656,2.6819,2.6224,2.7277,2.7076,2.6035,2.7245,2.7699,2.7602,2.788,2.7409,2.6543,2.7361,2.7285,2.6678,2.6324,2.67,2.7303,1.9864,2.192,2.3908,2.5081,0.0,0.0,2.5433,2.4465,0.0,2.3747,2.2285,0.0,2.0419,2.0917,2.1344,2.145,2.2636,0.0,2.3239,0.0,0.0,2.513,2.6015,2.7055,2.8308,2.7519,0.0,2.7461,2.6535,2.602,2.5886,2.6063,2.6667,2.7652,2.7743,2.829,2.9115,2.8695,2.8621,2.8745,2.7905,2.8372,0.0,2.8615,2.8723,2.9307,2.9134,2.7993,2.6585,2.6881,2.5947,2.4723,2.5135,2.5017,2.4734,2.4832,2.5005,2.5108,2.482,2.4884,2.4858,2.4087,2.3764,2.361,2.3501,2.3287,2.3456,0.0,0.0,0.0,0.0,0.0,0.0,2.5619,2.5669,2.5401,2.4537,0.0,0.0,0.0,2.7488,0.0,2.94,2.9878,2.9996,2.9798,2.9359,2.9089,0.0,0.0,0.0,2.8311,2.8529,2.8257,2.7396,2.7396,2.7217,2.6802,2.7531,2.7633,2.718,2.7942,2.7799,2.7014,2.7715,2.8099,2.8144,2.801,2.767,2.7257,2.7174,2.729,2.7391,2.6474,2.6658,2.7241,2.1826,2.365,2.5255,2.5958,2.6361,0.0,0.0,2.586,0.0,2.4672,0.0,2.2561,2.1635,2.1749,2.1849,2.1783,2.3013,2.3921,2.4179,2.4368,2.4729,2.5271,2.6307,2.73,2.8151,2.8301,2.8262,0.0,2.7268,2.6649,2.617,2.6296,2.6845,2.7724,2.7959,2.851,2.9243,2.9304,2.947,2.9626,2.8708,2.8875,2.9623,2.8743,2.8858,2.9433,2.9347,2.8204,2.6698,2.6628,2.5539,2.4248,2.4229,2.4229,2.4248,2.4375,2.4462,2.4559,2.4832,2.4333,2.3727,2.382,2.2662,2.187,2.3292,2.2532,2.2211,2.4602,2.4633,2.4531,0.0,0.0,0.0,2.4598,2.5515,0.0,0.0,0.0,0.0,0.0,0.0,0.0,0.0,2.947,2.9622,3.0305,2.954,2.9099,0.0,0.0,0.0,2.9258,2.9703,0.0,2.8882,0.0,2.863,2.8587,2.8536,2.8458,2.8362,2.83,2.8264,2.82,2.8099,2.8071,2.8099,2.7946,2.7888,2.7789,2.69,2.6951,2.7409,2.6653,2.677,2.7195,2.5791,2.6556,2.7039,2.7395,2.7625,2.7364,2.6229,2.5409,2.4702,2.4169,2.3341,2.239,2.1318,2.2146,2.2586,2.2087,2.3259,0.0,0.0,0.0,0.0,2.4785,2.5375,2.6775,2.9041,2.8157,2.832,0.0,0.0,2.6968,2.7078,2.7206,2.7442,2.7824,2.8614,2.9177,2.953,2.9549,0.0,2.9697,2.8887,2.9038,2.9696,2.8868,2.9023,2.9626,2.9511,2.833,2.6838,2.6663,2.5652,2.4444,2.4391,2.4355,2.4391,2.4461,2.4528,2.4623,2.4837,2.4346,2.3636,2.3073,2.2201,2.1411,2.1046,2.0789,2.0982,2.2221,2.2938,2.3809,2.5406,0.0,0.0,0.0,0.0,0.0,0.0,0.0,0.0,0.0,0.0,2.971,0.0,0.0,2.9566,2.9597,2.9384,2.9502,0.0,0.0,0.0,0.0,0.0,0.0,0.0,0.0,2.8767,2.8587,2.8539,2.8406,2.8228,2.8209,2.8217,2.8182,2.8003,2.8003,2.8099,2.7836,2.7748,2.773,2.7531,2.7477,2.7478,2.7339,2.7269,2.7313,2.7587,2.7995,2.815,2.8303,0.0,0.0,0.0,2.5968,2.5448,2.4848,2.4158,2.3523,2.2979,2.3141,2.3064,2.2468,2.3297,2.3685,2.3262,2.3733,2.4243,2.4786,2.5528,2.6826,2.8784,2.8436,2.889,3.0251,0.0,0.0,2.8612,2.7924,2.7922,2.8559,2.9542,2.9863,2.9683,0.0,0.0,2.9823,2.9425,2.9534,2.9853,2.9423,2.9485,2.9792,2.9645,2.8821,2.7736,2.7509,2.6692,2.5706,2.5259,2.5111,2.5019,2.4694,2.4594,2.4561,2.4369,2.3746,2.2958,2.2249,2.1453,2.0713,2.0342,2.0334,2.0653,2.1554,2.2464,2.3629,2.5326,2.6328,0.0,0.0,0.0,0.0,0.0,0.0,2.7497,0.0,0.0,0.0,0.0,0.0,0.0,0.0,0.0,0.0,0.0,0.0,0.0,0.0,0.0,0.0,0.0,0.0,0.0,2.9176,2.9286,2.8936,2.8255,2.8246,2.8227,2.8182,2.8014,2.7957,2.7922,2.7689,2.763,2.763,2.7587,2.7496,2.7452,2.7421,2.7345,2.7313,2.8719,2.8914,2.8994,0.0,2.8768,0.0,2.6863,2.6776,2.6506,2.5481,2.4947,2.4583,2.4443,2.4108,2.3653,2.3022,2.3528,2.3793,2.3517,2.3941,2.4507,2.5174,2.5864,2.7012,2.8674,2.8823,2.9501,0.0,0.0,0.0,0.0,2.8772,2.8768,0.0,0.0,0.0,0.0,0.0,3.0544,2.9943,2.994,2.9972,3.0022,2.9972,2.9924,2.9912,2.9809,2.9377,2.8848,2.8615,2.7867,2.6951,2.6296,2.5926,2.5666,2.5129,2.4823,2.4546,2.3961,2.3175,2.2372,2.1665,2.0858,2.0225,2.0214,2.0455,2.0873,2.1551,2.2598,2.3897,2.5599,2.6311,0.0,0.0,0.0,0.0,0.0,0.0,2.7804,0.0,0.0,0.0,2.988,0.0,0.0,0.0,0.0,0.0,0.0,0.0,0.0,0.0,0.0,3.1936,3.1417,0.0,3.0405,0.0,3.0333,2.9855,2.8829,2.8801,2.8719,2.8653,2.8344,2.8052,2.773,2.7569,2.7526,2.7587,2.7469,2.7407,2.7407,2.7362,2.733,2.733,0.0,2.9977,0.0,0.0,0.0,0.0,2.7327,2.7301,2.6821,2.5089,2.4829,2.4547,2.3959,2.4461,2.4571,2.3844,2.4506,2.498,2.5102,2.4818,2.5095,2.611,2.5866,2.6922,2.9619,2.9148,2.9796,0.0,0.0,0.0,0.0,0.0,0.0,0.0,0.0,0.0,0.0,3.105,3.0698,3.0079,3.0068,3.0087,3.0087,3.0079,3.0034,2.9991,2.9975,2.9905,2.9765,2.9677,2.8586,2.7248,2.7104,2.6564,2.5963,2.5887,2.5404,2.4728,2.4005,2.3252,2.2498,2.1702,2.0883,2.0292,2.0289,2.0959,2.1598,2.1682,2.3081,2.4804,2.6559,2.629,2.6279,0.0,0.0,0.0,0.0,0.0,3.0067,3.0158,0.0,0.0,0.0,2.8578,0.0,0.0,2.9626,0.0,0.0,0.0,0.0,3.36,0.0,3.1649,3.201,3.1846,0.0,3.1592,3.1436,3.1088,3.0553,3.0373,3.0267,3.016,2.9343,2.8458,2.7617,2.7526,2.7526,2.7587,2.7469,2.7438,2.7465,2.7407,2.7362,2.733,0.0,0.0,0.0,0.0,0.0,0.0,0.0,2.8444,2.8005,2.6377,2.5635,2.5166,2.4916,2.5179,2.5088,2.4475,2.4685,2.4758,2.4517,2.4771,2.5278,2.5982,2.6838,2.814,3.0001,3.0397,3.1278,0.0,0.0,0.0,0.0,0.0,0.0,0.0,0.0,3.2562,3.195,3.1896,3.1471,3.0784,3.0338,3.0161,3.0161,3.0152,3.0138,3.0113,3.0064,3.0053,3.001,2.9943,2.9389,2.8647,2.8139,2.7405,2.6634,2.6189,2.5575,2.4753,2.3422,2.2885,2.2499,2.1709,2.0853,2.0389,2.0947,2.1378,2.1648,2.1687,2.3146,2.4779,2.5996,2.5932,2.591,0.0,0.0,0.0,0.0,0.0,0.0,3.0256,0.0,3.0226,3.0176,0.0,0.0,0.0,0.0,0.0,0.0,0.0,0.0,3.314,0.0,3.283,3.3003,3.2911,3.2555,3.197,3.235,3.1903,3.074,3.0653,3.0267,2.9609,2.917,2.8438,2.7622,2.7969,2.8129,2.8129,2.8051,2.8295,2.8639,2.8174,2.8263,2.861,3.0972,0.0,3.0446,0.0,3.0342,2.9969,2.9297,2.94,2.911,2.7844,2.6899,2.6188,2.577,2.5754,2.5651,2.525,2.5217,2.5056,2.4746,2.528,2.5782,2.6187,2.7693,0.0,3.0282,3.126,3.229,3.3397,3.2785,0.0,0.0,0.0,0.0,0.0,3.3618,3.3526,3.2854,3.259,3.2015,3.1291,3.0538,3.024,3.0221,3.0241,3.0247,3.024,3.0194,3.0152,3.0128,3.0098,2.9975,2.9713,2.9094,2.8341,2.749,2.6741,2.6015,2.512,2.3469,2.3052,2.292,2.2109,2.1443,2.117,2.184,2.2177,2.2456,2.2785,2.3878,2.4967,2.5582,2.5702,2.5785,2.6035,0.0,0.0,0.0,2.8423,0.0,3.0286,3.016,3.0017,3.0202,2.9108,0.0,0.0,0.0,0.0,0.0,0.0,0.0,0.0,0.0,0.0,0.0,3.3509,3.2857,3.1737,3.2679,3.2277,3.0671,3.0582,3.0018,2.9041,2.8925,2.8395,2.7622,2.8011,2.8325,2.8516,2.8418,2.8713,2.9143,2.8592,2.873,2.9179,3.087,3.0817,3.0725,3.0516,3.0609,3.0523,2.9967,3.0061,2.9938,2.9189,2.8493,2.7538,2.6165,2.6189,2.6295,2.6279,2.6332,2.6419,2.6471,2.6674,2.6906,0.0,0.0,2.9334,3.0487,3.1433,3.2448,3.3605,0.0,0.0,3.408,0.0,3.4607,3.4689,3.4812,3.4471,3.3722,3.2937,3.2161,3.1426,3.0625,3.0304,3.0316,3.0375,3.0352,3.0304,3.0367,3.0318,3.0221,3.0279,3.0213,3.0064,2.9929,2.9328,2.8525,2.7718,2.6968,2.6034,2.4423,2.4034,2.3893,2.3072,2.2875,2.2866,2.2882,2.3553,2.4426,2.5351,2.5609,2.5691,2.5702,2.5702,2.5982,2.6847,0.0,0.0,0.0,0.0,0.0,3.0482,2.9717,2.9437,3.0208,2.8677,0.0,0.0,0.0,0.0,0.0,0.0,0.0,3.3906,3.307,0.0,3.3797,3.3465,3.2475,3.0819,3.2294,3.2143,3.0582,3.034,2.9757,2.8981,2.8864,2.8334,2.7587,2.7469,2.7872,2.8595,2.8451,2.8435,2.8501,2.8435,2.8403,2.842,3.0815,3.0933,3.1031,3.1015,3.1179,3.1266,3.1145,3.1259,3.111,3.0421,3.0127,2.9644,2.8698,2.7487,2.6808,0.0,2.6858,2.6956,0.0,2.723,2.7612,2.8395,2.9425,3.0505,3.1632,3.2571,3.3369,3.3947,0.0,0.0,0.0,3.4666,3.479,3.4908,3.4964,3.4904,3.4661,3.3261,3.2594,3.2333,3.0936,3.0364,3.0375,3.0439,3.0428,3.0375,3.0439,3.0417,3.034,3.0414,3.0371,3.0292,3.0254,2.9218,2.7967,2.7708,2.6734,2.5466,2.4321,2.4083,2.4111,2.3855,2.335,2.3072,2.3702,2.41,2.4589,2.5477,2.5687,2.5691,2.57,2.5703,2.5793,2.6071,2.6564,0.0,0.0,0.0,2.9655,3.0443,3.0209,3.0063,0.0,2.9186,0.0,0.0,0.0,0.0,0.0,0.0,0.0,0.0,3.3427,0.0,3.366,3.3564,3.3164,3.2511,3.2152,3.1458,3.0469,3.0335,2.9801,2.8981,2.8864,2.8303,2.7561,2.8021,2.8618,2.9194,2.9211,2.9557,2.9938,2.9351,2.9506,2.9886,3.1083,3.124,3.1308,3.1148,3.1558,3.1704,3.1185,3.1725,3.1951,3.1214,3.1175,3.1032,3.0603,2.9267,0.0,2.8236,2.799,2.7927,2.8115,2.7894,2.82,2.9212,3.0237,3.1283,3.2374,0.0,0.0,3.4221,3.4591,3.4753,3.4749,3.515,3.5059,3.4599,3.4598,3.4666,3.4684,3.302,3.2557,3.2763,3.1124,3.0481,3.0481,3.0511,3.0511,3.0482,3.054,3.0521,3.0481,3.0511,3.0501,3.0481,3.0481,2.9496,2.8259,2.7909,2.6892,2.5685,2.4793,2.462,2.4684,2.473,2.4316,2.407,2.4651,2.4842,2.5036,2.5597,2.5698,2.5696,2.57,2.5976,2.6184,2.6195,2.6864,2.7688,2.8568,0.0,0.0,0.0,0.0,0.0,0.0,2.9953,2.9556,0.0,0.0,0.0,0.0,0.0,0.0,3.3876,3.4336,0.0,3.3605,3.3564,3.3038,3.2061,3.0819,3.0118,2.9917,2.9496,2.9017,2.8511,2.8408,2.8054,2.7561,2.8001,2.8722,2.9506,2.923,2.9748,3.047,2.9369,2.9678,3.0523,3.1617,3.1694,0.0,0.0,3.1742,0.0,3.0533,3.1629,3.2396,3.172,3.1706,3.1768,3.1894,3.1326,3.0778,3.0397,0.0,0.0,0.0,2.879,2.8856,2.9845,3.08,3.1774,3.2785,3.3734,3.4293,3.4427,3.5375,3.5484,3.4831,3.5703,3.5324,3.3903,3.3898,3.3957,3.3925,3.2372,3.2151,3.2702,3.1197,3.0604,3.0604,3.0602,3.061,3.061,3.0673,3.0657,3.0613,3.061,3.0602,3.0613,3.0613,3.0052,2.9214,2.8285,2.7387,2.6532,2.5721,2.5503,2.5532,2.5568,2.5607,2.5593,2.5615,2.5652,2.5701,2.5696,2.5751,2.5799,2.5781,2.6502,2.71,2.7097,2.7771,2.8573,2.9396,0.0,0.0,0.0,0.0,0.0,0.0,3.0746,3.0171,0.0,0.0,0.0,0.0,0.0,3.4828,3.5573,3.5505,3.4862,3.3605,3.3447,3.2306,3.0122,2.8869,2.8532,2.9012,2.8176,2.7754,2.7701,2.7701,2.7659,2.7587,2.7526,2.8303,2.9419,2.8645,2.9162,3.0225,2.8682,2.9109,3.0362,0.0,0.0,3.2433,3.229,3.2577,3.2755,3.2504,3.2253,3.2313,3.2925,3.2437,3.2303,3.3099,3.3075,3.2976,3.293,3.14,3.0522,3.0677,3.0522,3.0856,3.1808,3.2217,3.2871,3.3809,3.4223,3.4517,3.4727,3.5039,3.5154,3.5035,3.5245,3.489,3.4055,3.4002,3.3714,3.321,3.2196,3.1921,3.2048,3.1011,3.0618,3.0668,3.068,3.068,3.0683,3.0697,3.0697,3.0671,3.0672,3.0678,3.0672,3.0672,3.0113,2.9288,2.8279,2.7459,2.6668,2.5807,2.5571,2.5571,2.5591,2.56,2.5613,2.5655,2.5687,2.5696,2.5703,2.6224,2.6699,2.6699,2.74,2.7998,2.8001,2.8677,2.9255,2.9463,3.0547,0.0,0.0,3.1255,3.1268,3.0694,3.0362,3.0395,0.0,0.0,0.0,0.0,3.4815,3.5112,3.4506,3.4418,3.4119,3.3605,3.3321,3.2283,3.055,3.013,2.9354,2.8269,2.8558,2.8298,2.763,2.763,2.7587,2.7526,2.7496,2.799,2.8743,2.8472,2.8904,2.9522,2.8494,2.9091,3.0219,3.2573,3.2719,3.2787,3.2522,3.2925,3.3056,3.2456,3.2629,3.2903,3.3158,3.3058,3.3195,3.3778,3.3842,3.3947,3.4099,3.2658,3.177,3.1873,3.1568,3.1789,3.2742,3.2971,3.35,3.4454,3.4607,3.4751,3.4888,3.5038,3.5126,3.5174,3.5187,3.4825,3.4128,3.3711,3.3359,3.296,3.1758,3.1495,3.182,3.0979,3.0685,3.0749,3.0711,3.0724,3.0748,3.0748,3.0753,3.0739,3.0755,3.074,3.074,3.074,3.0451,2.9916,2.8953,2.8121,2.7394,2.6922,2.6794,2.6805,2.6832,2.6838,2.6732,2.6376,2.6592,2.6789,2.6382,2.6992,2.7597,2.7596,2.8606,2.9318,2.8909,2.9858,3.0492,3.0088,3.113,0.0,3.1757,3.1777,3.1722,3.152,3.1071,3.091,3.1191,0.0,0.0,3.3892,3.467,3.5019,3.4833,3.475,3.4303,3.3569,3.2607,3.1675,3.0751,3.0212,2.9443,2.8534,2.9211,2.9018,2.8141,2.8141,2.7888,2.7452,2.7452,2.8048,2.8902,2.8457,2.911,3.0204,2.8987,2.9496,3.064,3.3086,3.3147,3.3051,3.2536,3.3131,3.3268,3.201,3.2951,3.361,3.3136,3.3562,3.3994,3.4154,3.4179,3.4316,3.4539,3.3622,3.3067,3.3067,3.2484,3.2501,3.3321,3.351,3.3992,3.481,3.4908,3.5001,3.5056,3.5174,3.5273,3.5324,3.533,3.4941,3.421,3.352,3.3109,3.2841,3.1413,3.1239,3.1868,3.1197,3.1012,3.1164,3.0973,3.0955,3.1001,3.0992,3.0997,3.1005,3.0996,3.0999,3.0963,3.0846,3.0801,3.0655,2.9904,2.9177,2.8552,2.8298,2.8223,2.8225,2.8288,2.8291,2.81,2.7363,2.7773,2.8086,2.7344,2.7889,2.8531,2.8649,2.9945,3.0746,3.0014,3.1198,3.1843,3.0834,0.0,3.2247,3.2658,3.2164,3.2011,3.2622,3.1952,3.1516,3.1571,3.2826,3.3581,0.0,3.4098,3.474,3.5443,3.5321,3.4577,3.3211,3.1719,3.0848,3.0571,2.9712,2.9218,2.9107,2.966,2.9513,2.8802,2.8679,2.8185,2.7438,2.7407,2.8189,2.9265,2.8425,2.9433,3.1138,2.9573,2.998,3.1155,3.3433,3.3559,3.3671,3.365,3.3802,3.3906,3.3863,3.3501,3.3473,3.4147,3.3799,3.3768,3.4442,3.4628,3.4713,3.4733,3.4622,3.4507,3.4417,3.4242,3.4242,3.4438,3.4602,3.4756,3.4964,3.5157,3.5235,3.5235,3.534,3.5397,3.5476,3.5464,3.5075,3.4351,3.4246,3.3438,3.2154,3.189,3.1896,3.2055,3.1929,3.2333,3.292,3.2175,3.189,3.19,3.1906,3.1909,3.1892,3.1899,3.1903,3.177,3.1028,3.0798,3.0761,3.0644,3.0547,3.0156,2.8682,2.8288,2.8291,2.8295,2.8297,2.8259,2.8125,2.8203,2.8262,2.8124,2.8785,2.9617,3.0296,3.1226,3.1858,3.1722,3.2499,3.2544,3.0931,0.0,3.2416,3.1052,3.1375,3.1718,3.1724,3.1537,3.1946,3.3216,3.3431,3.3786,3.4376,3.4398,3.4367,3.4358,3.4152,3.3341,3.1815,3.115,3.0427,2.9612,2.9336,2.916,2.9089,2.9079,2.8987,2.8767,2.8145,2.7764,2.7557,2.7496,2.7987,2.8687,2.8287,2.9125,3.0438,2.9386,2.9959,3.1128,3.3726,3.3815,3.3947,3.4099,3.4173,3.4269,3.4495,3.422,3.4172,3.4653,3.4411,3.4356,3.4733,3.485,3.4908,3.4963,3.5016,3.5034,3.5018,3.4889,3.4851,3.4908,3.5,3.5138,3.527,3.5369,3.5424,3.5424,3.547,3.5519,3.555,3.5596,3.5445,3.5136,3.4706,3.4105,3.3362,3.2939,3.2771,3.2795,3.2803,3.3051,3.3356,3.294,3.279,3.2799,3.2803,3.2805,3.2729,3.2265,3.2109,3.2031,3.1621,3.1171,3.0896,3.1365,3.1229,3.0721,2.9922,2.9706,2.9706,2.9707,2.9707,2.957,2.9119,2.9352,2.9567,2.9095,3.0042,3.1064,3.1432,3.2569,3.3293,3.2814,3.3459,0.0,0.0,3.2654,3.2803,3.2008,3.178,3.1833,3.2124,3.208,3.2521,3.3617,3.4017,3.4333,3.4604,3.445,3.4269,3.4099,3.3862,3.312,3.1903,3.0823,3.0019,2.9444,2.9265,2.9178,2.9107,2.9396,2.9285,2.8784,2.8404,2.791,2.7421,2.739,2.8066,2.9072,2.8853,2.9708,3.0933,3.0428,3.0675,3.114,3.3998,3.4074,3.4197,3.4363,3.445,3.4539,3.4728,3.4829,3.4888,3.4945,3.4982,3.5001,3.5001,3.5073,3.5124,3.5171,3.5254,3.5315,3.534,3.5212,3.5152,3.5179,3.5235,3.535,3.5521,3.5538,3.5543,3.5543,3.5618,3.5649,3.5649,3.5698,3.5754,3.5799,3.5184,3.4802,3.458,3.397,3.37,3.3695,3.3707,3.3814,3.3979,3.3781,3.3707,3.3691,3.3691,3.3691,3.3593,3.2923,3.2687,3.265,3.2452,3.1938,3.1524,3.2194,3.1963,3.144,3.1224,3.1032,3.0877,3.0873,3.0874,3.0698,3.0025,3.0396,3.0747,3.0289,3.1191,3.2214,3.2619,3.3731,3.4386,3.3719,0.0,0.0,0.0,3.3015,3.2938,3.2497,3.1804,3.17,3.2584,3.2607,3.2947,3.3903,3.4451,3.4727,3.4602,3.4386,3.4197,3.4023,3.379,3.3099,3.1898,3.0571,2.9669,2.9203,2.8998,2.8971,2.9077,2.9396,2.9285,2.8802,2.8551,2.8007,2.7345,2.7313,2.8194,2.9506,2.9437,3.0257,3.15,3.1351,3.1274,3.123,3.4363,3.4473,3.4561,3.4666,3.4727,3.4809,3.487,3.5001,3.5073,3.5088,3.5193,3.5261,3.5261,3.5388,3.5441,3.5378,3.5509,3.5546,3.5483,3.5531,3.5502,3.5379,3.5438,3.5507,3.5596,3.5649,3.5699,3.5699,3.5745,3.5782,3.5791,3.5791,3.5827,3.5879,3.5836,3.5383,3.4694,3.4638,3.4605,3.4608,3.4604,3.5097,3.5722,3.4902,3.4606,3.4599,3.4599,3.4595,3.4588,3.453,3.4462,3.4296,3.3542,3.3212,3.3151,3.3271,3.3262,3.3041,3.2231,3.1411,3.0804,3.0801,3.0806,3.0788,3.0729,3.0755,3.1011,3.1765,3.2002,3.2572,3.4133,3.451,3.4581,3.4517,0.0,0.0,3.2344,3.2629,3.245,3.0706,3.0388,3.092,3.2454,3.2492,3.307,3.468,3.4693,3.4623,3.4602,3.434,3.4074,3.3753,3.3577,3.2708,3.1,3.0252,2.9351,2.8298,2.8142,2.8417,2.8969,2.8223,2.8215,2.8767,2.8019,2.7609,2.7465,2.7407,2.8259,2.9574,2.9437,3.0276,3.1579,3.1372,3.1295,3.1257,3.458,3.4666,3.4749,3.4811,3.4908,3.4983,3.5018,3.5143,3.5245,3.5289,3.532,3.5383,3.5422,3.5476,3.5509,3.5534,3.5612,3.5657,3.5626,3.5658,3.5639,3.5593,3.5607,3.5659,3.5726,3.5743,3.5779,3.5815,3.5845,3.5872,3.5857,3.5866,3.5883,3.5903,3.5938,3.5798,3.5516,3.5508,3.5519,3.5505,3.5507,3.5703,3.5955,3.5639,3.5519,3.5515,3.5506,3.5519,3.5415,3.4831,3.4627,3.4545,3.4238,3.3768,3.34,3.3933,3.3706,3.3323,3.354,3.2615,3.1604,3.1617,3.1207,3.095,3.1473,3.1605,3.1835,3.2669,3.3276,3.3822,3.4431,3.4987,3.5329,3.5277,0.0,3.5195,3.3674,3.3175,3.2536,3.1314,3.0605,3.0835,3.2438,3.2528,3.3144,3.4775,3.4749,3.4623,3.4495,3.4148,3.3621,3.2903,3.3255,3.2806,3.1464,3.0406,2.9654,2.9116,2.8898,2.9119,2.9722,2.8838,2.8846,2.9464,2.8128,2.7805,2.8192,2.7691,2.8028,2.8968,2.9368,3.0091,3.0962,3.1312,3.1351,3.1295,3.549,3.5229,3.5078,3.5685,3.5451,3.5272,3.5518,3.5442,3.5383,3.5441,3.5449,3.5489,3.5534,3.555,3.5585,3.5626,3.5689,3.5737,3.5728,3.5756,3.5745,3.5727,3.5736,3.5752,3.5826,3.584,3.5853,3.5905,3.5922,3.5922,3.593,3.5929,3.5923,3.5934,3.5981,3.5996,3.6003,3.6009,3.5995,3.5995,3.5995,3.5991,3.6001,3.6267,3.6378,3.6372,3.6376,3.6543,3.6572,3.5377,3.5171,3.534,3.5055,3.4574,3.419,3.4714,3.4481,3.414,3.4722,3.3881,3.2756,3.2508,3.1996,3.1713,3.2302,3.2458,3.268,3.3518,3.4146,3.4618,3.4842,3.5348,3.5718,3.5679,3.5648,3.5325,3.4461,3.3499,3.2577,3.1706,3.1005,3.1096,3.2409,3.2705,3.3374,3.4714,3.4666,3.4473,3.4245,3.3947,3.3469,3.2803,3.319,3.3031,3.2216,3.0973,3.0172,2.9745,2.9633,2.9779,3.0099,2.9478,2.9449,2.9804,2.8662,2.8459,2.8928,2.834,2.8551,2.9229,2.9747,3.0351,3.0984,3.135,3.1462,3.1368,3.7243,3.6269,3.5675,3.7405,3.638,3.5622,3.6466,3.5974,3.5515,3.5496,3.5565,3.5593,3.5607,3.5659,3.5708,3.5708,3.576,3.5803,3.5799,3.5857,3.5864,3.5799,3.5803,3.5833,3.5905,3.5894,3.5909,3.5909,3.5962,3.6005,3.6005,3.6004,3.5994,3.5994,3.6007,3.5993,3.5995,3.5996,3.5995,3.5991,3.5999,3.5962,3.6001,3.6869,3.7194,3.7203,3.7203,3.7715,3.8128,3.6382,3.6378,3.6964,3.609,3.5791,3.5782,3.5718,3.5756,3.5782,3.5718,3.5059,3.4225,3.341,3.3191,3.3211,3.3208,3.3223,3.3456,3.4329,3.4481,3.4686,3.5543,3.5667,3.5615,3.5631,3.5558,3.52,3.4327,3.3461,3.2549,3.1537,3.1401,3.1648,3.233,3.3072,3.3805,3.4548,3.4409,3.4173,3.3921,3.3815,3.3726,3.3605,3.3481,3.3291,3.3081,3.1906,3.085,2.9911,3.0132,3.0135,3.0004,2.9859,2.9744,2.9626,2.9608,2.9574,2.9506,2.9506,2.9972,3.0679,3.0696,3.1145,3.1746,3.1576,3.1517,3.1479,3.7519,3.7381,3.7239,3.7766,3.7512,3.714,3.6793,3.6588,3.6281,3.5712,3.5648,3.5689,3.5727,3.5763,3.5788,3.5842,3.5859,3.5872,3.5879,3.5892,3.5898,3.5869,3.5878,3.5903,3.5968,3.5966,3.597,3.597,3.5988,3.5994,3.6004,3.6001,3.6007,3.6007,3.5994,3.5996,3.5995,3.5992,3.6005,3.5991,3.5942,3.6278,3.6845,3.7091,3.756,3.8038,3.8043,3.8163,3.8158,3.7014,3.721,3.7783,3.6851,3.6151,3.5654,3.5643,3.5643,3.5654,3.5631,3.5438,3.5055,3.4235,3.3585,3.3285,3.3895,3.4526,3.502,3.5282,3.626,3.6945,3.6547,3.6948,3.7328,3.7233,3.6719,3.5984,3.5032,3.4198,3.3295,3.2289,3.1635,3.176,3.3053,3.2826,3.3122,3.4427,3.4293,3.3833,3.3025,3.3414,3.3587,3.3386,3.3238,3.317,3.3104,3.2013,3.1559,3.172,3.1182,3.1132,3.1497,3.0957,3.0958,3.1359,3.0144,2.9988,3.0559,2.9952,2.9798,2.9972,3.0542,3.087,3.1093,3.1387,3.1517,3.1479,3.8553,3.8385,3.82,3.8883,3.855,3.811,3.7892,3.7362,3.6803,3.628,3.593,3.5752,3.5807,3.6129,3.6236,3.5931,3.5891,3.6187,3.6879,3.6298,3.6094,3.6438,3.6126,3.5955,3.6004,3.5991,3.5996,3.5999,3.6007,3.6009,3.6007,3.5995,3.5996,3.5996,3.5995,3.6009,3.6001,3.5977,3.5962,3.5981,3.6299,3.6713,3.7241,3.7936,3.8471,3.8863,3.8877,3.9044,3.9102,3.788,3.781,3.8117,3.7556,3.6986,3.6492,3.6164,3.6068,3.5958,3.5612,3.5772,3.592,3.5423,3.4685,3.4397,3.5557,3.5991,3.6219,3.6535,3.7392,3.7893,3.7305,3.7627,3.7932,3.7814,3.7108,3.6364,3.5728,3.4628,3.3646,3.3009,3.2428,3.243,3.333,3.3212,3.3428,3.4242,3.4099,3.3847,3.3515,3.3824,3.408,3.425,3.3777,3.353,3.3526,3.2491,3.2192,3.2645,3.2019,3.1892,3.2267,3.1742,3.169,3.1985,3.0941,3.0838,3.1342,3.0803,3.056,3.0525,3.1009,3.1163,3.1179,3.1442,3.15,3.1479,4.0042,3.9345,3.8833,4.0443,3.9503,3.8762,3.9428,3.8268,3.7275,3.7141,3.6491,3.6034,3.6032,3.68,3.698,3.6092,3.5958,3.6621,3.8272,3.6965,3.6462,3.7276,3.6606,3.6202,3.6124,3.6049,3.6033,3.6112,3.6113,3.6152,3.6211,3.6149,3.6106,3.6106,3.6035,3.5985,3.5994,3.5927,3.5948,3.6078,3.6872,3.7247,3.7498,3.9088,3.9712,3.9704,3.9704,4.0158,4.0552,3.8965,3.8273,3.8092,3.8169,3.8103,3.7844,3.7112,3.6867,3.6628,3.582,3.6195,3.6819,3.6895,3.6334,3.617,3.7646,3.7492,3.7189,3.7858,3.805,3.8055,3.7942,3.7959,3.7965,3.7813,3.707,3.648,3.6406,3.4907,3.3753,3.3696,3.3523,3.3402,3.3387,3.3975,3.4282,3.409,3.3979,3.4211,3.495,3.4818,3.4992,3.5648,3.4702,3.4178,3.4178,3.3194,3.2755,3.2876,3.2626,3.244,3.2354,3.2196,3.2001,3.1837,3.1875,3.1839,3.18,3.18,3.18,3.18,3.18,3.18,3.1783,3.1654,3.1559,3.1479,4.0409,4.0417,4.0331,4.0715,4.0518,4.0179,3.9732,3.9369,3.8899,3.8198,3.7987,3.791,3.7903,3.8102,3.7859,3.6991,3.6333,3.6426,3.7487,3.7162,3.7045,3.7299,3.777,3.7714,3.703,3.6347,3.6327,3.7028,3.7026,3.7335,3.7934,3.7268,3.6947,3.6914,3.6228,3.5919,3.5928,3.5903,3.6261,3.6858,3.7055,3.7894,3.911,3.9491,3.9993,4.0533,4.049,4.0571,4.0668,4.0221,3.9129,3.8055,3.8747,3.8466,3.7878,3.7705,3.7648,3.7594,3.7354,3.7414,3.7704,3.8338,3.7859,3.7373,3.7832,3.8278,3.8473,3.8024,3.886,3.95,3.8856,3.9242,3.9623,3.9425,3.8192,3.7223,3.71,3.5625,3.4508,3.4405,3.3797,3.3583,3.4023,3.4104,3.4282,3.4761,3.4706,3.4911,3.5501,3.5476,3.5471,3.5442,3.4655,3.4127,3.3962,3.3197,3.2722,3.2657,3.2488,3.237,3.2249,3.2161,3.209,3.2054,3.1893,3.1856,3.1875,3.1875,3.1875,3.1875,3.1875,3.1875,3.1875,3.1654,3.1559,3.1479,4.0571,4.0796,4.0859,4.0898,4.0924,4.0801,4.0388,3.9981,3.9591,3.9123,3.8731,3.8493,3.8497,3.8861,3.8931,3.8486,3.7321,3.7175,3.8454,3.8119,3.8042,3.8476,3.8535,3.8336,3.788,3.7424,3.7421,3.7873,3.7867,3.8096,3.8491,3.7609,3.7206,3.718,3.6682,3.6236,3.5905,3.6747,3.7075,3.7109,3.7966,3.8821,3.9636,4.002,4.0413,4.0757,4.07,4.0668,4.0598,4.0554,3.99,3.9166,3.9591,3.9385,3.8912,3.8492,3.8341,3.8229,3.7829,3.7964,3.8384,3.8804,3.8861,3.8823,3.8971,3.899,3.8991,3.8916,3.9528,3.9948,3.9469,3.9732,3.9954,3.9823,3.8445,3.7364,3.7276,3.5744,3.4607,3.4517,3.4054,3.3846,3.4068,3.4323,3.4614,3.4944,3.5232,3.5484,3.5729,3.6013,3.5936,3.5411,3.4898,3.4369,3.3894,3.3046,3.2623,3.2539,3.2472,3.2335,3.2144,3.2144,3.2073,3.1929,3.1893,3.1839,3.1839,3.1839,3.1839,3.1839,3.1839,3.1839,3.1856,3.1746,3.1596,3.1479,4.0692,4.0869,4.0921,4.0984,4.1013,4.1019,4.1025,4.0443,4.0028,4.0028,3.9384,3.8941,3.8935,3.9476,3.9815,3.9815,3.8415,3.8202,3.9804,3.9219,3.9101,3.9765,3.9248,3.8866,3.8726,3.8872,3.8863,3.8725,3.8701,3.8785,3.8915,3.8046,3.7546,3.7403,3.7354,3.6833,3.6134,3.7713,3.8025,3.756,3.9005,3.9663,3.9854,4.0517,4.0745,4.0668,4.0668,4.0583,4.0457,4.0457,4.0411,4.0363,4.0289,4.0252,4.0043,3.93,3.9051,3.886,3.8156,3.846,3.8972,3.8972,3.9463,4.0013,4.0288,3.968,3.9221,3.9844,3.9954,3.9911,3.9804,3.9781,3.9735,3.9665,3.8309,3.7231,3.7145,3.5589,3.445,3.4363,3.4303,3.4227,3.4115,3.4715,3.518,3.5268,3.5757,3.6014,3.5951,3.6546,3.6429,3.5395,3.5188,3.4693,3.386,3.2945,3.2507,3.2473,3.2614,3.2459,3.2108,3.2144,3.2037,3.1837,3.2014,3.2029,3.199,3.2165,3.2216,3.2216,3.2216,3.2216,3.2216,3.2179,3.2046,3.182,4.0876,4.0929,4.0986,4.1,4.1039,4.1081,4.1085,4.0992,4.0918,4.0929,4.0821,4.0745,4.0745,4.0228,3.9881,3.9882,3.8984,3.8847,3.984,3.9741,3.9699,3.9793,4.0405,4.0407,3.9638,4.0354,4.0388,3.9616,3.9565,3.9916,4.0634,3.9777,3.8957,3.8244,3.8227,3.7732,3.6996,3.7919,3.8675,3.9248,3.9445,3.9932,4.0571,4.0623,4.0615,4.0621,4.0549,4.0441,4.0342,4.0342,4.0271,4.0234,4.0215,4.0176,4.0078,3.9905,3.9846,3.9785,3.9567,3.9561,3.9656,3.9588,3.966,3.9924,4.0722,4.0257,3.9716,3.9892,3.9819,3.975,3.9735,3.9661,3.9583,3.9471,3.8102,3.7009,3.6956,3.5427,3.4293,3.4245,3.4652,3.4917,3.4853,3.5367,3.6012,3.6757,3.6743,3.6633,3.6584,3.7306,3.695,3.5189,3.5101,3.4676,3.3741,3.2895,3.2473,3.2406,3.3002,3.2878,3.2179,3.2144,3.2037,3.191,3.2493,3.2748,3.28,3.3571,3.3904,3.3904,3.3904,3.3904,3.3848,3.367,3.3551,3.3287,4.096,4.1007,4.105,4.1067,4.1081,4.1094,4.1101,4.1091,4.1097,4.1101,4.1107,4.111,4.1107,4.0389,3.9902,3.9901,3.9506,3.9424,3.983,4.0268,4.0535,4.0531,4.0886,4.0911,4.0474,4.0851,4.085,4.0458,4.0434,4.0622,4.098,4.0068,3.944,3.9063,3.9024,3.8519,3.7792,3.9138,3.963,3.953,3.999,4.0359,4.0629,4.0579,4.0549,4.0592,4.1034,4.0799,4.0364,4.0806,4.0922,4.0843,4.0841,4.1083,4.1285,4.0764,4.0609,4.0564,4.0476,4.0094,3.9849,4.0268,4.0,3.982,4.0685,4.0566,4.0284,4.0382,3.9957,3.9588,3.9539,3.9527,3.9432,3.9317,3.8352,3.7412,3.6812,3.6099,3.5565,3.5346,3.5542,3.565,3.5572,3.6133,3.6658,3.6939,3.7293,3.723,3.668,3.7327,3.6899,3.5154,3.4996,3.4535,3.3723,3.3248,3.2809,3.2405,3.3487,3.3609,3.2911,3.3149,3.3211,3.3152,3.346,3.3559,3.3593,3.4017,3.4138,3.4138,3.4138,3.4138,3.4098,3.398,3.3545,3.3106]}]]